<?xml version="1.0" encoding="UTF-8" standalone="no" ?>
<gpx xmlns="http://www.topografix.com/GPX/1/1" xmlns:xsi="http://www.w3.org/2001/XMLSchema-instance" xsi:schemaLocation="http://www.topografix.com/GPX/1/1 http://www.topografix.com/GPX/1/1/gpx.xsd" version="1.1" creator="VisuGPX - https://www.visugpx.com">
  <metadata>
    <name>RANDO CHARRAIX 22 KM</name>
    <desc><![CDATA[RANDO CHARRAIX 22 KM.DEPART ARRIVEE CHARRAIX.CASCADE DE LA BESQUE.PRADES.VERGUES.BOISSIERES.RILHAC.ST JULIEN DES CHAZES.LE MAS.]]></desc>
  </metadata>
  <trk>
    <name><![CDATA[01-MAI-22 16:27:02]]></name>
    <extensions>
      <line xmlns="http://www.topografix.com/GPX/gpx_style/0/2">
        <color>0000FF</color>
        <width>4</width>
      </line>
    </extensions>
    <trkseg>
      <trkpt lat="45.02761" lon="3.57103">
        <ele>902.33</ele>
        <time>2022-05-01T07:14:26Z</time>
      </trkpt>
      <trkpt lat="45.02759" lon="3.57102">
        <ele>905.22</ele>
        <time>2022-05-01T07:14:45Z</time>
      </trkpt>
      <trkpt lat="45.0276" lon="3.57103">
        <ele>905.22</ele>
        <time>2022-05-01T07:15:07Z</time>
      </trkpt>
      <trkpt lat="45.0276" lon="3.57103">
        <ele>905.22</ele>
        <time>2022-05-01T07:15:24Z</time>
      </trkpt>
      <trkpt lat="45.02759" lon="3.57103">
        <ele>905.22</ele>
        <time>2022-05-01T07:15:34Z</time>
      </trkpt>
      <trkpt lat="45.02759" lon="3.57101">
        <ele>904.74</ele>
        <time>2022-05-01T07:15:42Z</time>
      </trkpt>
      <trkpt lat="45.02755" lon="3.57087">
        <ele>904.26</ele>
        <time>2022-05-01T07:15:56Z</time>
      </trkpt>
      <trkpt lat="45.02757" lon="3.57078">
        <ele>905.7</ele>
        <time>2022-05-01T07:16:04Z</time>
      </trkpt>
      <trkpt lat="45.02759" lon="3.57073">
        <ele>906.18</ele>
        <time>2022-05-01T07:16:08Z</time>
      </trkpt>
      <trkpt lat="45.02761" lon="3.5707">
        <ele>906.66</ele>
        <time>2022-05-01T07:16:11Z</time>
      </trkpt>
      <trkpt lat="45.02766" lon="3.57072">
        <ele>905.7</ele>
        <time>2022-05-01T07:16:15Z</time>
      </trkpt>
      <trkpt lat="45.02778" lon="3.57095">
        <ele>906.66</ele>
        <time>2022-05-01T07:16:31Z</time>
      </trkpt>
      <trkpt lat="45.02775" lon="3.57128">
        <ele>905.22</ele>
        <time>2022-05-01T07:16:50Z</time>
      </trkpt>
      <trkpt lat="45.0276" lon="3.57143">
        <ele>905.7</ele>
        <time>2022-05-01T07:17:07Z</time>
      </trkpt>
      <trkpt lat="45.02743" lon="3.57142">
        <ele>904.74</ele>
        <time>2022-05-01T07:17:21Z</time>
      </trkpt>
      <trkpt lat="45.02734" lon="3.57142">
        <ele>905.7</ele>
        <time>2022-05-01T07:17:29Z</time>
      </trkpt>
      <trkpt lat="45.02716" lon="3.57156">
        <ele>907.62</ele>
        <time>2022-05-01T07:17:46Z</time>
      </trkpt>
      <trkpt lat="45.02702" lon="3.5717">
        <ele>907.62</ele>
        <time>2022-05-01T07:18:01Z</time>
      </trkpt>
      <trkpt lat="45.02699" lon="3.57173">
        <ele>907.62</ele>
        <time>2022-05-01T07:18:05Z</time>
      </trkpt>
      <trkpt lat="45.02685" lon="3.57187">
        <ele>905.7</ele>
        <time>2022-05-01T07:18:22Z</time>
      </trkpt>
      <trkpt lat="45.02681" lon="3.57194">
        <ele>905.7</ele>
        <time>2022-05-01T07:18:28Z</time>
      </trkpt>
      <trkpt lat="45.02679" lon="3.57195">
        <ele>905.7</ele>
        <time>2022-05-01T07:18:30Z</time>
      </trkpt>
      <trkpt lat="45.02672" lon="3.57209">
        <ele>906.66</ele>
        <time>2022-05-01T07:18:44Z</time>
      </trkpt>
      <trkpt lat="45.02667" lon="3.57217">
        <ele>905.7</ele>
        <time>2022-05-01T07:18:50Z</time>
      </trkpt>
      <trkpt lat="45.02664" lon="3.57222">
        <ele>902.82</ele>
        <time>2022-05-01T07:18:53Z</time>
      </trkpt>
      <trkpt lat="45.02657" lon="3.57234">
        <ele>899.93</ele>
        <time>2022-05-01T07:19:01Z</time>
      </trkpt>
      <trkpt lat="45.02654" lon="3.57254">
        <ele>897.05</ele>
        <time>2022-05-01T07:19:17Z</time>
      </trkpt>
      <trkpt lat="45.02654" lon="3.57257">
        <ele>897.05</ele>
        <time>2022-05-01T07:19:19Z</time>
      </trkpt>
      <trkpt lat="45.02655" lon="3.57269">
        <ele>895.61</ele>
        <time>2022-05-01T07:19:27Z</time>
      </trkpt>
      <trkpt lat="45.02654" lon="3.57283">
        <ele>893.2</ele>
        <time>2022-05-01T07:19:33Z</time>
      </trkpt>
      <trkpt lat="45.02653" lon="3.57293">
        <ele>891.28</ele>
        <time>2022-05-01T07:19:37Z</time>
      </trkpt>
      <trkpt lat="45.02648" lon="3.57311">
        <ele>893.68</ele>
        <time>2022-05-01T07:19:48Z</time>
      </trkpt>
      <trkpt lat="45.02647" lon="3.57313">
        <ele>893.68</ele>
        <time>2022-05-01T07:19:49Z</time>
      </trkpt>
      <trkpt lat="45.02638" lon="3.5734">
        <ele>895.12</ele>
        <time>2022-05-01T07:20:05Z</time>
      </trkpt>
      <trkpt lat="45.02626" lon="3.57362">
        <ele>892.72</ele>
        <time>2022-05-01T07:20:22Z</time>
      </trkpt>
      <trkpt lat="45.02618" lon="3.57377">
        <ele>892.24</ele>
        <time>2022-05-01T07:20:36Z</time>
      </trkpt>
      <trkpt lat="45.02617" lon="3.57379">
        <ele>892.24</ele>
        <time>2022-05-01T07:20:38Z</time>
      </trkpt>
      <trkpt lat="45.02617" lon="3.57386">
        <ele>891.76</ele>
        <time>2022-05-01T07:20:42Z</time>
      </trkpt>
      <trkpt lat="45.02615" lon="3.57392">
        <ele>890.8</ele>
        <time>2022-05-01T07:20:46Z</time>
      </trkpt>
      <trkpt lat="45.02615" lon="3.57395">
        <ele>890.32</ele>
        <time>2022-05-01T07:20:48Z</time>
      </trkpt>
      <trkpt lat="45.02604" lon="3.57408">
        <ele>889.36</ele>
        <time>2022-05-01T07:21:02Z</time>
      </trkpt>
      <trkpt lat="45.02604" lon="3.57412">
        <ele>889.36</ele>
        <time>2022-05-01T07:21:05Z</time>
      </trkpt>
      <trkpt lat="45.02589" lon="3.57433">
        <ele>887.91</ele>
        <time>2022-05-01T07:21:23Z</time>
      </trkpt>
      <trkpt lat="45.02587" lon="3.57434">
        <ele>887.91</ele>
        <time>2022-05-01T07:21:24Z</time>
      </trkpt>
      <trkpt lat="45.02581" lon="3.57435">
        <ele>886.95</ele>
        <time>2022-05-01T07:21:29Z</time>
      </trkpt>
      <trkpt lat="45.02573" lon="3.57433">
        <ele>885.99</ele>
        <time>2022-05-01T07:21:36Z</time>
      </trkpt>
      <trkpt lat="45.02564" lon="3.57431">
        <ele>884.55</ele>
        <time>2022-05-01T07:21:42Z</time>
      </trkpt>
      <trkpt lat="45.02539" lon="3.57426">
        <ele>879.74</ele>
        <time>2022-05-01T07:22:01Z</time>
      </trkpt>
      <trkpt lat="45.02522" lon="3.5743">
        <ele>880.22</ele>
        <time>2022-05-01T07:22:17Z</time>
      </trkpt>
      <trkpt lat="45.02509" lon="3.57453">
        <ele>882.63</ele>
        <time>2022-05-01T07:22:35Z</time>
      </trkpt>
      <trkpt lat="45.02499" lon="3.57471">
        <ele>883.11</ele>
        <time>2022-05-01T07:22:49Z</time>
      </trkpt>
      <trkpt lat="45.02495" lon="3.57477">
        <ele>883.11</ele>
        <time>2022-05-01T07:22:54Z</time>
      </trkpt>
      <trkpt lat="45.02479" lon="3.57494">
        <ele>883.59</ele>
        <time>2022-05-01T07:23:10Z</time>
      </trkpt>
      <trkpt lat="45.02465" lon="3.57503">
        <ele>880.71</ele>
        <time>2022-05-01T07:23:26Z</time>
      </trkpt>
      <trkpt lat="45.02458" lon="3.57507">
        <ele>878.78</ele>
        <time>2022-05-01T07:23:36Z</time>
      </trkpt>
      <trkpt lat="45.0245" lon="3.57515">
        <ele>879.26</ele>
        <time>2022-05-01T07:23:46Z</time>
      </trkpt>
      <trkpt lat="45.02437" lon="3.57523">
        <ele>877.82</ele>
        <time>2022-05-01T07:24:01Z</time>
      </trkpt>
      <trkpt lat="45.02424" lon="3.5753">
        <ele>876.86</ele>
        <time>2022-05-01T07:24:14Z</time>
      </trkpt>
      <trkpt lat="45.02422" lon="3.57531">
        <ele>876.86</ele>
        <time>2022-05-01T07:24:17Z</time>
      </trkpt>
      <trkpt lat="45.02406" lon="3.57535">
        <ele>875.42</ele>
        <time>2022-05-01T07:24:32Z</time>
      </trkpt>
      <trkpt lat="45.02401" lon="3.57535">
        <ele>874.94</ele>
        <time>2022-05-01T07:24:37Z</time>
      </trkpt>
      <trkpt lat="45.02397" lon="3.57534">
        <ele>874.46</ele>
        <time>2022-05-01T07:24:41Z</time>
      </trkpt>
      <trkpt lat="45.02383" lon="3.5753">
        <ele>869.65</ele>
        <time>2022-05-01T07:24:55Z</time>
      </trkpt>
      <trkpt lat="45.02371" lon="3.57524">
        <ele>868.69</ele>
        <time>2022-05-01T07:25:10Z</time>
      </trkpt>
      <trkpt lat="45.0236" lon="3.57521">
        <ele>868.69</ele>
        <time>2022-05-01T07:25:19Z</time>
      </trkpt>
      <trkpt lat="45.02349" lon="3.5752">
        <ele>867.25</ele>
        <time>2022-05-01T07:25:29Z</time>
      </trkpt>
      <trkpt lat="45.02334" lon="3.57526">
        <ele>867.25</ele>
        <time>2022-05-01T07:25:43Z</time>
      </trkpt>
      <trkpt lat="45.02332" lon="3.57527">
        <ele>867.25</ele>
        <time>2022-05-01T07:25:45Z</time>
      </trkpt>
      <trkpt lat="45.02327" lon="3.5753">
        <ele>867.73</ele>
        <time>2022-05-01T07:25:49Z</time>
      </trkpt>
      <trkpt lat="45.0231" lon="3.57533">
        <ele>865.8</ele>
        <time>2022-05-01T07:26:02Z</time>
      </trkpt>
      <trkpt lat="45.02307" lon="3.57533">
        <ele>865.8</ele>
        <time>2022-05-01T07:26:04Z</time>
      </trkpt>
      <trkpt lat="45.02288" lon="3.57527">
        <ele>865.32</ele>
        <time>2022-05-01T07:26:20Z</time>
      </trkpt>
      <trkpt lat="45.02273" lon="3.57513">
        <ele>866.29</ele>
        <time>2022-05-01T07:26:35Z</time>
      </trkpt>
      <trkpt lat="45.0226" lon="3.57498">
        <ele>867.73</ele>
        <time>2022-05-01T07:26:50Z</time>
      </trkpt>
      <trkpt lat="45.02252" lon="3.5748">
        <ele>867.25</ele>
        <time>2022-05-01T07:27:02Z</time>
      </trkpt>
      <trkpt lat="45.02244" lon="3.57461">
        <ele>865.32</ele>
        <time>2022-05-01T07:27:14Z</time>
      </trkpt>
      <trkpt lat="45.02242" lon="3.57456">
        <ele>865.32</ele>
        <time>2022-05-01T07:27:18Z</time>
      </trkpt>
      <trkpt lat="45.0224" lon="3.57448">
        <ele>865.8</ele>
        <time>2022-05-01T07:27:24Z</time>
      </trkpt>
      <trkpt lat="45.02234" lon="3.57419">
        <ele>863.4</ele>
        <time>2022-05-01T07:27:41Z</time>
      </trkpt>
      <trkpt lat="45.02231" lon="3.57409">
        <ele>862.44</ele>
        <time>2022-05-01T07:27:47Z</time>
      </trkpt>
      <trkpt lat="45.02214" lon="3.57389">
        <ele>861.48</ele>
        <time>2022-05-01T07:28:03Z</time>
      </trkpt>
      <trkpt lat="45.02198" lon="3.57371">
        <ele>860.52</ele>
        <time>2022-05-01T07:28:20Z</time>
      </trkpt>
      <trkpt lat="45.02182" lon="3.57355">
        <ele>860.52</ele>
        <time>2022-05-01T07:28:36Z</time>
      </trkpt>
      <trkpt lat="45.02169" lon="3.5734">
        <ele>858.59</ele>
        <time>2022-05-01T07:28:50Z</time>
      </trkpt>
      <trkpt lat="45.02161" lon="3.57331">
        <ele>858.59</ele>
        <time>2022-05-01T07:28:58Z</time>
      </trkpt>
      <trkpt lat="45.02153" lon="3.57318">
        <ele>858.59</ele>
        <time>2022-05-01T07:29:08Z</time>
      </trkpt>
      <trkpt lat="45.02138" lon="3.57295">
        <ele>857.63</ele>
        <time>2022-05-01T07:29:25Z</time>
      </trkpt>
      <trkpt lat="45.02133" lon="3.57284">
        <ele>857.15</ele>
        <time>2022-05-01T07:29:32Z</time>
      </trkpt>
      <trkpt lat="45.02127" lon="3.57277">
        <ele>857.63</ele>
        <time>2022-05-01T07:29:39Z</time>
      </trkpt>
      <trkpt lat="45.02118" lon="3.5726">
        <ele>857.63</ele>
        <time>2022-05-01T07:29:52Z</time>
      </trkpt>
      <trkpt lat="45.02099" lon="3.57246">
        <ele>854.27</ele>
        <time>2022-05-01T07:30:10Z</time>
      </trkpt>
      <trkpt lat="45.02075" lon="3.5724">
        <ele>849.46</ele>
        <time>2022-05-01T07:30:28Z</time>
      </trkpt>
      <trkpt lat="45.02065" lon="3.57238">
        <ele>848.5</ele>
        <time>2022-05-01T07:30:40Z</time>
      </trkpt>
      <trkpt lat="45.02044" lon="3.57234">
        <ele>847.54</ele>
        <time>2022-05-01T07:30:56Z</time>
      </trkpt>
      <trkpt lat="45.02028" lon="3.57238">
        <ele>848.02</ele>
        <time>2022-05-01T07:31:09Z</time>
      </trkpt>
      <trkpt lat="45.02012" lon="3.57266">
        <ele>848.98</ele>
        <time>2022-05-01T07:31:29Z</time>
      </trkpt>
      <trkpt lat="45.01997" lon="3.5729">
        <ele>847.06</ele>
        <time>2022-05-01T07:31:46Z</time>
      </trkpt>
      <trkpt lat="45.01983" lon="3.573">
        <ele>845.14</ele>
        <time>2022-05-01T07:31:58Z</time>
      </trkpt>
      <trkpt lat="45.01956" lon="3.57309">
        <ele>842.25</ele>
        <time>2022-05-01T07:32:17Z</time>
      </trkpt>
      <trkpt lat="45.01937" lon="3.57314">
        <ele>840.81</ele>
        <time>2022-05-01T07:32:33Z</time>
      </trkpt>
      <trkpt lat="45.01936" lon="3.57314">
        <ele>840.33</ele>
        <time>2022-05-01T07:32:34Z</time>
      </trkpt>
      <trkpt lat="45.01933" lon="3.57316">
        <ele>840.33</ele>
        <time>2022-05-01T07:32:37Z</time>
      </trkpt>
      <trkpt lat="45.01924" lon="3.57324">
        <ele>842.25</ele>
        <time>2022-05-01T07:32:47Z</time>
      </trkpt>
      <trkpt lat="45.01916" lon="3.57333">
        <ele>842.25</ele>
        <time>2022-05-01T07:32:55Z</time>
      </trkpt>
      <trkpt lat="45.01907" lon="3.57348">
        <ele>843.21</ele>
        <time>2022-05-01T07:33:05Z</time>
      </trkpt>
      <trkpt lat="45.01899" lon="3.57362">
        <ele>844.18</ele>
        <time>2022-05-01T07:33:15Z</time>
      </trkpt>
      <trkpt lat="45.01897" lon="3.57365">
        <ele>844.18</ele>
        <time>2022-05-01T07:33:17Z</time>
      </trkpt>
      <trkpt lat="45.01887" lon="3.57387">
        <ele>847.06</ele>
        <time>2022-05-01T07:33:33Z</time>
      </trkpt>
      <trkpt lat="45.01887" lon="3.57388">
        <ele>847.06</ele>
        <time>2022-05-01T07:33:34Z</time>
      </trkpt>
      <trkpt lat="45.01891" lon="3.57411">
        <ele>846.58</ele>
        <time>2022-05-01T07:33:49Z</time>
      </trkpt>
      <trkpt lat="45.01905" lon="3.5743">
        <ele>845.62</ele>
        <time>2022-05-01T07:34:03Z</time>
      </trkpt>
      <trkpt lat="45.01921" lon="3.5745">
        <ele>845.14</ele>
        <time>2022-05-01T07:34:20Z</time>
      </trkpt>
      <trkpt lat="45.01929" lon="3.57463">
        <ele>844.66</ele>
        <time>2022-05-01T07:34:30Z</time>
      </trkpt>
      <trkpt lat="45.0194" lon="3.57477">
        <ele>846.1</ele>
        <time>2022-05-01T07:34:42Z</time>
      </trkpt>
      <trkpt lat="45.01943" lon="3.57479">
        <ele>846.1</ele>
        <time>2022-05-01T07:34:47Z</time>
      </trkpt>
      <trkpt lat="45.01946" lon="3.57483">
        <ele>847.06</ele>
        <time>2022-05-01T07:34:51Z</time>
      </trkpt>
      <trkpt lat="45.0195" lon="3.57488">
        <ele>847.06</ele>
        <time>2022-05-01T07:34:56Z</time>
      </trkpt>
      <trkpt lat="45.01955" lon="3.57498">
        <ele>847.06</ele>
        <time>2022-05-01T07:35:02Z</time>
      </trkpt>
      <trkpt lat="45.0196" lon="3.5751">
        <ele>846.58</ele>
        <time>2022-05-01T07:35:10Z</time>
      </trkpt>
      <trkpt lat="45.01959" lon="3.57528">
        <ele>846.1</ele>
        <time>2022-05-01T07:35:21Z</time>
      </trkpt>
      <trkpt lat="45.01946" lon="3.57549">
        <ele>844.66</ele>
        <time>2022-05-01T07:35:35Z</time>
      </trkpt>
      <trkpt lat="45.01944" lon="3.57552">
        <ele>845.14</ele>
        <time>2022-05-01T07:35:37Z</time>
      </trkpt>
      <trkpt lat="45.01941" lon="3.57579">
        <ele>848.02</ele>
        <time>2022-05-01T07:35:53Z</time>
      </trkpt>
      <trkpt lat="45.01947" lon="3.57608">
        <ele>848.5</ele>
        <time>2022-05-01T07:36:11Z</time>
      </trkpt>
      <trkpt lat="45.01952" lon="3.57627">
        <ele>848.5</ele>
        <time>2022-05-01T07:36:22Z</time>
      </trkpt>
      <trkpt lat="45.01954" lon="3.57634">
        <ele>848.98</ele>
        <time>2022-05-01T07:36:28Z</time>
      </trkpt>
      <trkpt lat="45.01956" lon="3.57655">
        <ele>848.98</ele>
        <time>2022-05-01T07:36:43Z</time>
      </trkpt>
      <trkpt lat="45.01956" lon="3.57655">
        <ele>848.98</ele>
        <time>2022-05-01T07:36:44Z</time>
      </trkpt>
      <trkpt lat="45.01953" lon="3.57677">
        <ele>851.87</ele>
        <time>2022-05-01T07:36:57Z</time>
      </trkpt>
      <trkpt lat="45.01952" lon="3.57681">
        <ele>852.35</ele>
        <time>2022-05-01T07:37:00Z</time>
      </trkpt>
      <trkpt lat="45.01951" lon="3.57699">
        <ele>856.67</ele>
        <time>2022-05-01T07:37:13Z</time>
      </trkpt>
      <trkpt lat="45.0195" lon="3.57702">
        <ele>857.15</ele>
        <time>2022-05-01T07:37:15Z</time>
      </trkpt>
      <trkpt lat="45.01949" lon="3.57706">
        <ele>857.63</ele>
        <time>2022-05-01T07:37:20Z</time>
      </trkpt>
      <trkpt lat="45.01948" lon="3.57733">
        <ele>858.59</ele>
        <time>2022-05-01T07:37:36Z</time>
      </trkpt>
      <trkpt lat="45.0195" lon="3.5774">
        <ele>859.08</ele>
        <time>2022-05-01T07:37:41Z</time>
      </trkpt>
      <trkpt lat="45.01942" lon="3.57758">
        <ele>860.52</ele>
        <time>2022-05-01T07:37:52Z</time>
      </trkpt>
      <trkpt lat="45.01934" lon="3.57788">
        <ele>861.96</ele>
        <time>2022-05-01T07:38:09Z</time>
      </trkpt>
      <trkpt lat="45.0193" lon="3.57808">
        <ele>865.32</ele>
        <time>2022-05-01T07:38:23Z</time>
      </trkpt>
      <trkpt lat="45.01929" lon="3.5781">
        <ele>865.32</ele>
        <time>2022-05-01T07:38:25Z</time>
      </trkpt>
      <trkpt lat="45.01923" lon="3.57827">
        <ele>869.65</ele>
        <time>2022-05-01T07:38:40Z</time>
      </trkpt>
      <trkpt lat="45.01917" lon="3.57833">
        <ele>870.13</ele>
        <time>2022-05-01T07:38:47Z</time>
      </trkpt>
      <trkpt lat="45.01914" lon="3.57837">
        <ele>870.13</ele>
        <time>2022-05-01T07:38:50Z</time>
      </trkpt>
      <trkpt lat="45.01914" lon="3.57847">
        <ele>868.21</ele>
        <time>2022-05-01T07:38:56Z</time>
      </trkpt>
      <trkpt lat="45.01913" lon="3.57861">
        <ele>867.73</ele>
        <time>2022-05-01T07:39:10Z</time>
      </trkpt>
      <trkpt lat="45.01914" lon="3.57863">
        <ele>867.25</ele>
        <time>2022-05-01T07:39:12Z</time>
      </trkpt>
      <trkpt lat="45.01913" lon="3.57877">
        <ele>866.29</ele>
        <time>2022-05-01T07:39:21Z</time>
      </trkpt>
      <trkpt lat="45.01902" lon="3.57909">
        <ele>867.25</ele>
        <time>2022-05-01T07:39:37Z</time>
      </trkpt>
      <trkpt lat="45.01898" lon="3.57932">
        <ele>868.69</ele>
        <time>2022-05-01T07:39:50Z</time>
      </trkpt>
      <trkpt lat="45.01903" lon="3.5795">
        <ele>870.13</ele>
        <time>2022-05-01T07:40:02Z</time>
      </trkpt>
      <trkpt lat="45.019" lon="3.57959">
        <ele>873.01</ele>
        <time>2022-05-01T07:40:11Z</time>
      </trkpt>
      <trkpt lat="45.01896" lon="3.57973">
        <ele>879.26</ele>
        <time>2022-05-01T07:40:24Z</time>
      </trkpt>
      <trkpt lat="45.01898" lon="3.57986">
        <ele>885.03</ele>
        <time>2022-05-01T07:40:35Z</time>
      </trkpt>
      <trkpt lat="45.01899" lon="3.58006">
        <ele>886.47</ele>
        <time>2022-05-01T07:40:47Z</time>
      </trkpt>
      <trkpt lat="45.01897" lon="3.58019">
        <ele>884.55</ele>
        <time>2022-05-01T07:40:54Z</time>
      </trkpt>
      <trkpt lat="45.01896" lon="3.58034">
        <ele>882.15</ele>
        <time>2022-05-01T07:40:59Z</time>
      </trkpt>
      <trkpt lat="45.01898" lon="3.58045">
        <ele>880.22</ele>
        <time>2022-05-01T07:41:02Z</time>
      </trkpt>
      <trkpt lat="45.01899" lon="3.58058">
        <ele>878.78</ele>
        <time>2022-05-01T07:41:09Z</time>
      </trkpt>
      <trkpt lat="45.019" lon="3.58061">
        <ele>878.78</ele>
        <time>2022-05-01T07:41:11Z</time>
      </trkpt>
      <trkpt lat="45.01901" lon="3.58067">
        <ele>878.3</ele>
        <time>2022-05-01T07:41:14Z</time>
      </trkpt>
      <trkpt lat="45.01902" lon="3.58077">
        <ele>876.86</ele>
        <time>2022-05-01T07:41:20Z</time>
      </trkpt>
      <trkpt lat="45.01907" lon="3.58097">
        <ele>874.46</ele>
        <time>2022-05-01T07:41:31Z</time>
      </trkpt>
      <trkpt lat="45.01904" lon="3.58106">
        <ele>870.61</ele>
        <time>2022-05-01T07:41:43Z</time>
      </trkpt>
      <trkpt lat="45.01902" lon="3.58112">
        <ele>868.21</ele>
        <time>2022-05-01T07:41:53Z</time>
      </trkpt>
      <trkpt lat="45.01902" lon="3.58118">
        <ele>869.65</ele>
        <time>2022-05-01T07:42:04Z</time>
      </trkpt>
      <trkpt lat="45.01902" lon="3.5813">
        <ele>866.77</ele>
        <time>2022-05-01T07:42:14Z</time>
      </trkpt>
      <trkpt lat="45.01898" lon="3.58147">
        <ele>860.52</ele>
        <time>2022-05-01T07:42:24Z</time>
      </trkpt>
      <trkpt lat="45.0189" lon="3.58163">
        <ele>853.79</ele>
        <time>2022-05-01T07:42:34Z</time>
      </trkpt>
      <trkpt lat="45.01888" lon="3.58188">
        <ele>850.42</ele>
        <time>2022-05-01T07:42:47Z</time>
      </trkpt>
      <trkpt lat="45.01886" lon="3.58191">
        <ele>850.42</ele>
        <time>2022-05-01T07:42:48Z</time>
      </trkpt>
      <trkpt lat="45.01884" lon="3.58204">
        <ele>847.54</ele>
        <time>2022-05-01T07:42:53Z</time>
      </trkpt>
      <trkpt lat="45.01879" lon="3.58231">
        <ele>848.5</ele>
        <time>2022-05-01T07:43:07Z</time>
      </trkpt>
      <trkpt lat="45.01879" lon="3.58249">
        <ele>847.06</ele>
        <time>2022-05-01T07:43:16Z</time>
      </trkpt>
      <trkpt lat="45.01879" lon="3.58255">
        <ele>846.58</ele>
        <time>2022-05-01T07:43:19Z</time>
      </trkpt>
      <trkpt lat="45.01882" lon="3.58279">
        <ele>841.29</ele>
        <time>2022-05-01T07:43:33Z</time>
      </trkpt>
      <trkpt lat="45.01882" lon="3.58288">
        <ele>840.81</ele>
        <time>2022-05-01T07:43:38Z</time>
      </trkpt>
      <trkpt lat="45.01885" lon="3.58304">
        <ele>839.37</ele>
        <time>2022-05-01T07:43:46Z</time>
      </trkpt>
      <trkpt lat="45.01884" lon="3.58315">
        <ele>837.45</ele>
        <time>2022-05-01T07:43:53Z</time>
      </trkpt>
      <trkpt lat="45.01881" lon="3.58328">
        <ele>836.48</ele>
        <time>2022-05-01T07:44:01Z</time>
      </trkpt>
      <trkpt lat="45.01883" lon="3.58349">
        <ele>837.93</ele>
        <time>2022-05-01T07:44:14Z</time>
      </trkpt>
      <trkpt lat="45.01883" lon="3.5835">
        <ele>838.41</ele>
        <time>2022-05-01T07:44:15Z</time>
      </trkpt>
      <trkpt lat="45.01883" lon="3.5836">
        <ele>838.89</ele>
        <time>2022-05-01T07:44:20Z</time>
      </trkpt>
      <trkpt lat="45.01884" lon="3.58364">
        <ele>839.85</ele>
        <time>2022-05-01T07:44:22Z</time>
      </trkpt>
      <trkpt lat="45.01883" lon="3.58388">
        <ele>837.93</ele>
        <time>2022-05-01T07:44:34Z</time>
      </trkpt>
      <trkpt lat="45.01881" lon="3.58408">
        <ele>838.89</ele>
        <time>2022-05-01T07:44:46Z</time>
      </trkpt>
      <trkpt lat="45.01875" lon="3.58427">
        <ele>837.45</ele>
        <time>2022-05-01T07:44:56Z</time>
      </trkpt>
      <trkpt lat="45.01876" lon="3.58434">
        <ele>836.48</ele>
        <time>2022-05-01T07:44:59Z</time>
      </trkpt>
      <trkpt lat="45.01878" lon="3.58452">
        <ele>834.56</ele>
        <time>2022-05-01T07:45:11Z</time>
      </trkpt>
      <trkpt lat="45.01889" lon="3.58467">
        <ele>832.64</ele>
        <time>2022-05-01T07:45:24Z</time>
      </trkpt>
      <trkpt lat="45.01896" lon="3.58486">
        <ele>826.39</ele>
        <time>2022-05-01T07:45:34Z</time>
      </trkpt>
      <trkpt lat="45.01896" lon="3.58491">
        <ele>825.91</ele>
        <time>2022-05-01T07:45:36Z</time>
      </trkpt>
      <trkpt lat="45.01903" lon="3.5851">
        <ele>823.03</ele>
        <time>2022-05-01T07:45:48Z</time>
      </trkpt>
      <trkpt lat="45.01902" lon="3.58519">
        <ele>822.55</ele>
        <time>2022-05-01T07:45:53Z</time>
      </trkpt>
      <trkpt lat="45.01894" lon="3.58543">
        <ele>816.3</ele>
        <time>2022-05-01T07:46:08Z</time>
      </trkpt>
      <trkpt lat="45.01893" lon="3.58552">
        <ele>815.34</ele>
        <time>2022-05-01T07:46:13Z</time>
      </trkpt>
      <trkpt lat="45.0188" lon="3.58578">
        <ele>810.53</ele>
        <time>2022-05-01T07:46:30Z</time>
      </trkpt>
      <trkpt lat="45.01868" lon="3.58598">
        <ele>805.72</ele>
        <time>2022-05-01T07:46:46Z</time>
      </trkpt>
      <trkpt lat="45.01861" lon="3.58611">
        <ele>803.32</ele>
        <time>2022-05-01T07:46:56Z</time>
      </trkpt>
      <trkpt lat="45.01855" lon="3.58632">
        <ele>802.36</ele>
        <time>2022-05-01T07:47:10Z</time>
      </trkpt>
      <trkpt lat="45.01853" lon="3.58637">
        <ele>802.36</ele>
        <time>2022-05-01T07:47:17Z</time>
      </trkpt>
      <trkpt lat="45.01847" lon="3.58656">
        <ele>802.36</ele>
        <time>2022-05-01T07:47:32Z</time>
      </trkpt>
      <trkpt lat="45.01848" lon="3.58667">
        <ele>803.8</ele>
        <time>2022-05-01T07:47:40Z</time>
      </trkpt>
      <trkpt lat="45.01856" lon="3.58686">
        <ele>809.57</ele>
        <time>2022-05-01T07:47:52Z</time>
      </trkpt>
      <trkpt lat="45.01863" lon="3.58707">
        <ele>808.13</ele>
        <time>2022-05-01T07:48:06Z</time>
      </trkpt>
      <trkpt lat="45.01865" lon="3.58728">
        <ele>809.09</ele>
        <time>2022-05-01T07:48:19Z</time>
      </trkpt>
      <trkpt lat="45.01864" lon="3.58741">
        <ele>810.05</ele>
        <time>2022-05-01T07:48:30Z</time>
      </trkpt>
      <trkpt lat="45.01861" lon="3.58753">
        <ele>807.64</ele>
        <time>2022-05-01T07:48:40Z</time>
      </trkpt>
      <trkpt lat="45.01862" lon="3.58768">
        <ele>807.64</ele>
        <time>2022-05-01T07:48:50Z</time>
      </trkpt>
      <trkpt lat="45.01863" lon="3.58785">
        <ele>807.16</ele>
        <time>2022-05-01T07:49:01Z</time>
      </trkpt>
      <trkpt lat="45.01863" lon="3.58799">
        <ele>804.28</ele>
        <time>2022-05-01T07:49:11Z</time>
      </trkpt>
      <trkpt lat="45.01864" lon="3.58818">
        <ele>801.4</ele>
        <time>2022-05-01T07:49:24Z</time>
      </trkpt>
      <trkpt lat="45.01865" lon="3.58829">
        <ele>798.99</ele>
        <time>2022-05-01T07:49:33Z</time>
      </trkpt>
      <trkpt lat="45.01866" lon="3.58849">
        <ele>796.11</ele>
        <time>2022-05-01T07:49:45Z</time>
      </trkpt>
      <trkpt lat="45.01868" lon="3.58867">
        <ele>794.67</ele>
        <time>2022-05-01T07:49:59Z</time>
      </trkpt>
      <trkpt lat="45.01857" lon="3.58902">
        <ele>790.82</ele>
        <time>2022-05-01T07:50:15Z</time>
      </trkpt>
      <trkpt lat="45.01856" lon="3.58913">
        <ele>789.38</ele>
        <time>2022-05-01T07:50:21Z</time>
      </trkpt>
      <trkpt lat="45.01854" lon="3.58923">
        <ele>787.94</ele>
        <time>2022-05-01T07:50:27Z</time>
      </trkpt>
      <trkpt lat="45.01856" lon="3.58927">
        <ele>786.5</ele>
        <time>2022-05-01T07:50:30Z</time>
      </trkpt>
      <trkpt lat="45.0186" lon="3.58931">
        <ele>784.57</ele>
        <time>2022-05-01T07:50:34Z</time>
      </trkpt>
      <trkpt lat="45.01869" lon="3.58945">
        <ele>779.29</ele>
        <time>2022-05-01T07:50:47Z</time>
      </trkpt>
      <trkpt lat="45.01871" lon="3.58947">
        <ele>777.84</ele>
        <time>2022-05-01T07:50:50Z</time>
      </trkpt>
      <trkpt lat="45.01878" lon="3.58959">
        <ele>770.15</ele>
        <time>2022-05-01T07:51:04Z</time>
      </trkpt>
      <trkpt lat="45.01882" lon="3.58963">
        <ele>764.87</ele>
        <time>2022-05-01T07:51:16Z</time>
      </trkpt>
      <trkpt lat="45.01894" lon="3.58974">
        <ele>758.62</ele>
        <time>2022-05-01T07:51:29Z</time>
      </trkpt>
      <trkpt lat="45.01899" lon="3.5898">
        <ele>754.77</ele>
        <time>2022-05-01T07:51:39Z</time>
      </trkpt>
      <trkpt lat="45.01904" lon="3.58982">
        <ele>751.89</ele>
        <time>2022-05-01T07:51:44Z</time>
      </trkpt>
      <trkpt lat="45.0192" lon="3.58986">
        <ele>746.6</ele>
        <time>2022-05-01T07:51:58Z</time>
      </trkpt>
      <trkpt lat="45.01923" lon="3.58987">
        <ele>745.64</ele>
        <time>2022-05-01T07:52:00Z</time>
      </trkpt>
      <trkpt lat="45.01931" lon="3.58989">
        <ele>743.24</ele>
        <time>2022-05-01T07:52:07Z</time>
      </trkpt>
      <trkpt lat="45.01934" lon="3.5899">
        <ele>741.79</ele>
        <time>2022-05-01T07:52:10Z</time>
      </trkpt>
      <trkpt lat="45.0194" lon="3.58992">
        <ele>740.35</ele>
        <time>2022-05-01T07:52:15Z</time>
      </trkpt>
      <trkpt lat="45.01947" lon="3.5899">
        <ele>738.43</ele>
        <time>2022-05-01T07:52:22Z</time>
      </trkpt>
      <trkpt lat="45.0195" lon="3.5899">
        <ele>737.47</ele>
        <time>2022-05-01T07:52:25Z</time>
      </trkpt>
      <trkpt lat="45.01956" lon="3.58989">
        <ele>735.55</ele>
        <time>2022-05-01T07:52:32Z</time>
      </trkpt>
      <trkpt lat="45.01966" lon="3.58985">
        <ele>731.7</ele>
        <time>2022-05-01T07:52:45Z</time>
      </trkpt>
      <trkpt lat="45.01976" lon="3.58982">
        <ele>731.22</ele>
        <time>2022-05-01T07:52:59Z</time>
      </trkpt>
      <trkpt lat="45.01981" lon="3.58981">
        <ele>730.74</ele>
        <time>2022-05-01T07:53:04Z</time>
      </trkpt>
      <trkpt lat="45.01988" lon="3.58979">
        <ele>729.78</ele>
        <time>2022-05-01T07:53:10Z</time>
      </trkpt>
      <trkpt lat="45.02" lon="3.58979">
        <ele>731.22</ele>
        <time>2022-05-01T07:53:20Z</time>
      </trkpt>
      <trkpt lat="45.02017" lon="3.58975">
        <ele>730.74</ele>
        <time>2022-05-01T07:53:35Z</time>
      </trkpt>
      <trkpt lat="45.02019" lon="3.58975">
        <ele>730.26</ele>
        <time>2022-05-01T07:53:36Z</time>
      </trkpt>
      <trkpt lat="45.02023" lon="3.58974">
        <ele>728.34</ele>
        <time>2022-05-01T07:53:40Z</time>
      </trkpt>
      <trkpt lat="45.02037" lon="3.58975">
        <ele>724.01</ele>
        <time>2022-05-01T07:53:54Z</time>
      </trkpt>
      <trkpt lat="45.0205" lon="3.58976">
        <ele>723.05</ele>
        <time>2022-05-01T07:54:06Z</time>
      </trkpt>
      <trkpt lat="45.02059" lon="3.58977">
        <ele>723.05</ele>
        <time>2022-05-01T07:54:15Z</time>
      </trkpt>
      <trkpt lat="45.02075" lon="3.58977">
        <ele>721.13</ele>
        <time>2022-05-01T07:54:29Z</time>
      </trkpt>
      <trkpt lat="45.02082" lon="3.58977">
        <ele>720.65</ele>
        <time>2022-05-01T07:54:35Z</time>
      </trkpt>
      <trkpt lat="45.02097" lon="3.58981">
        <ele>715.36</ele>
        <time>2022-05-01T07:54:48Z</time>
      </trkpt>
      <trkpt lat="45.02114" lon="3.58984">
        <ele>711.03</ele>
        <time>2022-05-01T07:55:03Z</time>
      </trkpt>
      <trkpt lat="45.02125" lon="3.58978">
        <ele>709.11</ele>
        <time>2022-05-01T07:55:16Z</time>
      </trkpt>
      <trkpt lat="45.02139" lon="3.58975">
        <ele>711.03</ele>
        <time>2022-05-01T07:55:31Z</time>
      </trkpt>
      <trkpt lat="45.02147" lon="3.58975">
        <ele>709.59</ele>
        <time>2022-05-01T07:55:44Z</time>
      </trkpt>
      <trkpt lat="45.02153" lon="3.58975">
        <ele>709.59</ele>
        <time>2022-05-01T07:55:51Z</time>
      </trkpt>
      <trkpt lat="45.02165" lon="3.58969">
        <ele>709.59</ele>
        <time>2022-05-01T07:56:04Z</time>
      </trkpt>
      <trkpt lat="45.02168" lon="3.58966">
        <ele>709.59</ele>
        <time>2022-05-01T07:56:09Z</time>
      </trkpt>
      <trkpt lat="45.02174" lon="3.58961">
        <ele>710.07</ele>
        <time>2022-05-01T07:56:14Z</time>
      </trkpt>
      <trkpt lat="45.0218" lon="3.58954">
        <ele>709.11</ele>
        <time>2022-05-01T07:56:19Z</time>
      </trkpt>
      <trkpt lat="45.02191" lon="3.5895">
        <ele>707.19</ele>
        <time>2022-05-01T07:56:31Z</time>
      </trkpt>
      <trkpt lat="45.022" lon="3.58949">
        <ele>708.15</ele>
        <time>2022-05-01T07:56:43Z</time>
      </trkpt>
      <trkpt lat="45.02218" lon="3.58946">
        <ele>707.67</ele>
        <time>2022-05-01T07:56:58Z</time>
      </trkpt>
      <trkpt lat="45.0223" lon="3.58941">
        <ele>706.71</ele>
        <time>2022-05-01T07:57:11Z</time>
      </trkpt>
      <trkpt lat="45.02246" lon="3.58933">
        <ele>705.75</ele>
        <time>2022-05-01T07:57:25Z</time>
      </trkpt>
      <trkpt lat="45.02247" lon="3.58932">
        <ele>705.75</ele>
        <time>2022-05-01T07:57:26Z</time>
      </trkpt>
      <trkpt lat="45.0225" lon="3.58911">
        <ele>703.34</ele>
        <time>2022-05-01T07:57:38Z</time>
      </trkpt>
      <trkpt lat="45.02251" lon="3.58908">
        <ele>702.86</ele>
        <time>2022-05-01T07:57:40Z</time>
      </trkpt>
      <trkpt lat="45.0225" lon="3.58895">
        <ele>701.9</ele>
        <time>2022-05-01T07:57:45Z</time>
      </trkpt>
      <trkpt lat="45.02244" lon="3.58865">
        <ele>698.05</ele>
        <time>2022-05-01T07:58:00Z</time>
      </trkpt>
      <trkpt lat="45.02245" lon="3.58852">
        <ele>696.13</ele>
        <time>2022-05-01T07:58:09Z</time>
      </trkpt>
      <trkpt lat="45.02258" lon="3.58851">
        <ele>690.36</ele>
        <time>2022-05-01T07:58:22Z</time>
      </trkpt>
      <trkpt lat="45.02277" lon="3.58853">
        <ele>686.52</ele>
        <time>2022-05-01T07:58:34Z</time>
      </trkpt>
      <trkpt lat="45.02279" lon="3.58853">
        <ele>686.52</ele>
        <time>2022-05-01T07:58:35Z</time>
      </trkpt>
      <trkpt lat="45.0229" lon="3.58859">
        <ele>682.67</ele>
        <time>2022-05-01T07:58:46Z</time>
      </trkpt>
      <trkpt lat="45.02292" lon="3.58859">
        <ele>681.23</ele>
        <time>2022-05-01T07:58:59Z</time>
      </trkpt>
      <trkpt lat="45.02297" lon="3.58865">
        <ele>674.98</ele>
        <time>2022-05-01T07:59:11Z</time>
      </trkpt>
      <trkpt lat="45.02296" lon="3.58869">
        <ele>669.7</ele>
        <time>2022-05-01T07:59:24Z</time>
      </trkpt>
      <trkpt lat="45.02296" lon="3.5887">
        <ele>667.77</ele>
        <time>2022-05-01T07:59:36Z</time>
      </trkpt>
      <trkpt lat="45.02295" lon="3.58871">
        <ele>666.33</ele>
        <time>2022-05-01T07:59:57Z</time>
      </trkpt>
      <trkpt lat="45.02294" lon="3.5887">
        <ele>664.89</ele>
        <time>2022-05-01T08:00:20Z</time>
      </trkpt>
      <trkpt lat="45.02294" lon="3.5887">
        <ele>663.93</ele>
        <time>2022-05-01T08:00:46Z</time>
      </trkpt>
      <trkpt lat="45.02293" lon="3.5887">
        <ele>662.97</ele>
        <time>2022-05-01T08:01:00Z</time>
      </trkpt>
      <trkpt lat="45.02292" lon="3.58872">
        <ele>662.49</ele>
        <time>2022-05-01T08:01:24Z</time>
      </trkpt>
      <trkpt lat="45.02292" lon="3.58872">
        <ele>662.01</ele>
        <time>2022-05-01T08:01:41Z</time>
      </trkpt>
      <trkpt lat="45.02292" lon="3.58873">
        <ele>662.01</ele>
        <time>2022-05-01T08:01:56Z</time>
      </trkpt>
      <trkpt lat="45.02293" lon="3.58873">
        <ele>662.01</ele>
        <time>2022-05-01T08:02:14Z</time>
      </trkpt>
      <trkpt lat="45.02293" lon="3.58872">
        <ele>662.01</ele>
        <time>2022-05-01T08:02:31Z</time>
      </trkpt>
      <trkpt lat="45.02298" lon="3.58873">
        <ele>662.01</ele>
        <time>2022-05-01T08:02:41Z</time>
      </trkpt>
      <trkpt lat="45.02309" lon="3.58877">
        <ele>661.52</ele>
        <time>2022-05-01T08:02:51Z</time>
      </trkpt>
      <trkpt lat="45.02316" lon="3.58888">
        <ele>659.6</ele>
        <time>2022-05-01T08:03:04Z</time>
      </trkpt>
      <trkpt lat="45.02322" lon="3.58903">
        <ele>658.16</ele>
        <time>2022-05-01T08:03:16Z</time>
      </trkpt>
      <trkpt lat="45.02322" lon="3.58909">
        <ele>657.2</ele>
        <time>2022-05-01T08:03:19Z</time>
      </trkpt>
      <trkpt lat="45.02321" lon="3.58929">
        <ele>652.87</ele>
        <time>2022-05-01T08:03:34Z</time>
      </trkpt>
      <trkpt lat="45.02322" lon="3.5894">
        <ele>650.47</ele>
        <time>2022-05-01T08:03:41Z</time>
      </trkpt>
      <trkpt lat="45.0232" lon="3.5895">
        <ele>648.55</ele>
        <time>2022-05-01T08:03:49Z</time>
      </trkpt>
      <trkpt lat="45.02318" lon="3.58969">
        <ele>643.74</ele>
        <time>2022-05-01T08:04:02Z</time>
      </trkpt>
      <trkpt lat="45.02313" lon="3.58985">
        <ele>640.86</ele>
        <time>2022-05-01T08:04:16Z</time>
      </trkpt>
      <trkpt lat="45.02312" lon="3.58994">
        <ele>637.49</ele>
        <time>2022-05-01T08:04:24Z</time>
      </trkpt>
      <trkpt lat="45.02309" lon="3.59003">
        <ele>637.97</ele>
        <time>2022-05-01T08:04:32Z</time>
      </trkpt>
      <trkpt lat="45.0231" lon="3.59016">
        <ele>639.89</ele>
        <time>2022-05-01T08:04:45Z</time>
      </trkpt>
      <trkpt lat="45.02311" lon="3.59025">
        <ele>639.41</ele>
        <time>2022-05-01T08:04:54Z</time>
      </trkpt>
      <trkpt lat="45.02315" lon="3.59034">
        <ele>641.34</ele>
        <time>2022-05-01T08:05:01Z</time>
      </trkpt>
      <trkpt lat="45.02324" lon="3.59043">
        <ele>644.22</ele>
        <time>2022-05-01T08:05:08Z</time>
      </trkpt>
      <trkpt lat="45.0233" lon="3.59058">
        <ele>641.82</ele>
        <time>2022-05-01T08:05:23Z</time>
      </trkpt>
      <trkpt lat="45.02341" lon="3.59069">
        <ele>639.89</ele>
        <time>2022-05-01T08:05:38Z</time>
      </trkpt>
      <trkpt lat="45.02351" lon="3.59076">
        <ele>638.45</ele>
        <time>2022-05-01T08:05:51Z</time>
      </trkpt>
      <trkpt lat="45.02366" lon="3.59077">
        <ele>637.01</ele>
        <time>2022-05-01T08:06:06Z</time>
      </trkpt>
      <trkpt lat="45.02379" lon="3.5908">
        <ele>633.17</ele>
        <time>2022-05-01T08:06:17Z</time>
      </trkpt>
      <trkpt lat="45.02385" lon="3.5908">
        <ele>628.84</ele>
        <time>2022-05-01T08:06:28Z</time>
      </trkpt>
      <trkpt lat="45.02394" lon="3.59086">
        <ele>625.96</ele>
        <time>2022-05-01T08:06:38Z</time>
      </trkpt>
      <trkpt lat="45.02402" lon="3.59095">
        <ele>623.55</ele>
        <time>2022-05-01T08:06:51Z</time>
      </trkpt>
      <trkpt lat="45.02408" lon="3.59106">
        <ele>622.11</ele>
        <time>2022-05-01T08:07:02Z</time>
      </trkpt>
      <trkpt lat="45.02419" lon="3.59116">
        <ele>620.19</ele>
        <time>2022-05-01T08:07:10Z</time>
      </trkpt>
      <trkpt lat="45.02422" lon="3.59121">
        <ele>619.23</ele>
        <time>2022-05-01T08:07:14Z</time>
      </trkpt>
      <trkpt lat="45.02426" lon="3.59124">
        <ele>618.75</ele>
        <time>2022-05-01T08:07:17Z</time>
      </trkpt>
      <trkpt lat="45.02433" lon="3.59137">
        <ele>615.38</ele>
        <time>2022-05-01T08:07:31Z</time>
      </trkpt>
      <trkpt lat="45.02444" lon="3.59139">
        <ele>613.46</ele>
        <time>2022-05-01T08:07:45Z</time>
      </trkpt>
      <trkpt lat="45.02456" lon="3.59135">
        <ele>612.5</ele>
        <time>2022-05-01T08:07:59Z</time>
      </trkpt>
      <trkpt lat="45.02455" lon="3.59117">
        <ele>611.54</ele>
        <time>2022-05-01T08:08:09Z</time>
      </trkpt>
      <trkpt lat="45.02455" lon="3.59105">
        <ele>610.57</ele>
        <time>2022-05-01T08:08:15Z</time>
      </trkpt>
      <trkpt lat="45.02455" lon="3.59098">
        <ele>609.61</ele>
        <time>2022-05-01T08:08:19Z</time>
      </trkpt>
      <trkpt lat="45.02455" lon="3.59069">
        <ele>606.73</ele>
        <time>2022-05-01T08:08:35Z</time>
      </trkpt>
      <trkpt lat="45.02449" lon="3.59046">
        <ele>604.81</ele>
        <time>2022-05-01T08:08:50Z</time>
      </trkpt>
      <trkpt lat="45.02442" lon="3.59028">
        <ele>604.33</ele>
        <time>2022-05-01T08:09:02Z</time>
      </trkpt>
      <trkpt lat="45.0243" lon="3.59017">
        <ele>605.29</ele>
        <time>2022-05-01T08:09:16Z</time>
      </trkpt>
      <trkpt lat="45.02424" lon="3.58994">
        <ele>603.85</ele>
        <time>2022-05-01T08:09:29Z</time>
      </trkpt>
      <trkpt lat="45.02418" lon="3.5897">
        <ele>603.36</ele>
        <time>2022-05-01T08:09:43Z</time>
      </trkpt>
      <trkpt lat="45.02414" lon="3.58953">
        <ele>603.85</ele>
        <time>2022-05-01T08:09:53Z</time>
      </trkpt>
      <trkpt lat="45.02411" lon="3.58947">
        <ele>605.29</ele>
        <time>2022-05-01T08:10:00Z</time>
      </trkpt>
      <trkpt lat="45.02409" lon="3.58934">
        <ele>607.69</ele>
        <time>2022-05-01T08:10:14Z</time>
      </trkpt>
      <trkpt lat="45.02408" lon="3.58928">
        <ele>607.69</ele>
        <time>2022-05-01T08:10:19Z</time>
      </trkpt>
      <trkpt lat="45.02406" lon="3.58905">
        <ele>611.06</ele>
        <time>2022-05-01T08:10:34Z</time>
      </trkpt>
      <trkpt lat="45.02405" lon="3.58881">
        <ele>616.82</ele>
        <time>2022-05-01T08:10:48Z</time>
      </trkpt>
      <trkpt lat="45.02398" lon="3.58859">
        <ele>621.63</ele>
        <time>2022-05-01T08:11:04Z</time>
      </trkpt>
      <trkpt lat="45.02397" lon="3.58858">
        <ele>621.63</ele>
        <time>2022-05-01T08:11:05Z</time>
      </trkpt>
      <trkpt lat="45.0239" lon="3.58847">
        <ele>622.11</ele>
        <time>2022-05-01T08:11:15Z</time>
      </trkpt>
      <trkpt lat="45.02388" lon="3.58846">
        <ele>622.11</ele>
        <time>2022-05-01T08:11:18Z</time>
      </trkpt>
      <trkpt lat="45.02375" lon="3.5883">
        <ele>624.51</ele>
        <time>2022-05-01T08:11:35Z</time>
      </trkpt>
      <trkpt lat="45.0237" lon="3.58823">
        <ele>624.03</ele>
        <time>2022-05-01T08:11:47Z</time>
      </trkpt>
      <trkpt lat="45.02359" lon="3.58806">
        <ele>624.03</ele>
        <time>2022-05-01T08:12:01Z</time>
      </trkpt>
      <trkpt lat="45.02346" lon="3.58788">
        <ele>625.47</ele>
        <time>2022-05-01T08:12:16Z</time>
      </trkpt>
      <trkpt lat="45.02338" lon="3.58779">
        <ele>626.44</ele>
        <time>2022-05-01T08:12:30Z</time>
      </trkpt>
      <trkpt lat="45.02336" lon="3.58777">
        <ele>625.96</ele>
        <time>2022-05-01T08:12:50Z</time>
      </trkpt>
      <trkpt lat="45.02325" lon="3.58774">
        <ele>626.92</ele>
        <time>2022-05-01T08:13:02Z</time>
      </trkpt>
      <trkpt lat="45.02322" lon="3.58775">
        <ele>628.84</ele>
        <time>2022-05-01T08:13:16Z</time>
      </trkpt>
      <trkpt lat="45.02322" lon="3.58774">
        <ele>628.36</ele>
        <time>2022-05-01T08:13:32Z</time>
      </trkpt>
      <trkpt lat="45.02322" lon="3.58774">
        <ele>628.84</ele>
        <time>2022-05-01T08:13:52Z</time>
      </trkpt>
      <trkpt lat="45.0232" lon="3.58774">
        <ele>629.8</ele>
        <time>2022-05-01T08:14:06Z</time>
      </trkpt>
      <trkpt lat="45.02319" lon="3.58774">
        <ele>629.8</ele>
        <time>2022-05-01T08:14:30Z</time>
      </trkpt>
      <trkpt lat="45.02319" lon="3.58773">
        <ele>629.8</ele>
        <time>2022-05-01T08:14:48Z</time>
      </trkpt>
      <trkpt lat="45.02318" lon="3.58772">
        <ele>630.28</ele>
        <time>2022-05-01T08:15:07Z</time>
      </trkpt>
      <trkpt lat="45.02317" lon="3.58772">
        <ele>629.32</ele>
        <time>2022-05-01T08:15:25Z</time>
      </trkpt>
      <trkpt lat="45.02317" lon="3.58771">
        <ele>628.84</ele>
        <time>2022-05-01T08:15:42Z</time>
      </trkpt>
      <trkpt lat="45.02317" lon="3.58771">
        <ele>628.84</ele>
        <time>2022-05-01T08:15:59Z</time>
      </trkpt>
      <trkpt lat="45.02316" lon="3.58771">
        <ele>628.36</ele>
        <time>2022-05-01T08:16:18Z</time>
      </trkpt>
      <trkpt lat="45.02314" lon="3.58772">
        <ele>627.4</ele>
        <time>2022-05-01T08:16:32Z</time>
      </trkpt>
      <trkpt lat="45.02314" lon="3.58772">
        <ele>627.4</ele>
        <time>2022-05-01T08:16:45Z</time>
      </trkpt>
      <trkpt lat="45.02313" lon="3.58772">
        <ele>627.88</ele>
        <time>2022-05-01T08:17:03Z</time>
      </trkpt>
      <trkpt lat="45.02313" lon="3.58772">
        <ele>627.88</ele>
        <time>2022-05-01T08:17:27Z</time>
      </trkpt>
      <trkpt lat="45.02313" lon="3.58772">
        <ele>628.84</ele>
        <time>2022-05-01T08:17:50Z</time>
      </trkpt>
      <trkpt lat="45.02313" lon="3.58772">
        <ele>628.84</ele>
        <time>2022-05-01T08:18:02Z</time>
      </trkpt>
      <trkpt lat="45.02311" lon="3.58772">
        <ele>628.36</ele>
        <time>2022-05-01T08:18:07Z</time>
      </trkpt>
      <trkpt lat="45.02296" lon="3.58762">
        <ele>631.24</ele>
        <time>2022-05-01T08:18:23Z</time>
      </trkpt>
      <trkpt lat="45.02283" lon="3.58748">
        <ele>636.05</ele>
        <time>2022-05-01T08:18:36Z</time>
      </trkpt>
      <trkpt lat="45.02276" lon="3.58741">
        <ele>640.38</ele>
        <time>2022-05-01T08:18:43Z</time>
      </trkpt>
      <trkpt lat="45.02256" lon="3.58732">
        <ele>642.78</ele>
        <time>2022-05-01T08:18:59Z</time>
      </trkpt>
      <trkpt lat="45.02243" lon="3.58728">
        <ele>645.18</ele>
        <time>2022-05-01T08:19:13Z</time>
      </trkpt>
      <trkpt lat="45.02226" lon="3.58726">
        <ele>648.07</ele>
        <time>2022-05-01T08:19:27Z</time>
      </trkpt>
      <trkpt lat="45.02213" lon="3.58724">
        <ele>648.07</ele>
        <time>2022-05-01T08:19:40Z</time>
      </trkpt>
      <trkpt lat="45.02201" lon="3.58722">
        <ele>648.55</ele>
        <time>2022-05-01T08:19:51Z</time>
      </trkpt>
      <trkpt lat="45.02195" lon="3.58713">
        <ele>654.8</ele>
        <time>2022-05-01T08:20:05Z</time>
      </trkpt>
      <trkpt lat="45.02199" lon="3.58704">
        <ele>660.08</ele>
        <time>2022-05-01T08:20:16Z</time>
      </trkpt>
      <trkpt lat="45.022" lon="3.58702">
        <ele>660.56</ele>
        <time>2022-05-01T08:20:17Z</time>
      </trkpt>
      <trkpt lat="45.02208" lon="3.58689">
        <ele>660.08</ele>
        <time>2022-05-01T08:20:29Z</time>
      </trkpt>
      <trkpt lat="45.02204" lon="3.58652">
        <ele>658.16</ele>
        <time>2022-05-01T08:20:48Z</time>
      </trkpt>
      <trkpt lat="45.02197" lon="3.58632">
        <ele>660.56</ele>
        <time>2022-05-01T08:21:04Z</time>
      </trkpt>
      <trkpt lat="45.02187" lon="3.58611">
        <ele>666.81</ele>
        <time>2022-05-01T08:21:18Z</time>
      </trkpt>
      <trkpt lat="45.02179" lon="3.58591">
        <ele>670.66</ele>
        <time>2022-05-01T08:21:33Z</time>
      </trkpt>
      <trkpt lat="45.02175" lon="3.58567">
        <ele>667.77</ele>
        <time>2022-05-01T08:21:47Z</time>
      </trkpt>
      <trkpt lat="45.0217" lon="3.58546">
        <ele>664.89</ele>
        <time>2022-05-01T08:22:00Z</time>
      </trkpt>
      <trkpt lat="45.02156" lon="3.58521">
        <ele>662.01</ele>
        <time>2022-05-01T08:22:18Z</time>
      </trkpt>
      <trkpt lat="45.02149" lon="3.58503">
        <ele>662.97</ele>
        <time>2022-05-01T08:22:30Z</time>
      </trkpt>
      <trkpt lat="45.02146" lon="3.58482">
        <ele>664.41</ele>
        <time>2022-05-01T08:22:44Z</time>
      </trkpt>
      <trkpt lat="45.02144" lon="3.58458">
        <ele>665.37</ele>
        <time>2022-05-01T08:22:59Z</time>
      </trkpt>
      <trkpt lat="45.02146" lon="3.58435">
        <ele>667.29</ele>
        <time>2022-05-01T08:23:14Z</time>
      </trkpt>
      <trkpt lat="45.02151" lon="3.58413">
        <ele>667.77</ele>
        <time>2022-05-01T08:23:29Z</time>
      </trkpt>
      <trkpt lat="45.02152" lon="3.58407">
        <ele>668.25</ele>
        <time>2022-05-01T08:23:33Z</time>
      </trkpt>
      <trkpt lat="45.02159" lon="3.58398">
        <ele>669.7</ele>
        <time>2022-05-01T08:23:49Z</time>
      </trkpt>
      <trkpt lat="45.02159" lon="3.58397">
        <ele>668.73</ele>
        <time>2022-05-01T08:24:01Z</time>
      </trkpt>
      <trkpt lat="45.0216" lon="3.58396">
        <ele>668.73</ele>
        <time>2022-05-01T08:24:16Z</time>
      </trkpt>
      <trkpt lat="45.0216" lon="3.58395">
        <ele>668.73</ele>
        <time>2022-05-01T08:24:31Z</time>
      </trkpt>
      <trkpt lat="45.02158" lon="3.58397">
        <ele>667.77</ele>
        <time>2022-05-01T08:24:47Z</time>
      </trkpt>
      <trkpt lat="45.02157" lon="3.58397">
        <ele>666.81</ele>
        <time>2022-05-01T08:25:05Z</time>
      </trkpt>
      <trkpt lat="45.02157" lon="3.58396">
        <ele>666.33</ele>
        <time>2022-05-01T08:25:28Z</time>
      </trkpt>
      <trkpt lat="45.02157" lon="3.58396">
        <ele>666.81</ele>
        <time>2022-05-01T08:25:51Z</time>
      </trkpt>
      <trkpt lat="45.0216" lon="3.58396">
        <ele>666.81</ele>
        <time>2022-05-01T08:26:01Z</time>
      </trkpt>
      <trkpt lat="45.02161" lon="3.58397">
        <ele>666.33</ele>
        <time>2022-05-01T08:26:26Z</time>
      </trkpt>
      <trkpt lat="45.02163" lon="3.58392">
        <ele>666.81</ele>
        <time>2022-05-01T08:26:38Z</time>
      </trkpt>
      <trkpt lat="45.02163" lon="3.58389">
        <ele>668.25</ele>
        <time>2022-05-01T08:26:42Z</time>
      </trkpt>
      <trkpt lat="45.02163" lon="3.58383">
        <ele>668.73</ele>
        <time>2022-05-01T08:26:46Z</time>
      </trkpt>
      <trkpt lat="45.02165" lon="3.58365">
        <ele>672.58</ele>
        <time>2022-05-01T08:27:02Z</time>
      </trkpt>
      <trkpt lat="45.02163" lon="3.5835">
        <ele>674.98</ele>
        <time>2022-05-01T08:27:16Z</time>
      </trkpt>
      <trkpt lat="45.02161" lon="3.58334">
        <ele>677.87</ele>
        <time>2022-05-01T08:27:30Z</time>
      </trkpt>
      <trkpt lat="45.0216" lon="3.58315">
        <ele>681.23</ele>
        <time>2022-05-01T08:27:47Z</time>
      </trkpt>
      <trkpt lat="45.02162" lon="3.583">
        <ele>685.56</ele>
        <time>2022-05-01T08:28:00Z</time>
      </trkpt>
      <trkpt lat="45.02163" lon="3.5829">
        <ele>688.44</ele>
        <time>2022-05-01T08:28:12Z</time>
      </trkpt>
      <trkpt lat="45.02162" lon="3.58285">
        <ele>688.92</ele>
        <time>2022-05-01T08:28:25Z</time>
      </trkpt>
      <trkpt lat="45.02164" lon="3.58281">
        <ele>689.4</ele>
        <time>2022-05-01T08:28:37Z</time>
      </trkpt>
      <trkpt lat="45.02165" lon="3.5828">
        <ele>689.88</ele>
        <time>2022-05-01T08:28:38Z</time>
      </trkpt>
      <trkpt lat="45.02167" lon="3.58271">
        <ele>690.84</ele>
        <time>2022-05-01T08:28:42Z</time>
      </trkpt>
      <trkpt lat="45.0217" lon="3.58254">
        <ele>692.29</ele>
        <time>2022-05-01T08:28:52Z</time>
      </trkpt>
      <trkpt lat="45.0217" lon="3.58249">
        <ele>692.77</ele>
        <time>2022-05-01T08:28:57Z</time>
      </trkpt>
      <trkpt lat="45.0217" lon="3.58243">
        <ele>692.29</ele>
        <time>2022-05-01T08:29:00Z</time>
      </trkpt>
      <trkpt lat="45.02171" lon="3.58201">
        <ele>690.36</ele>
        <time>2022-05-01T08:29:15Z</time>
      </trkpt>
      <trkpt lat="45.02173" lon="3.58185">
        <ele>691.33</ele>
        <time>2022-05-01T08:29:30Z</time>
      </trkpt>
      <trkpt lat="45.02176" lon="3.58179">
        <ele>694.21</ele>
        <time>2022-05-01T08:29:43Z</time>
      </trkpt>
      <trkpt lat="45.02177" lon="3.58175">
        <ele>695.65</ele>
        <time>2022-05-01T08:29:49Z</time>
      </trkpt>
      <trkpt lat="45.02188" lon="3.58162">
        <ele>700.46</ele>
        <time>2022-05-01T08:30:05Z</time>
      </trkpt>
      <trkpt lat="45.022" lon="3.58154">
        <ele>703.34</ele>
        <time>2022-05-01T08:30:18Z</time>
      </trkpt>
      <trkpt lat="45.02201" lon="3.58154">
        <ele>703.82</ele>
        <time>2022-05-01T08:30:19Z</time>
      </trkpt>
      <trkpt lat="45.02208" lon="3.58151">
        <ele>704.78</ele>
        <time>2022-05-01T08:30:26Z</time>
      </trkpt>
      <trkpt lat="45.02222" lon="3.58137">
        <ele>708.15</ele>
        <time>2022-05-01T08:30:41Z</time>
      </trkpt>
      <trkpt lat="45.02227" lon="3.58121">
        <ele>715.84</ele>
        <time>2022-05-01T08:30:55Z</time>
      </trkpt>
      <trkpt lat="45.02233" lon="3.58118">
        <ele>718.24</ele>
        <time>2022-05-01T08:31:10Z</time>
      </trkpt>
      <trkpt lat="45.02237" lon="3.58107">
        <ele>721.61</ele>
        <time>2022-05-01T08:31:22Z</time>
      </trkpt>
      <trkpt lat="45.0224" lon="3.5809">
        <ele>724.97</ele>
        <time>2022-05-01T08:31:33Z</time>
      </trkpt>
      <trkpt lat="45.02245" lon="3.58075">
        <ele>719.2</ele>
        <time>2022-05-01T08:31:48Z</time>
      </trkpt>
      <trkpt lat="45.02254" lon="3.58065">
        <ele>716.32</ele>
        <time>2022-05-01T08:32:00Z</time>
      </trkpt>
      <trkpt lat="45.0226" lon="3.58061">
        <ele>712.95</ele>
        <time>2022-05-01T08:32:14Z</time>
      </trkpt>
      <trkpt lat="45.02262" lon="3.58057">
        <ele>711.51</ele>
        <time>2022-05-01T08:32:30Z</time>
      </trkpt>
      <trkpt lat="45.02264" lon="3.58053">
        <ele>711.03</ele>
        <time>2022-05-01T08:32:52Z</time>
      </trkpt>
      <trkpt lat="45.02265" lon="3.58051">
        <ele>709.59</ele>
        <time>2022-05-01T08:33:12Z</time>
      </trkpt>
      <trkpt lat="45.02265" lon="3.58048">
        <ele>710.07</ele>
        <time>2022-05-01T08:33:25Z</time>
      </trkpt>
      <trkpt lat="45.02265" lon="3.58045">
        <ele>709.59</ele>
        <time>2022-05-01T08:33:42Z</time>
      </trkpt>
      <trkpt lat="45.02266" lon="3.58043">
        <ele>710.07</ele>
        <time>2022-05-01T08:34:00Z</time>
      </trkpt>
      <trkpt lat="45.02266" lon="3.58039">
        <ele>711.51</ele>
        <time>2022-05-01T08:34:18Z</time>
      </trkpt>
      <trkpt lat="45.02266" lon="3.58037">
        <ele>711.51</ele>
        <time>2022-05-01T08:34:31Z</time>
      </trkpt>
      <trkpt lat="45.02267" lon="3.58037">
        <ele>711.51</ele>
        <time>2022-05-01T08:34:45Z</time>
      </trkpt>
      <trkpt lat="45.0227" lon="3.58038">
        <ele>711.51</ele>
        <time>2022-05-01T08:34:59Z</time>
      </trkpt>
      <trkpt lat="45.02277" lon="3.58041">
        <ele>711.99</ele>
        <time>2022-05-01T08:35:11Z</time>
      </trkpt>
      <trkpt lat="45.02284" lon="3.58053">
        <ele>710.07</ele>
        <time>2022-05-01T08:35:23Z</time>
      </trkpt>
      <trkpt lat="45.02294" lon="3.58056">
        <ele>705.75</ele>
        <time>2022-05-01T08:35:34Z</time>
      </trkpt>
      <trkpt lat="45.02306" lon="3.5806">
        <ele>701.42</ele>
        <time>2022-05-01T08:35:49Z</time>
      </trkpt>
      <trkpt lat="45.0232" lon="3.5806">
        <ele>701.42</ele>
        <time>2022-05-01T08:36:03Z</time>
      </trkpt>
      <trkpt lat="45.02333" lon="3.58067">
        <ele>702.38</ele>
        <time>2022-05-01T08:36:16Z</time>
      </trkpt>
      <trkpt lat="45.02336" lon="3.58075">
        <ele>699.98</ele>
        <time>2022-05-01T08:36:27Z</time>
      </trkpt>
      <trkpt lat="45.02339" lon="3.58091">
        <ele>697.09</ele>
        <time>2022-05-01T08:36:41Z</time>
      </trkpt>
      <trkpt lat="45.0234" lon="3.58107">
        <ele>699.02</ele>
        <time>2022-05-01T08:36:54Z</time>
      </trkpt>
      <trkpt lat="45.0234" lon="3.58125">
        <ele>699.02</ele>
        <time>2022-05-01T08:37:06Z</time>
      </trkpt>
      <trkpt lat="45.02343" lon="3.58132">
        <ele>698.05</ele>
        <time>2022-05-01T08:37:14Z</time>
      </trkpt>
      <trkpt lat="45.02352" lon="3.58153">
        <ele>692.29</ele>
        <time>2022-05-01T08:37:27Z</time>
      </trkpt>
      <trkpt lat="45.02353" lon="3.58159">
        <ele>690.36</ele>
        <time>2022-05-01T08:37:30Z</time>
      </trkpt>
      <trkpt lat="45.02354" lon="3.58184">
        <ele>684.6</ele>
        <time>2022-05-01T08:37:40Z</time>
      </trkpt>
      <trkpt lat="45.02347" lon="3.58219">
        <ele>679.31</ele>
        <time>2022-05-01T08:37:58Z</time>
      </trkpt>
      <trkpt lat="45.0234" lon="3.58243">
        <ele>677.87</ele>
        <time>2022-05-01T08:38:15Z</time>
      </trkpt>
      <trkpt lat="45.02338" lon="3.58257">
        <ele>677.39</ele>
        <time>2022-05-01T08:38:26Z</time>
      </trkpt>
      <trkpt lat="45.02333" lon="3.58267">
        <ele>677.39</ele>
        <time>2022-05-01T08:38:34Z</time>
      </trkpt>
      <trkpt lat="45.02328" lon="3.58287">
        <ele>673.06</ele>
        <time>2022-05-01T08:38:46Z</time>
      </trkpt>
      <trkpt lat="45.02323" lon="3.58296">
        <ele>667.77</ele>
        <time>2022-05-01T08:38:53Z</time>
      </trkpt>
      <trkpt lat="45.02317" lon="3.58317">
        <ele>661.52</ele>
        <time>2022-05-01T08:39:07Z</time>
      </trkpt>
      <trkpt lat="45.02311" lon="3.58337">
        <ele>656.72</ele>
        <time>2022-05-01T08:39:23Z</time>
      </trkpt>
      <trkpt lat="45.02313" lon="3.58356">
        <ele>652.87</ele>
        <time>2022-05-01T08:39:38Z</time>
      </trkpt>
      <trkpt lat="45.02313" lon="3.58359">
        <ele>652.87</ele>
        <time>2022-05-01T08:39:41Z</time>
      </trkpt>
      <trkpt lat="45.02311" lon="3.58364">
        <ele>651.91</ele>
        <time>2022-05-01T08:39:45Z</time>
      </trkpt>
      <trkpt lat="45.02306" lon="3.58383">
        <ele>651.91</ele>
        <time>2022-05-01T08:39:57Z</time>
      </trkpt>
      <trkpt lat="45.02304" lon="3.58401">
        <ele>649.51</ele>
        <time>2022-05-01T08:40:08Z</time>
      </trkpt>
      <trkpt lat="45.02305" lon="3.58422">
        <ele>647.59</ele>
        <time>2022-05-01T08:40:19Z</time>
      </trkpt>
      <trkpt lat="45.02302" lon="3.58452">
        <ele>649.99</ele>
        <time>2022-05-01T08:40:35Z</time>
      </trkpt>
      <trkpt lat="45.02298" lon="3.5848">
        <ele>646.14</ele>
        <time>2022-05-01T08:40:50Z</time>
      </trkpt>
      <trkpt lat="45.02295" lon="3.58514">
        <ele>643.74</ele>
        <time>2022-05-01T08:41:09Z</time>
      </trkpt>
      <trkpt lat="45.02299" lon="3.58539">
        <ele>638.45</ele>
        <time>2022-05-01T08:41:25Z</time>
      </trkpt>
      <trkpt lat="45.02303" lon="3.58553">
        <ele>636.05</ele>
        <time>2022-05-01T08:41:33Z</time>
      </trkpt>
      <trkpt lat="45.0232" lon="3.58581">
        <ele>628.36</ele>
        <time>2022-05-01T08:41:52Z</time>
      </trkpt>
      <trkpt lat="45.02336" lon="3.58597">
        <ele>624.99</ele>
        <time>2022-05-01T08:42:07Z</time>
      </trkpt>
      <trkpt lat="45.02338" lon="3.58599">
        <ele>624.51</ele>
        <time>2022-05-01T08:42:09Z</time>
      </trkpt>
      <trkpt lat="45.02356" lon="3.58616">
        <ele>619.23</ele>
        <time>2022-05-01T08:42:25Z</time>
      </trkpt>
      <trkpt lat="45.02375" lon="3.58629">
        <ele>616.82</ele>
        <time>2022-05-01T08:42:41Z</time>
      </trkpt>
      <trkpt lat="45.02392" lon="3.58637">
        <ele>615.38</ele>
        <time>2022-05-01T08:42:56Z</time>
      </trkpt>
      <trkpt lat="45.02404" lon="3.58643">
        <ele>613.94</ele>
        <time>2022-05-01T08:43:05Z</time>
      </trkpt>
      <trkpt lat="45.02409" lon="3.58651">
        <ele>612.5</ele>
        <time>2022-05-01T08:43:10Z</time>
      </trkpt>
      <trkpt lat="45.02424" lon="3.58671">
        <ele>605.29</ele>
        <time>2022-05-01T08:43:28Z</time>
      </trkpt>
      <trkpt lat="45.02438" lon="3.58683">
        <ele>603.36</ele>
        <time>2022-05-01T08:43:41Z</time>
      </trkpt>
      <trkpt lat="45.02446" lon="3.58695">
        <ele>603.85</ele>
        <time>2022-05-01T08:43:50Z</time>
      </trkpt>
      <trkpt lat="45.02453" lon="3.58712">
        <ele>603.36</ele>
        <time>2022-05-01T08:44:00Z</time>
      </trkpt>
      <trkpt lat="45.02466" lon="3.58733">
        <ele>604.33</ele>
        <time>2022-05-01T08:44:14Z</time>
      </trkpt>
      <trkpt lat="45.02478" lon="3.58746">
        <ele>602.88</ele>
        <time>2022-05-01T08:44:27Z</time>
      </trkpt>
      <trkpt lat="45.02489" lon="3.58764">
        <ele>602.88</ele>
        <time>2022-05-01T08:44:39Z</time>
      </trkpt>
      <trkpt lat="45.02502" lon="3.58784">
        <ele>598.56</ele>
        <time>2022-05-01T08:44:53Z</time>
      </trkpt>
      <trkpt lat="45.02509" lon="3.58797">
        <ele>597.12</ele>
        <time>2022-05-01T08:45:02Z</time>
      </trkpt>
      <trkpt lat="45.02515" lon="3.58807">
        <ele>594.71</ele>
        <time>2022-05-01T08:45:11Z</time>
      </trkpt>
      <trkpt lat="45.02522" lon="3.58827">
        <ele>594.23</ele>
        <time>2022-05-01T08:45:26Z</time>
      </trkpt>
      <trkpt lat="45.02523" lon="3.5883">
        <ele>593.75</ele>
        <time>2022-05-01T08:45:28Z</time>
      </trkpt>
      <trkpt lat="45.02524" lon="3.58834">
        <ele>593.75</ele>
        <time>2022-05-01T08:45:31Z</time>
      </trkpt>
      <trkpt lat="45.02525" lon="3.58836">
        <ele>593.27</ele>
        <time>2022-05-01T08:45:33Z</time>
      </trkpt>
      <trkpt lat="45.02533" lon="3.58844">
        <ele>591.35</ele>
        <time>2022-05-01T08:45:44Z</time>
      </trkpt>
      <trkpt lat="45.02535" lon="3.58858">
        <ele>587.5</ele>
        <time>2022-05-01T08:45:57Z</time>
      </trkpt>
      <trkpt lat="45.02534" lon="3.5886">
        <ele>587.5</ele>
        <time>2022-05-01T08:45:59Z</time>
      </trkpt>
      <trkpt lat="45.02535" lon="3.58876">
        <ele>586.54</ele>
        <time>2022-05-01T08:46:13Z</time>
      </trkpt>
      <trkpt lat="45.02541" lon="3.58886">
        <ele>586.06</ele>
        <time>2022-05-01T08:46:23Z</time>
      </trkpt>
      <trkpt lat="45.02541" lon="3.58891">
        <ele>585.58</ele>
        <time>2022-05-01T08:46:26Z</time>
      </trkpt>
      <trkpt lat="45.02542" lon="3.58896">
        <ele>585.1</ele>
        <time>2022-05-01T08:46:30Z</time>
      </trkpt>
      <trkpt lat="45.02541" lon="3.58923">
        <ele>584.14</ele>
        <time>2022-05-01T08:46:46Z</time>
      </trkpt>
      <trkpt lat="45.02543" lon="3.58943">
        <ele>582.22</ele>
        <time>2022-05-01T08:47:00Z</time>
      </trkpt>
      <trkpt lat="45.02544" lon="3.58944">
        <ele>582.22</ele>
        <time>2022-05-01T08:47:01Z</time>
      </trkpt>
      <trkpt lat="45.02548" lon="3.58963">
        <ele>581.73</ele>
        <time>2022-05-01T08:47:15Z</time>
      </trkpt>
      <trkpt lat="45.02547" lon="3.58987">
        <ele>581.25</ele>
        <time>2022-05-01T08:47:31Z</time>
      </trkpt>
      <trkpt lat="45.02548" lon="3.59">
        <ele>577.41</ele>
        <time>2022-05-01T08:47:42Z</time>
      </trkpt>
      <trkpt lat="45.02548" lon="3.59009">
        <ele>575.49</ele>
        <time>2022-05-01T08:47:48Z</time>
      </trkpt>
      <trkpt lat="45.02542" lon="3.59014">
        <ele>573.56</ele>
        <time>2022-05-01T08:47:55Z</time>
      </trkpt>
      <trkpt lat="45.02536" lon="3.59035">
        <ele>568.28</ele>
        <time>2022-05-01T08:48:11Z</time>
      </trkpt>
      <trkpt lat="45.02534" lon="3.5904">
        <ele>566.83</ele>
        <time>2022-05-01T08:48:16Z</time>
      </trkpt>
      <trkpt lat="45.02527" lon="3.59042">
        <ele>564.43</ele>
        <time>2022-05-01T08:48:28Z</time>
      </trkpt>
      <trkpt lat="45.02524" lon="3.59049">
        <ele>563.95</ele>
        <time>2022-05-01T08:48:40Z</time>
      </trkpt>
      <trkpt lat="45.02522" lon="3.59054">
        <ele>563.47</ele>
        <time>2022-05-01T08:48:44Z</time>
      </trkpt>
      <trkpt lat="45.02517" lon="3.59066">
        <ele>561.07</ele>
        <time>2022-05-01T08:48:53Z</time>
      </trkpt>
      <trkpt lat="45.02517" lon="3.5909">
        <ele>559.62</ele>
        <time>2022-05-01T08:49:09Z</time>
      </trkpt>
      <trkpt lat="45.02519" lon="3.59104">
        <ele>558.66</ele>
        <time>2022-05-01T08:49:20Z</time>
      </trkpt>
      <trkpt lat="45.02523" lon="3.59103">
        <ele>560.59</ele>
        <time>2022-05-01T08:49:31Z</time>
      </trkpt>
      <trkpt lat="45.02523" lon="3.59104">
        <ele>561.55</ele>
        <time>2022-05-01T08:49:54Z</time>
      </trkpt>
      <trkpt lat="45.02523" lon="3.59103">
        <ele>562.03</ele>
        <time>2022-05-01T08:50:08Z</time>
      </trkpt>
      <trkpt lat="45.02522" lon="3.59108">
        <ele>562.99</ele>
        <time>2022-05-01T08:50:13Z</time>
      </trkpt>
      <trkpt lat="45.02523" lon="3.59115">
        <ele>562.99</ele>
        <time>2022-05-01T08:50:18Z</time>
      </trkpt>
      <trkpt lat="45.02526" lon="3.59125">
        <ele>562.51</ele>
        <time>2022-05-01T08:50:32Z</time>
      </trkpt>
      <trkpt lat="45.02527" lon="3.59128">
        <ele>563.47</ele>
        <time>2022-05-01T08:50:52Z</time>
      </trkpt>
      <trkpt lat="45.02527" lon="3.59129">
        <ele>563.47</ele>
        <time>2022-05-01T08:51:05Z</time>
      </trkpt>
      <trkpt lat="45.02529" lon="3.59131">
        <ele>562.99</ele>
        <time>2022-05-01T08:51:19Z</time>
      </trkpt>
      <trkpt lat="45.02531" lon="3.59132">
        <ele>562.99</ele>
        <time>2022-05-01T08:51:30Z</time>
      </trkpt>
      <trkpt lat="45.02535" lon="3.59128">
        <ele>560.11</ele>
        <time>2022-05-01T08:51:41Z</time>
      </trkpt>
      <trkpt lat="45.02536" lon="3.59129">
        <ele>559.62</ele>
        <time>2022-05-01T08:51:53Z</time>
      </trkpt>
      <trkpt lat="45.02535" lon="3.59132">
        <ele>560.11</ele>
        <time>2022-05-01T08:52:07Z</time>
      </trkpt>
      <trkpt lat="45.02535" lon="3.59133">
        <ele>560.11</ele>
        <time>2022-05-01T08:52:21Z</time>
      </trkpt>
      <trkpt lat="45.02534" lon="3.59133">
        <ele>558.66</ele>
        <time>2022-05-01T08:52:53Z</time>
      </trkpt>
      <trkpt lat="45.02535" lon="3.59133">
        <ele>558.66</ele>
        <time>2022-05-01T08:53:15Z</time>
      </trkpt>
      <trkpt lat="45.02535" lon="3.59133">
        <ele>558.66</ele>
        <time>2022-05-01T08:53:30Z</time>
      </trkpt>
      <trkpt lat="45.02535" lon="3.59133">
        <ele>559.14</ele>
        <time>2022-05-01T08:53:42Z</time>
      </trkpt>
      <trkpt lat="45.02535" lon="3.59133">
        <ele>559.62</ele>
        <time>2022-05-01T08:53:46Z</time>
      </trkpt>
      <trkpt lat="45.02544" lon="3.5913">
        <ele>558.18</ele>
        <time>2022-05-01T08:53:58Z</time>
      </trkpt>
      <trkpt lat="45.02552" lon="3.59128">
        <ele>557.7</ele>
        <time>2022-05-01T08:54:08Z</time>
      </trkpt>
      <trkpt lat="45.02566" lon="3.59129">
        <ele>558.66</ele>
        <time>2022-05-01T08:54:23Z</time>
      </trkpt>
      <trkpt lat="45.02584" lon="3.59133">
        <ele>558.66</ele>
        <time>2022-05-01T08:54:40Z</time>
      </trkpt>
      <trkpt lat="45.02603" lon="3.5914">
        <ele>556.74</ele>
        <time>2022-05-01T08:54:58Z</time>
      </trkpt>
      <trkpt lat="45.02619" lon="3.59153">
        <ele>554.82</ele>
        <time>2022-05-01T08:55:14Z</time>
      </trkpt>
      <trkpt lat="45.02638" lon="3.59147">
        <ele>553.38</ele>
        <time>2022-05-01T08:55:30Z</time>
      </trkpt>
      <trkpt lat="45.02641" lon="3.59144">
        <ele>553.38</ele>
        <time>2022-05-01T08:55:34Z</time>
      </trkpt>
      <trkpt lat="45.02654" lon="3.59139">
        <ele>553.38</ele>
        <time>2022-05-01T08:55:47Z</time>
      </trkpt>
      <trkpt lat="45.02674" lon="3.59139">
        <ele>554.34</ele>
        <time>2022-05-01T08:56:03Z</time>
      </trkpt>
      <trkpt lat="45.02693" lon="3.5915">
        <ele>554.34</ele>
        <time>2022-05-01T08:56:22Z</time>
      </trkpt>
      <trkpt lat="45.02697" lon="3.59155">
        <ele>553.86</ele>
        <time>2022-05-01T08:56:26Z</time>
      </trkpt>
      <trkpt lat="45.02706" lon="3.5916">
        <ele>549.05</ele>
        <time>2022-05-01T08:56:34Z</time>
      </trkpt>
      <trkpt lat="45.02708" lon="3.59161">
        <ele>549.05</ele>
        <time>2022-05-01T08:56:36Z</time>
      </trkpt>
      <trkpt lat="45.02718" lon="3.59175">
        <ele>551.93</ele>
        <time>2022-05-01T08:56:47Z</time>
      </trkpt>
      <trkpt lat="45.02734" lon="3.59193">
        <ele>552.9</ele>
        <time>2022-05-01T08:57:03Z</time>
      </trkpt>
      <trkpt lat="45.02741" lon="3.592">
        <ele>552.41</ele>
        <time>2022-05-01T08:57:12Z</time>
      </trkpt>
      <trkpt lat="45.02744" lon="3.59201">
        <ele>552.9</ele>
        <time>2022-05-01T08:57:17Z</time>
      </trkpt>
      <trkpt lat="45.02759" lon="3.59215">
        <ele>554.82</ele>
        <time>2022-05-01T08:57:33Z</time>
      </trkpt>
      <trkpt lat="45.02762" lon="3.59227">
        <ele>555.3</ele>
        <time>2022-05-01T08:57:42Z</time>
      </trkpt>
      <trkpt lat="45.02762" lon="3.59235">
        <ele>556.26</ele>
        <time>2022-05-01T08:57:48Z</time>
      </trkpt>
      <trkpt lat="45.02763" lon="3.59264">
        <ele>555.3</ele>
        <time>2022-05-01T08:58:05Z</time>
      </trkpt>
      <trkpt lat="45.02767" lon="3.59278">
        <ele>554.34</ele>
        <time>2022-05-01T08:58:13Z</time>
      </trkpt>
      <trkpt lat="45.02772" lon="3.59292">
        <ele>554.82</ele>
        <time>2022-05-01T08:58:23Z</time>
      </trkpt>
      <trkpt lat="45.02773" lon="3.59298">
        <ele>554.82</ele>
        <time>2022-05-01T08:58:27Z</time>
      </trkpt>
      <trkpt lat="45.0278" lon="3.59317">
        <ele>554.82</ele>
        <time>2022-05-01T08:58:39Z</time>
      </trkpt>
      <trkpt lat="45.02782" lon="3.59321">
        <ele>555.78</ele>
        <time>2022-05-01T08:58:42Z</time>
      </trkpt>
      <trkpt lat="45.02784" lon="3.59322">
        <ele>557.7</ele>
        <time>2022-05-01T08:58:44Z</time>
      </trkpt>
      <trkpt lat="45.0278" lon="3.59334">
        <ele>562.51</ele>
        <time>2022-05-01T08:58:52Z</time>
      </trkpt>
      <trkpt lat="45.0278" lon="3.59361">
        <ele>567.8</ele>
        <time>2022-05-01T08:59:07Z</time>
      </trkpt>
      <trkpt lat="45.02782" lon="3.59376">
        <ele>565.87</ele>
        <time>2022-05-01T08:59:16Z</time>
      </trkpt>
      <trkpt lat="45.0278" lon="3.5939">
        <ele>560.59</ele>
        <time>2022-05-01T08:59:27Z</time>
      </trkpt>
      <trkpt lat="45.0278" lon="3.5939">
        <ele>560.11</ele>
        <time>2022-05-01T08:59:28Z</time>
      </trkpt>
      <trkpt lat="45.02792" lon="3.594">
        <ele>555.78</ele>
        <time>2022-05-01T08:59:41Z</time>
      </trkpt>
      <trkpt lat="45.02812" lon="3.5941">
        <ele>554.34</ele>
        <time>2022-05-01T08:59:56Z</time>
      </trkpt>
      <trkpt lat="45.02833" lon="3.59424">
        <ele>551.93</ele>
        <time>2022-05-01T09:00:11Z</time>
      </trkpt>
      <trkpt lat="45.02853" lon="3.5944">
        <ele>549.05</ele>
        <time>2022-05-01T09:00:28Z</time>
      </trkpt>
      <trkpt lat="45.02859" lon="3.59445">
        <ele>549.05</ele>
        <time>2022-05-01T09:00:39Z</time>
      </trkpt>
      <trkpt lat="45.02861" lon="3.59446">
        <ele>549.05</ele>
        <time>2022-05-01T09:00:41Z</time>
      </trkpt>
      <trkpt lat="45.0288" lon="3.59461">
        <ele>549.05</ele>
        <time>2022-05-01T09:00:58Z</time>
      </trkpt>
      <trkpt lat="45.02883" lon="3.59463">
        <ele>549.05</ele>
        <time>2022-05-01T09:01:01Z</time>
      </trkpt>
      <trkpt lat="45.0289" lon="3.59469">
        <ele>548.57</ele>
        <time>2022-05-01T09:01:15Z</time>
      </trkpt>
      <trkpt lat="45.02897" lon="3.59472">
        <ele>548.57</ele>
        <time>2022-05-01T09:01:26Z</time>
      </trkpt>
      <trkpt lat="45.029" lon="3.59473">
        <ele>548.57</ele>
        <time>2022-05-01T09:01:30Z</time>
      </trkpt>
      <trkpt lat="45.02905" lon="3.59472">
        <ele>548.57</ele>
        <time>2022-05-01T09:01:36Z</time>
      </trkpt>
      <trkpt lat="45.02921" lon="3.5947">
        <ele>549.05</ele>
        <time>2022-05-01T09:01:52Z</time>
      </trkpt>
      <trkpt lat="45.0294" lon="3.59469">
        <ele>549.53</ele>
        <time>2022-05-01T09:02:09Z</time>
      </trkpt>
      <trkpt lat="45.02951" lon="3.59466">
        <ele>548.57</ele>
        <time>2022-05-01T09:02:23Z</time>
      </trkpt>
      <trkpt lat="45.02964" lon="3.59458">
        <ele>550.01</ele>
        <time>2022-05-01T09:02:36Z</time>
      </trkpt>
      <trkpt lat="45.02966" lon="3.59451">
        <ele>550.97</ele>
        <time>2022-05-01T09:02:49Z</time>
      </trkpt>
      <trkpt lat="45.02966" lon="3.5945">
        <ele>550.97</ele>
        <time>2022-05-01T09:03:02Z</time>
      </trkpt>
      <trkpt lat="45.02966" lon="3.59448">
        <ele>551.45</ele>
        <time>2022-05-01T09:03:17Z</time>
      </trkpt>
      <trkpt lat="45.02966" lon="3.59441">
        <ele>553.38</ele>
        <time>2022-05-01T09:03:29Z</time>
      </trkpt>
      <trkpt lat="45.02969" lon="3.59422">
        <ele>556.26</ele>
        <time>2022-05-01T09:03:42Z</time>
      </trkpt>
      <trkpt lat="45.02971" lon="3.59409">
        <ele>557.22</ele>
        <time>2022-05-01T09:03:53Z</time>
      </trkpt>
      <trkpt lat="45.02978" lon="3.59395">
        <ele>560.59</ele>
        <time>2022-05-01T09:04:07Z</time>
      </trkpt>
      <trkpt lat="45.02985" lon="3.59391">
        <ele>562.03</ele>
        <time>2022-05-01T09:04:18Z</time>
      </trkpt>
      <trkpt lat="45.02989" lon="3.59384">
        <ele>563.95</ele>
        <time>2022-05-01T09:04:26Z</time>
      </trkpt>
      <trkpt lat="45.02993" lon="3.59377">
        <ele>565.39</ele>
        <time>2022-05-01T09:04:32Z</time>
      </trkpt>
      <trkpt lat="45.02996" lon="3.59375">
        <ele>566.83</ele>
        <time>2022-05-01T09:04:35Z</time>
      </trkpt>
      <trkpt lat="45.02999" lon="3.59368">
        <ele>568.76</ele>
        <time>2022-05-01T09:04:40Z</time>
      </trkpt>
      <trkpt lat="45.03007" lon="3.59356">
        <ele>571.64</ele>
        <time>2022-05-01T09:04:51Z</time>
      </trkpt>
      <trkpt lat="45.0301" lon="3.59353">
        <ele>572.6</ele>
        <time>2022-05-01T09:04:54Z</time>
      </trkpt>
      <trkpt lat="45.03019" lon="3.59348">
        <ele>573.08</ele>
        <time>2022-05-01T09:05:03Z</time>
      </trkpt>
      <trkpt lat="45.03029" lon="3.59344">
        <ele>574.53</ele>
        <time>2022-05-01T09:05:13Z</time>
      </trkpt>
      <trkpt lat="45.03035" lon="3.59339">
        <ele>575.97</ele>
        <time>2022-05-01T09:05:25Z</time>
      </trkpt>
      <trkpt lat="45.03042" lon="3.59338">
        <ele>575.97</ele>
        <time>2022-05-01T09:05:31Z</time>
      </trkpt>
      <trkpt lat="45.03055" lon="3.59332">
        <ele>579.33</ele>
        <time>2022-05-01T09:05:43Z</time>
      </trkpt>
      <trkpt lat="45.03058" lon="3.59331">
        <ele>579.81</ele>
        <time>2022-05-01T09:05:45Z</time>
      </trkpt>
      <trkpt lat="45.03071" lon="3.59325">
        <ele>585.1</ele>
        <time>2022-05-01T09:05:58Z</time>
      </trkpt>
      <trkpt lat="45.03082" lon="3.5932">
        <ele>592.31</ele>
        <time>2022-05-01T09:06:11Z</time>
      </trkpt>
      <trkpt lat="45.0309" lon="3.5932">
        <ele>596.15</ele>
        <time>2022-05-01T09:06:18Z</time>
      </trkpt>
      <trkpt lat="45.03093" lon="3.5932">
        <ele>597.6</ele>
        <time>2022-05-01T09:06:21Z</time>
      </trkpt>
      <trkpt lat="45.03098" lon="3.59321">
        <ele>599.52</ele>
        <time>2022-05-01T09:06:25Z</time>
      </trkpt>
      <trkpt lat="45.03106" lon="3.59332">
        <ele>592.79</ele>
        <time>2022-05-01T09:06:33Z</time>
      </trkpt>
      <trkpt lat="45.03108" lon="3.59334">
        <ele>592.79</ele>
        <time>2022-05-01T09:06:35Z</time>
      </trkpt>
      <trkpt lat="45.0311" lon="3.59335">
        <ele>593.27</ele>
        <time>2022-05-01T09:06:37Z</time>
      </trkpt>
      <trkpt lat="45.03121" lon="3.59345">
        <ele>592.79</ele>
        <time>2022-05-01T09:06:50Z</time>
      </trkpt>
      <trkpt lat="45.03125" lon="3.59349">
        <ele>593.27</ele>
        <time>2022-05-01T09:06:55Z</time>
      </trkpt>
      <trkpt lat="45.03137" lon="3.59355">
        <ele>594.71</ele>
        <time>2022-05-01T09:07:07Z</time>
      </trkpt>
      <trkpt lat="45.03139" lon="3.59357">
        <ele>594.71</ele>
        <time>2022-05-01T09:07:09Z</time>
      </trkpt>
      <trkpt lat="45.03152" lon="3.59364">
        <ele>596.15</ele>
        <time>2022-05-01T09:07:21Z</time>
      </trkpt>
      <trkpt lat="45.03153" lon="3.59365">
        <ele>596.64</ele>
        <time>2022-05-01T09:07:23Z</time>
      </trkpt>
      <trkpt lat="45.03161" lon="3.59371">
        <ele>600</ele>
        <time>2022-05-01T09:07:35Z</time>
      </trkpt>
      <trkpt lat="45.03162" lon="3.59372">
        <ele>600</ele>
        <time>2022-05-01T09:07:37Z</time>
      </trkpt>
      <trkpt lat="45.03163" lon="3.59373">
        <ele>600</ele>
        <time>2022-05-01T09:07:48Z</time>
      </trkpt>
      <trkpt lat="45.03168" lon="3.59374">
        <ele>600.48</ele>
        <time>2022-05-01T09:07:53Z</time>
      </trkpt>
      <trkpt lat="45.03177" lon="3.59377">
        <ele>601.44</ele>
        <time>2022-05-01T09:08:05Z</time>
      </trkpt>
      <trkpt lat="45.0318" lon="3.59376">
        <ele>602.4</ele>
        <time>2022-05-01T09:08:16Z</time>
      </trkpt>
      <trkpt lat="45.03183" lon="3.59377">
        <ele>603.36</ele>
        <time>2022-05-01T09:08:34Z</time>
      </trkpt>
      <trkpt lat="45.03184" lon="3.59377">
        <ele>603.85</ele>
        <time>2022-05-01T09:08:44Z</time>
      </trkpt>
      <trkpt lat="45.03188" lon="3.59377">
        <ele>604.33</ele>
        <time>2022-05-01T09:08:57Z</time>
      </trkpt>
      <trkpt lat="45.03188" lon="3.59377">
        <ele>605.77</ele>
        <time>2022-05-01T09:09:08Z</time>
      </trkpt>
      <trkpt lat="45.03188" lon="3.59376">
        <ele>606.25</ele>
        <time>2022-05-01T09:09:27Z</time>
      </trkpt>
      <trkpt lat="45.03189" lon="3.59376">
        <ele>605.77</ele>
        <time>2022-05-01T09:09:44Z</time>
      </trkpt>
      <trkpt lat="45.0319" lon="3.59377">
        <ele>607.21</ele>
        <time>2022-05-01T09:09:52Z</time>
      </trkpt>
      <trkpt lat="45.03204" lon="3.59382">
        <ele>604.81</ele>
        <time>2022-05-01T09:10:04Z</time>
      </trkpt>
      <trkpt lat="45.03219" lon="3.59386">
        <ele>601.92</ele>
        <time>2022-05-01T09:10:17Z</time>
      </trkpt>
      <trkpt lat="45.03234" lon="3.59387">
        <ele>601.44</ele>
        <time>2022-05-01T09:10:28Z</time>
      </trkpt>
      <trkpt lat="45.0324" lon="3.59387">
        <ele>601.92</ele>
        <time>2022-05-01T09:10:32Z</time>
      </trkpt>
      <trkpt lat="45.03256" lon="3.59391">
        <ele>600.48</ele>
        <time>2022-05-01T09:10:44Z</time>
      </trkpt>
      <trkpt lat="45.03269" lon="3.59404">
        <ele>601.44</ele>
        <time>2022-05-01T09:10:58Z</time>
      </trkpt>
      <trkpt lat="45.03276" lon="3.59412">
        <ele>602.4</ele>
        <time>2022-05-01T09:11:08Z</time>
      </trkpt>
      <trkpt lat="45.03287" lon="3.59417">
        <ele>605.77</ele>
        <time>2022-05-01T09:11:15Z</time>
      </trkpt>
      <trkpt lat="45.03296" lon="3.5942">
        <ele>611.06</ele>
        <time>2022-05-01T09:11:23Z</time>
      </trkpt>
      <trkpt lat="45.03301" lon="3.5942">
        <ele>612.98</ele>
        <time>2022-05-01T09:11:27Z</time>
      </trkpt>
      <trkpt lat="45.03302" lon="3.59422">
        <ele>613.94</ele>
        <time>2022-05-01T09:11:29Z</time>
      </trkpt>
      <trkpt lat="45.03293" lon="3.5943">
        <ele>616.34</ele>
        <time>2022-05-01T09:11:40Z</time>
      </trkpt>
      <trkpt lat="45.03282" lon="3.59439">
        <ele>620.67</ele>
        <time>2022-05-01T09:11:55Z</time>
      </trkpt>
      <trkpt lat="45.0328" lon="3.5944">
        <ele>620.67</ele>
        <time>2022-05-01T09:11:57Z</time>
      </trkpt>
      <trkpt lat="45.03277" lon="3.5944">
        <ele>621.63</ele>
        <time>2022-05-01T09:12:01Z</time>
      </trkpt>
      <trkpt lat="45.03269" lon="3.59442">
        <ele>623.55</ele>
        <time>2022-05-01T09:12:16Z</time>
      </trkpt>
      <trkpt lat="45.03268" lon="3.59442">
        <ele>624.03</ele>
        <time>2022-05-01T09:12:17Z</time>
      </trkpt>
      <trkpt lat="45.03262" lon="3.59442">
        <ele>625.47</ele>
        <time>2022-05-01T09:12:22Z</time>
      </trkpt>
      <trkpt lat="45.03248" lon="3.59442">
        <ele>628.36</ele>
        <time>2022-05-01T09:12:36Z</time>
      </trkpt>
      <trkpt lat="45.03238" lon="3.59444">
        <ele>629.8</ele>
        <time>2022-05-01T09:12:48Z</time>
      </trkpt>
      <trkpt lat="45.03228" lon="3.59445">
        <ele>632.2</ele>
        <time>2022-05-01T09:13:00Z</time>
      </trkpt>
      <trkpt lat="45.03225" lon="3.59442">
        <ele>633.17</ele>
        <time>2022-05-01T09:13:11Z</time>
      </trkpt>
      <trkpt lat="45.03225" lon="3.59442">
        <ele>633.17</ele>
        <time>2022-05-01T09:13:30Z</time>
      </trkpt>
      <trkpt lat="45.03224" lon="3.59443">
        <ele>632.68</ele>
        <time>2022-05-01T09:13:42Z</time>
      </trkpt>
      <trkpt lat="45.03224" lon="3.59443">
        <ele>632.2</ele>
        <time>2022-05-01T09:14:08Z</time>
      </trkpt>
      <trkpt lat="45.03221" lon="3.59444">
        <ele>632.2</ele>
        <time>2022-05-01T09:14:17Z</time>
      </trkpt>
      <trkpt lat="45.03218" lon="3.59443">
        <ele>632.68</ele>
        <time>2022-05-01T09:14:30Z</time>
      </trkpt>
      <trkpt lat="45.03219" lon="3.59443">
        <ele>633.17</ele>
        <time>2022-05-01T09:14:44Z</time>
      </trkpt>
      <trkpt lat="45.03218" lon="3.59443">
        <ele>632.68</ele>
        <time>2022-05-01T09:15:01Z</time>
      </trkpt>
      <trkpt lat="45.03218" lon="3.59443">
        <ele>632.68</ele>
        <time>2022-05-01T09:15:16Z</time>
      </trkpt>
      <trkpt lat="45.0322" lon="3.59442">
        <ele>632.68</ele>
        <time>2022-05-01T09:15:34Z</time>
      </trkpt>
      <trkpt lat="45.0322" lon="3.59442">
        <ele>633.17</ele>
        <time>2022-05-01T09:15:59Z</time>
      </trkpt>
      <trkpt lat="45.0322" lon="3.59442">
        <ele>632.68</ele>
        <time>2022-05-01T09:16:25Z</time>
      </trkpt>
      <trkpt lat="45.0322" lon="3.59442">
        <ele>632.2</ele>
        <time>2022-05-01T09:16:48Z</time>
      </trkpt>
      <trkpt lat="45.0322" lon="3.59445">
        <ele>632.68</ele>
        <time>2022-05-01T09:17:06Z</time>
      </trkpt>
      <trkpt lat="45.0322" lon="3.59445">
        <ele>631.72</ele>
        <time>2022-05-01T09:17:27Z</time>
      </trkpt>
      <trkpt lat="45.03215" lon="3.59444">
        <ele>632.2</ele>
        <time>2022-05-01T09:17:44Z</time>
      </trkpt>
      <trkpt lat="45.03204" lon="3.59444">
        <ele>634.61</ele>
        <time>2022-05-01T09:17:57Z</time>
      </trkpt>
      <trkpt lat="45.032" lon="3.59444">
        <ele>635.57</ele>
        <time>2022-05-01T09:18:01Z</time>
      </trkpt>
      <trkpt lat="45.03198" lon="3.59444">
        <ele>636.05</ele>
        <time>2022-05-01T09:18:03Z</time>
      </trkpt>
      <trkpt lat="45.03194" lon="3.59443">
        <ele>637.01</ele>
        <time>2022-05-01T09:18:07Z</time>
      </trkpt>
      <trkpt lat="45.03191" lon="3.59451">
        <ele>638.45</ele>
        <time>2022-05-01T09:18:16Z</time>
      </trkpt>
      <trkpt lat="45.03194" lon="3.59456">
        <ele>638.93</ele>
        <time>2022-05-01T09:18:20Z</time>
      </trkpt>
      <trkpt lat="45.03204" lon="3.59465">
        <ele>640.38</ele>
        <time>2022-05-01T09:18:33Z</time>
      </trkpt>
      <trkpt lat="45.03207" lon="3.5947">
        <ele>641.82</ele>
        <time>2022-05-01T09:18:39Z</time>
      </trkpt>
      <trkpt lat="45.03215" lon="3.59484">
        <ele>644.7</ele>
        <time>2022-05-01T09:18:54Z</time>
      </trkpt>
      <trkpt lat="45.0322" lon="3.59491">
        <ele>647.1</ele>
        <time>2022-05-01T09:19:01Z</time>
      </trkpt>
      <trkpt lat="45.03232" lon="3.59505">
        <ele>650.47</ele>
        <time>2022-05-01T09:19:17Z</time>
      </trkpt>
      <trkpt lat="45.03233" lon="3.59506">
        <ele>650.47</ele>
        <time>2022-05-01T09:19:18Z</time>
      </trkpt>
      <trkpt lat="45.03235" lon="3.59507">
        <ele>650.47</ele>
        <time>2022-05-01T09:19:20Z</time>
      </trkpt>
      <trkpt lat="45.03236" lon="3.59513">
        <ele>650.95</ele>
        <time>2022-05-01T09:19:24Z</time>
      </trkpt>
      <trkpt lat="45.03234" lon="3.59519">
        <ele>651.43</ele>
        <time>2022-05-01T09:19:28Z</time>
      </trkpt>
      <trkpt lat="45.03232" lon="3.59524">
        <ele>651.91</ele>
        <time>2022-05-01T09:19:33Z</time>
      </trkpt>
      <trkpt lat="45.0323" lon="3.59528">
        <ele>652.87</ele>
        <time>2022-05-01T09:19:37Z</time>
      </trkpt>
      <trkpt lat="45.03229" lon="3.59531">
        <ele>653.35</ele>
        <time>2022-05-01T09:19:39Z</time>
      </trkpt>
      <trkpt lat="45.0323" lon="3.59534">
        <ele>653.35</ele>
        <time>2022-05-01T09:19:41Z</time>
      </trkpt>
      <trkpt lat="45.03234" lon="3.59547">
        <ele>655.76</ele>
        <time>2022-05-01T09:19:52Z</time>
      </trkpt>
      <trkpt lat="45.0324" lon="3.59554">
        <ele>657.68</ele>
        <time>2022-05-01T09:20:03Z</time>
      </trkpt>
      <trkpt lat="45.03241" lon="3.59556">
        <ele>658.16</ele>
        <time>2022-05-01T09:20:05Z</time>
      </trkpt>
      <trkpt lat="45.03244" lon="3.5956">
        <ele>658.64</ele>
        <time>2022-05-01T09:20:09Z</time>
      </trkpt>
      <trkpt lat="45.03259" lon="3.5957">
        <ele>659.6</ele>
        <time>2022-05-01T09:20:24Z</time>
      </trkpt>
      <trkpt lat="45.03266" lon="3.5957">
        <ele>660.08</ele>
        <time>2022-05-01T09:20:36Z</time>
      </trkpt>
      <trkpt lat="45.03268" lon="3.5957">
        <ele>660.56</ele>
        <time>2022-05-01T09:20:48Z</time>
      </trkpt>
      <trkpt lat="45.03273" lon="3.59575">
        <ele>661.52</ele>
        <time>2022-05-01T09:21:03Z</time>
      </trkpt>
      <trkpt lat="45.03286" lon="3.59582">
        <ele>662.01</ele>
        <time>2022-05-01T09:21:16Z</time>
      </trkpt>
      <trkpt lat="45.03297" lon="3.59585">
        <ele>663.45</ele>
        <time>2022-05-01T09:21:25Z</time>
      </trkpt>
      <trkpt lat="45.033" lon="3.59585">
        <ele>663.93</ele>
        <time>2022-05-01T09:21:28Z</time>
      </trkpt>
      <trkpt lat="45.03314" lon="3.59584">
        <ele>665.85</ele>
        <time>2022-05-01T09:21:42Z</time>
      </trkpt>
      <trkpt lat="45.0333" lon="3.59575">
        <ele>666.33</ele>
        <time>2022-05-01T09:21:57Z</time>
      </trkpt>
      <trkpt lat="45.03343" lon="3.59566">
        <ele>667.77</ele>
        <time>2022-05-01T09:22:10Z</time>
      </trkpt>
      <trkpt lat="45.03359" lon="3.59555">
        <ele>669.7</ele>
        <time>2022-05-01T09:22:25Z</time>
      </trkpt>
      <trkpt lat="45.03378" lon="3.59543">
        <ele>670.66</ele>
        <time>2022-05-01T09:22:42Z</time>
      </trkpt>
      <trkpt lat="45.03384" lon="3.5954">
        <ele>671.62</ele>
        <time>2022-05-01T09:22:48Z</time>
      </trkpt>
      <trkpt lat="45.03391" lon="3.59536">
        <ele>673.06</ele>
        <time>2022-05-01T09:22:54Z</time>
      </trkpt>
      <trkpt lat="45.03392" lon="3.59534">
        <ele>673.54</ele>
        <time>2022-05-01T09:22:56Z</time>
      </trkpt>
      <trkpt lat="45.0341" lon="3.59524">
        <ele>674.98</ele>
        <time>2022-05-01T09:23:12Z</time>
      </trkpt>
      <trkpt lat="45.03428" lon="3.59513">
        <ele>676.42</ele>
        <time>2022-05-01T09:23:29Z</time>
      </trkpt>
      <trkpt lat="45.03436" lon="3.59507">
        <ele>676.42</ele>
        <time>2022-05-01T09:23:37Z</time>
      </trkpt>
      <trkpt lat="45.03449" lon="3.59494">
        <ele>677.39</ele>
        <time>2022-05-01T09:23:52Z</time>
      </trkpt>
      <trkpt lat="45.03466" lon="3.59472">
        <ele>677.39</ele>
        <time>2022-05-01T09:24:11Z</time>
      </trkpt>
      <trkpt lat="45.03481" lon="3.59453">
        <ele>678.83</ele>
        <time>2022-05-01T09:24:28Z</time>
      </trkpt>
      <trkpt lat="45.03494" lon="3.59442">
        <ele>679.79</ele>
        <time>2022-05-01T09:24:41Z</time>
      </trkpt>
      <trkpt lat="45.03516" lon="3.59425">
        <ele>681.23</ele>
        <time>2022-05-01T09:25:01Z</time>
      </trkpt>
      <trkpt lat="45.03535" lon="3.59411">
        <ele>684.6</ele>
        <time>2022-05-01T09:25:17Z</time>
      </trkpt>
      <trkpt lat="45.03558" lon="3.59408">
        <ele>686.04</ele>
        <time>2022-05-01T09:25:35Z</time>
      </trkpt>
      <trkpt lat="45.03571" lon="3.59432">
        <ele>688.44</ele>
        <time>2022-05-01T09:25:52Z</time>
      </trkpt>
      <trkpt lat="45.03575" lon="3.59469">
        <ele>689.4</ele>
        <time>2022-05-01T09:26:12Z</time>
      </trkpt>
      <trkpt lat="45.03575" lon="3.59476">
        <ele>689.88</ele>
        <time>2022-05-01T09:26:16Z</time>
      </trkpt>
      <trkpt lat="45.03575" lon="3.59486">
        <ele>690.36</ele>
        <time>2022-05-01T09:26:21Z</time>
      </trkpt>
      <trkpt lat="45.03576" lon="3.5952">
        <ele>691.33</ele>
        <time>2022-05-01T09:26:40Z</time>
      </trkpt>
      <trkpt lat="45.03577" lon="3.59549">
        <ele>692.77</ele>
        <time>2022-05-01T09:26:56Z</time>
      </trkpt>
      <trkpt lat="45.03579" lon="3.59581">
        <ele>694.69</ele>
        <time>2022-05-01T09:27:15Z</time>
      </trkpt>
      <trkpt lat="45.03591" lon="3.5961">
        <ele>695.65</ele>
        <time>2022-05-01T09:27:34Z</time>
      </trkpt>
      <trkpt lat="45.03596" lon="3.59618">
        <ele>696.61</ele>
        <time>2022-05-01T09:27:40Z</time>
      </trkpt>
      <trkpt lat="45.036" lon="3.59622">
        <ele>697.09</ele>
        <time>2022-05-01T09:27:44Z</time>
      </trkpt>
      <trkpt lat="45.03609" lon="3.59628">
        <ele>698.05</ele>
        <time>2022-05-01T09:27:52Z</time>
      </trkpt>
      <trkpt lat="45.03617" lon="3.59631">
        <ele>698.53</ele>
        <time>2022-05-01T09:27:59Z</time>
      </trkpt>
      <trkpt lat="45.03639" lon="3.59637">
        <ele>699.98</ele>
        <time>2022-05-01T09:28:17Z</time>
      </trkpt>
      <trkpt lat="45.03643" lon="3.59638">
        <ele>699.98</ele>
        <time>2022-05-01T09:28:20Z</time>
      </trkpt>
      <trkpt lat="45.03655" lon="3.59643">
        <ele>700.46</ele>
        <time>2022-05-01T09:28:32Z</time>
      </trkpt>
      <trkpt lat="45.03674" lon="3.59656">
        <ele>702.38</ele>
        <time>2022-05-01T09:28:49Z</time>
      </trkpt>
      <trkpt lat="45.03694" lon="3.59678">
        <ele>704.78</ele>
        <time>2022-05-01T09:29:08Z</time>
      </trkpt>
      <trkpt lat="45.03712" lon="3.59703">
        <ele>706.71</ele>
        <time>2022-05-01T09:29:28Z</time>
      </trkpt>
      <trkpt lat="45.03724" lon="3.5972">
        <ele>708.15</ele>
        <time>2022-05-01T09:29:43Z</time>
      </trkpt>
      <trkpt lat="45.03741" lon="3.59748">
        <ele>710.07</ele>
        <time>2022-05-01T09:30:03Z</time>
      </trkpt>
      <trkpt lat="45.03748" lon="3.59761">
        <ele>711.03</ele>
        <time>2022-05-01T09:30:12Z</time>
      </trkpt>
      <trkpt lat="45.03755" lon="3.59781">
        <ele>711.99</ele>
        <time>2022-05-01T09:30:26Z</time>
      </trkpt>
      <trkpt lat="45.0376" lon="3.59814">
        <ele>713.92</ele>
        <time>2022-05-01T09:30:45Z</time>
      </trkpt>
      <trkpt lat="45.0376" lon="3.59825">
        <ele>714.88</ele>
        <time>2022-05-01T09:30:51Z</time>
      </trkpt>
      <trkpt lat="45.03759" lon="3.59839">
        <ele>715.84</ele>
        <time>2022-05-01T09:30:59Z</time>
      </trkpt>
      <trkpt lat="45.03754" lon="3.59872">
        <ele>718.24</ele>
        <time>2022-05-01T09:31:18Z</time>
      </trkpt>
      <trkpt lat="45.0375" lon="3.59904">
        <ele>720.16</ele>
        <time>2022-05-01T09:31:37Z</time>
      </trkpt>
      <trkpt lat="45.03741" lon="3.59936">
        <ele>721.61</ele>
        <time>2022-05-01T09:31:56Z</time>
      </trkpt>
      <trkpt lat="45.03726" lon="3.5996">
        <ele>722.57</ele>
        <time>2022-05-01T09:32:16Z</time>
      </trkpt>
      <trkpt lat="45.03719" lon="3.59971">
        <ele>722.57</ele>
        <time>2022-05-01T09:32:25Z</time>
      </trkpt>
      <trkpt lat="45.03705" lon="3.60007">
        <ele>724.49</ele>
        <time>2022-05-01T09:32:47Z</time>
      </trkpt>
      <trkpt lat="45.03701" lon="3.6004">
        <ele>726.41</ele>
        <time>2022-05-01T09:33:05Z</time>
      </trkpt>
      <trkpt lat="45.03695" lon="3.60081">
        <ele>728.82</ele>
        <time>2022-05-01T09:33:26Z</time>
      </trkpt>
      <trkpt lat="45.03694" lon="3.6012">
        <ele>730.74</ele>
        <time>2022-05-01T09:33:47Z</time>
      </trkpt>
      <trkpt lat="45.03695" lon="3.60154">
        <ele>733.14</ele>
        <time>2022-05-01T09:34:05Z</time>
      </trkpt>
      <trkpt lat="45.03696" lon="3.60174">
        <ele>734.1</ele>
        <time>2022-05-01T09:34:16Z</time>
      </trkpt>
      <trkpt lat="45.03697" lon="3.60207">
        <ele>736.03</ele>
        <time>2022-05-01T09:34:35Z</time>
      </trkpt>
      <trkpt lat="45.037" lon="3.6024">
        <ele>737.95</ele>
        <time>2022-05-01T09:34:54Z</time>
      </trkpt>
      <trkpt lat="45.03702" lon="3.60258">
        <ele>739.39</ele>
        <time>2022-05-01T09:35:06Z</time>
      </trkpt>
      <trkpt lat="45.03702" lon="3.60266">
        <ele>739.87</ele>
        <time>2022-05-01T09:35:11Z</time>
      </trkpt>
      <trkpt lat="45.03706" lon="3.60296">
        <ele>740.83</ele>
        <time>2022-05-01T09:35:29Z</time>
      </trkpt>
      <trkpt lat="45.03709" lon="3.60326">
        <ele>741.79</ele>
        <time>2022-05-01T09:35:46Z</time>
      </trkpt>
      <trkpt lat="45.03712" lon="3.60356">
        <ele>742.76</ele>
        <time>2022-05-01T09:36:04Z</time>
      </trkpt>
      <trkpt lat="45.03713" lon="3.60389">
        <ele>744.2</ele>
        <time>2022-05-01T09:36:23Z</time>
      </trkpt>
      <trkpt lat="45.03715" lon="3.60419">
        <ele>746.6</ele>
        <time>2022-05-01T09:36:40Z</time>
      </trkpt>
      <trkpt lat="45.03715" lon="3.60449">
        <ele>748.04</ele>
        <time>2022-05-01T09:36:57Z</time>
      </trkpt>
      <trkpt lat="45.03713" lon="3.60477">
        <ele>749.97</ele>
        <time>2022-05-01T09:37:14Z</time>
      </trkpt>
      <trkpt lat="45.03709" lon="3.60511">
        <ele>751.89</ele>
        <time>2022-05-01T09:37:33Z</time>
      </trkpt>
      <trkpt lat="45.03705" lon="3.60533">
        <ele>753.33</ele>
        <time>2022-05-01T09:37:46Z</time>
      </trkpt>
      <trkpt lat="45.03705" lon="3.60553">
        <ele>754.77</ele>
        <time>2022-05-01T09:38:01Z</time>
      </trkpt>
      <trkpt lat="45.03704" lon="3.60557">
        <ele>754.29</ele>
        <time>2022-05-01T09:38:15Z</time>
      </trkpt>
      <trkpt lat="45.03705" lon="3.60566">
        <ele>755.25</ele>
        <time>2022-05-01T09:38:26Z</time>
      </trkpt>
      <trkpt lat="45.037" lon="3.60571">
        <ele>755.73</ele>
        <time>2022-05-01T09:38:37Z</time>
      </trkpt>
      <trkpt lat="45.03699" lon="3.60574">
        <ele>755.73</ele>
        <time>2022-05-01T09:38:39Z</time>
      </trkpt>
      <trkpt lat="45.03696" lon="3.60602">
        <ele>757.18</ele>
        <time>2022-05-01T09:38:58Z</time>
      </trkpt>
      <trkpt lat="45.03694" lon="3.60621">
        <ele>758.14</ele>
        <time>2022-05-01T09:39:12Z</time>
      </trkpt>
      <trkpt lat="45.03692" lon="3.60638">
        <ele>758.62</ele>
        <time>2022-05-01T09:39:26Z</time>
      </trkpt>
      <trkpt lat="45.03689" lon="3.60654">
        <ele>759.58</ele>
        <time>2022-05-01T09:39:37Z</time>
      </trkpt>
      <trkpt lat="45.03689" lon="3.60659">
        <ele>759.58</ele>
        <time>2022-05-01T09:39:49Z</time>
      </trkpt>
      <trkpt lat="45.03688" lon="3.60664">
        <ele>759.58</ele>
        <time>2022-05-01T09:40:07Z</time>
      </trkpt>
      <trkpt lat="45.03684" lon="3.60693">
        <ele>761.02</ele>
        <time>2022-05-01T09:40:23Z</time>
      </trkpt>
      <trkpt lat="45.03684" lon="3.607">
        <ele>761.5</ele>
        <time>2022-05-01T09:40:27Z</time>
      </trkpt>
      <trkpt lat="45.0368" lon="3.60712">
        <ele>762.46</ele>
        <time>2022-05-01T09:40:37Z</time>
      </trkpt>
      <trkpt lat="45.03671" lon="3.60749">
        <ele>763.9</ele>
        <time>2022-05-01T09:40:56Z</time>
      </trkpt>
      <trkpt lat="45.03662" lon="3.60788">
        <ele>765.35</ele>
        <time>2022-05-01T09:41:16Z</time>
      </trkpt>
      <trkpt lat="45.03653" lon="3.6083">
        <ele>767.27</ele>
        <time>2022-05-01T09:41:37Z</time>
      </trkpt>
      <trkpt lat="45.03661" lon="3.60858">
        <ele>768.71</ele>
        <time>2022-05-01T09:41:51Z</time>
      </trkpt>
      <trkpt lat="45.03667" lon="3.60886">
        <ele>768.71</ele>
        <time>2022-05-01T09:42:06Z</time>
      </trkpt>
      <trkpt lat="45.0367" lon="3.60898">
        <ele>769.19</ele>
        <time>2022-05-01T09:42:13Z</time>
      </trkpt>
      <trkpt lat="45.03679" lon="3.60932">
        <ele>770.15</ele>
        <time>2022-05-01T09:42:32Z</time>
      </trkpt>
      <trkpt lat="45.03685" lon="3.60961">
        <ele>770.15</ele>
        <time>2022-05-01T09:42:48Z</time>
      </trkpt>
      <trkpt lat="45.03693" lon="3.60994">
        <ele>771.6</ele>
        <time>2022-05-01T09:43:07Z</time>
      </trkpt>
      <trkpt lat="45.03698" lon="3.61012">
        <ele>772.56</ele>
        <time>2022-05-01T09:43:17Z</time>
      </trkpt>
      <trkpt lat="45.03704" lon="3.61045">
        <ele>773.04</ele>
        <time>2022-05-01T09:43:36Z</time>
      </trkpt>
      <trkpt lat="45.0371" lon="3.61073">
        <ele>775.44</ele>
        <time>2022-05-01T09:43:53Z</time>
      </trkpt>
      <trkpt lat="45.03711" lon="3.61081">
        <ele>775.44</ele>
        <time>2022-05-01T09:43:59Z</time>
      </trkpt>
      <trkpt lat="45.03711" lon="3.61082">
        <ele>775.92</ele>
        <time>2022-05-01T09:44:02Z</time>
      </trkpt>
      <trkpt lat="45.03714" lon="3.61114">
        <ele>777.36</ele>
        <time>2022-05-01T09:44:19Z</time>
      </trkpt>
      <trkpt lat="45.03717" lon="3.61125">
        <ele>778.32</ele>
        <time>2022-05-01T09:44:25Z</time>
      </trkpt>
      <trkpt lat="45.03719" lon="3.61131">
        <ele>779.29</ele>
        <time>2022-05-01T09:44:29Z</time>
      </trkpt>
      <trkpt lat="45.03724" lon="3.61138">
        <ele>780.25</ele>
        <time>2022-05-01T09:44:35Z</time>
      </trkpt>
      <trkpt lat="45.03731" lon="3.61143">
        <ele>781.21</ele>
        <time>2022-05-01T09:44:41Z</time>
      </trkpt>
      <trkpt lat="45.03741" lon="3.61156">
        <ele>783.61</ele>
        <time>2022-05-01T09:44:57Z</time>
      </trkpt>
      <trkpt lat="45.03741" lon="3.61157">
        <ele>783.61</ele>
        <time>2022-05-01T09:44:58Z</time>
      </trkpt>
      <trkpt lat="45.03734" lon="3.6117">
        <ele>787.94</ele>
        <time>2022-05-01T09:45:13Z</time>
      </trkpt>
      <trkpt lat="45.03731" lon="3.61176">
        <ele>787.94</ele>
        <time>2022-05-01T09:45:18Z</time>
      </trkpt>
      <trkpt lat="45.03735" lon="3.61186">
        <ele>789.38</ele>
        <time>2022-05-01T09:45:32Z</time>
      </trkpt>
      <trkpt lat="45.03746" lon="3.61189">
        <ele>790.82</ele>
        <time>2022-05-01T09:45:47Z</time>
      </trkpt>
      <trkpt lat="45.0375" lon="3.61187">
        <ele>790.34</ele>
        <time>2022-05-01T09:45:53Z</time>
      </trkpt>
      <trkpt lat="45.03751" lon="3.61185">
        <ele>791.3</ele>
        <time>2022-05-01T09:46:07Z</time>
      </trkpt>
      <trkpt lat="45.03751" lon="3.61185">
        <ele>790.34</ele>
        <time>2022-05-01T09:46:36Z</time>
      </trkpt>
      <trkpt lat="45.03751" lon="3.61186">
        <ele>790.82</ele>
        <time>2022-05-01T09:46:49Z</time>
      </trkpt>
      <trkpt lat="45.03751" lon="3.61186">
        <ele>790.34</ele>
        <time>2022-05-01T09:47:02Z</time>
      </trkpt>
      <trkpt lat="45.03753" lon="3.61186">
        <ele>790.34</ele>
        <time>2022-05-01T09:47:12Z</time>
      </trkpt>
      <trkpt lat="45.03753" lon="3.61186">
        <ele>790.34</ele>
        <time>2022-05-01T09:47:28Z</time>
      </trkpt>
      <trkpt lat="45.03753" lon="3.61186">
        <ele>790.34</ele>
        <time>2022-05-01T09:47:50Z</time>
      </trkpt>
      <trkpt lat="45.03753" lon="3.61187">
        <ele>790.34</ele>
        <time>2022-05-01T09:48:16Z</time>
      </trkpt>
      <trkpt lat="45.03754" lon="3.61187">
        <ele>789.86</ele>
        <time>2022-05-01T09:48:41Z</time>
      </trkpt>
      <trkpt lat="45.03755" lon="3.61187">
        <ele>790.34</ele>
        <time>2022-05-01T09:48:55Z</time>
      </trkpt>
      <trkpt lat="45.03756" lon="3.61187">
        <ele>790.82</ele>
        <time>2022-05-01T09:49:06Z</time>
      </trkpt>
      <trkpt lat="45.03756" lon="3.61187">
        <ele>791.3</ele>
        <time>2022-05-01T09:49:19Z</time>
      </trkpt>
      <trkpt lat="45.03756" lon="3.61188">
        <ele>791.3</ele>
        <time>2022-05-01T09:49:35Z</time>
      </trkpt>
      <trkpt lat="45.03756" lon="3.61188">
        <ele>791.78</ele>
        <time>2022-05-01T09:49:54Z</time>
      </trkpt>
      <trkpt lat="45.03756" lon="3.61188">
        <ele>791.78</ele>
        <time>2022-05-01T09:50:13Z</time>
      </trkpt>
      <trkpt lat="45.03757" lon="3.6119">
        <ele>791.78</ele>
        <time>2022-05-01T09:50:27Z</time>
      </trkpt>
      <trkpt lat="45.03755" lon="3.6119">
        <ele>791.78</ele>
        <time>2022-05-01T09:50:43Z</time>
      </trkpt>
      <trkpt lat="45.03755" lon="3.6119">
        <ele>791.3</ele>
        <time>2022-05-01T09:51:03Z</time>
      </trkpt>
      <trkpt lat="45.03755" lon="3.61189">
        <ele>791.3</ele>
        <time>2022-05-01T09:51:21Z</time>
      </trkpt>
      <trkpt lat="45.03755" lon="3.61192">
        <ele>791.3</ele>
        <time>2022-05-01T09:51:34Z</time>
      </trkpt>
      <trkpt lat="45.03755" lon="3.61192">
        <ele>791.78</ele>
        <time>2022-05-01T09:51:52Z</time>
      </trkpt>
      <trkpt lat="45.03755" lon="3.61192">
        <ele>790.82</ele>
        <time>2022-05-01T09:52:11Z</time>
      </trkpt>
      <trkpt lat="45.03755" lon="3.61193">
        <ele>790.82</ele>
        <time>2022-05-01T09:52:32Z</time>
      </trkpt>
      <trkpt lat="45.03755" lon="3.61193">
        <ele>790.82</ele>
        <time>2022-05-01T09:52:50Z</time>
      </trkpt>
      <trkpt lat="45.03755" lon="3.61193">
        <ele>791.78</ele>
        <time>2022-05-01T09:53:09Z</time>
      </trkpt>
      <trkpt lat="45.03755" lon="3.61193">
        <ele>791.3</ele>
        <time>2022-05-01T09:53:26Z</time>
      </trkpt>
      <trkpt lat="45.03755" lon="3.6119">
        <ele>790.82</ele>
        <time>2022-05-01T09:53:44Z</time>
      </trkpt>
      <trkpt lat="45.03756" lon="3.6119">
        <ele>791.3</ele>
        <time>2022-05-01T09:53:57Z</time>
      </trkpt>
      <trkpt lat="45.03755" lon="3.6119">
        <ele>791.78</ele>
        <time>2022-05-01T09:54:14Z</time>
      </trkpt>
      <trkpt lat="45.03756" lon="3.6119">
        <ele>791.78</ele>
        <time>2022-05-01T09:54:31Z</time>
      </trkpt>
      <trkpt lat="45.03756" lon="3.6119">
        <ele>791.78</ele>
        <time>2022-05-01T09:54:44Z</time>
      </trkpt>
      <trkpt lat="45.03756" lon="3.6119">
        <ele>791.78</ele>
        <time>2022-05-01T09:54:57Z</time>
      </trkpt>
      <trkpt lat="45.03756" lon="3.6119">
        <ele>791.78</ele>
        <time>2022-05-01T09:55:12Z</time>
      </trkpt>
      <trkpt lat="45.03756" lon="3.6119">
        <ele>791.78</ele>
        <time>2022-05-01T09:55:28Z</time>
      </trkpt>
      <trkpt lat="45.03756" lon="3.61189">
        <ele>792.26</ele>
        <time>2022-05-01T09:55:43Z</time>
      </trkpt>
      <trkpt lat="45.03754" lon="3.61189">
        <ele>791.78</ele>
        <time>2022-05-01T09:55:54Z</time>
      </trkpt>
      <trkpt lat="45.03755" lon="3.6119">
        <ele>792.26</ele>
        <time>2022-05-01T09:56:07Z</time>
      </trkpt>
      <trkpt lat="45.03757" lon="3.61193">
        <ele>792.74</ele>
        <time>2022-05-01T09:56:20Z</time>
      </trkpt>
      <trkpt lat="45.03757" lon="3.61192">
        <ele>791.78</ele>
        <time>2022-05-01T09:56:42Z</time>
      </trkpt>
      <trkpt lat="45.03757" lon="3.61193">
        <ele>791.78</ele>
        <time>2022-05-01T09:57:03Z</time>
      </trkpt>
      <trkpt lat="45.03757" lon="3.61193">
        <ele>791.78</ele>
        <time>2022-05-01T09:57:33Z</time>
      </trkpt>
      <trkpt lat="45.03757" lon="3.61193">
        <ele>791.78</ele>
        <time>2022-05-01T09:58:00Z</time>
      </trkpt>
      <trkpt lat="45.03757" lon="3.61193">
        <ele>791.78</ele>
        <time>2022-05-01T09:58:27Z</time>
      </trkpt>
      <trkpt lat="45.03757" lon="3.61194">
        <ele>791.78</ele>
        <time>2022-05-01T09:58:58Z</time>
      </trkpt>
      <trkpt lat="45.03757" lon="3.61194">
        <ele>792.26</ele>
        <time>2022-05-01T09:59:12Z</time>
      </trkpt>
      <trkpt lat="45.03757" lon="3.61194">
        <ele>791.78</ele>
        <time>2022-05-01T09:59:38Z</time>
      </trkpt>
      <trkpt lat="45.03757" lon="3.61194">
        <ele>791.78</ele>
        <time>2022-05-01T10:00:04Z</time>
      </trkpt>
      <trkpt lat="45.03757" lon="3.61194">
        <ele>791.3</ele>
        <time>2022-05-01T10:00:40Z</time>
      </trkpt>
      <trkpt lat="45.03758" lon="3.61193">
        <ele>791.3</ele>
        <time>2022-05-01T10:01:11Z</time>
      </trkpt>
      <trkpt lat="45.03758" lon="3.61193">
        <ele>790.82</ele>
        <time>2022-05-01T10:01:40Z</time>
      </trkpt>
      <trkpt lat="45.03757" lon="3.61194">
        <ele>790.82</ele>
        <time>2022-05-01T10:02:11Z</time>
      </trkpt>
      <trkpt lat="45.03757" lon="3.61194">
        <ele>790.82</ele>
        <time>2022-05-01T10:02:39Z</time>
      </trkpt>
      <trkpt lat="45.03757" lon="3.61194">
        <ele>790.82</ele>
        <time>2022-05-01T10:03:09Z</time>
      </trkpt>
      <trkpt lat="45.03757" lon="3.61193">
        <ele>790.82</ele>
        <time>2022-05-01T10:03:46Z</time>
      </trkpt>
      <trkpt lat="45.03757" lon="3.61194">
        <ele>790.82</ele>
        <time>2022-05-01T10:04:21Z</time>
      </trkpt>
      <trkpt lat="45.03757" lon="3.61194">
        <ele>791.3</ele>
        <time>2022-05-01T10:04:58Z</time>
      </trkpt>
      <trkpt lat="45.03758" lon="3.61194">
        <ele>791.3</ele>
        <time>2022-05-01T10:05:31Z</time>
      </trkpt>
      <trkpt lat="45.03757" lon="3.61194">
        <ele>791.3</ele>
        <time>2022-05-01T10:05:59Z</time>
      </trkpt>
      <trkpt lat="45.03758" lon="3.61194">
        <ele>790.34</ele>
        <time>2022-05-01T10:06:32Z</time>
      </trkpt>
      <trkpt lat="45.03757" lon="3.61193">
        <ele>790.82</ele>
        <time>2022-05-01T10:07:00Z</time>
      </trkpt>
      <trkpt lat="45.03757" lon="3.61192">
        <ele>789.38</ele>
        <time>2022-05-01T10:07:39Z</time>
      </trkpt>
      <trkpt lat="45.03756" lon="3.61194">
        <ele>790.82</ele>
        <time>2022-05-01T10:08:06Z</time>
      </trkpt>
      <trkpt lat="45.03756" lon="3.61193">
        <ele>790.82</ele>
        <time>2022-05-01T10:08:36Z</time>
      </trkpt>
      <trkpt lat="45.03757" lon="3.61193">
        <ele>791.3</ele>
        <time>2022-05-01T10:09:18Z</time>
      </trkpt>
      <trkpt lat="45.03757" lon="3.61193">
        <ele>791.3</ele>
        <time>2022-05-01T10:09:49Z</time>
      </trkpt>
      <trkpt lat="45.03758" lon="3.61193">
        <ele>790.82</ele>
        <time>2022-05-01T10:09:59Z</time>
      </trkpt>
      <trkpt lat="45.03758" lon="3.61193">
        <ele>790.82</ele>
        <time>2022-05-01T10:10:37Z</time>
      </trkpt>
      <trkpt lat="45.03757" lon="3.61194">
        <ele>791.3</ele>
        <time>2022-05-01T10:10:56Z</time>
      </trkpt>
      <trkpt lat="45.03755" lon="3.61194">
        <ele>791.3</ele>
        <time>2022-05-01T10:11:11Z</time>
      </trkpt>
      <trkpt lat="45.03755" lon="3.61193">
        <ele>791.78</ele>
        <time>2022-05-01T10:11:26Z</time>
      </trkpt>
      <trkpt lat="45.03755" lon="3.61193">
        <ele>791.3</ele>
        <time>2022-05-01T10:11:42Z</time>
      </trkpt>
      <trkpt lat="45.03755" lon="3.61193">
        <ele>790.82</ele>
        <time>2022-05-01T10:11:56Z</time>
      </trkpt>
      <trkpt lat="45.03755" lon="3.61194">
        <ele>790.82</ele>
        <time>2022-05-01T10:12:15Z</time>
      </trkpt>
      <trkpt lat="45.03754" lon="3.61194">
        <ele>790.82</ele>
        <time>2022-05-01T10:12:29Z</time>
      </trkpt>
      <trkpt lat="45.03751" lon="3.61196">
        <ele>790.82</ele>
        <time>2022-05-01T10:12:42Z</time>
      </trkpt>
      <trkpt lat="45.0375" lon="3.61197">
        <ele>790.82</ele>
        <time>2022-05-01T10:12:57Z</time>
      </trkpt>
      <trkpt lat="45.0375" lon="3.61198">
        <ele>790.34</ele>
        <time>2022-05-01T10:13:12Z</time>
      </trkpt>
      <trkpt lat="45.03751" lon="3.61198">
        <ele>790.34</ele>
        <time>2022-05-01T10:13:28Z</time>
      </trkpt>
      <trkpt lat="45.03752" lon="3.61198">
        <ele>790.82</ele>
        <time>2022-05-01T10:13:43Z</time>
      </trkpt>
      <trkpt lat="45.03755" lon="3.61202">
        <ele>791.78</ele>
        <time>2022-05-01T10:13:56Z</time>
      </trkpt>
      <trkpt lat="45.03757" lon="3.61204">
        <ele>792.26</ele>
        <time>2022-05-01T10:14:00Z</time>
      </trkpt>
      <trkpt lat="45.03766" lon="3.61217">
        <ele>794.67</ele>
        <time>2022-05-01T10:14:13Z</time>
      </trkpt>
      <trkpt lat="45.03772" lon="3.61224">
        <ele>796.11</ele>
        <time>2022-05-01T10:14:21Z</time>
      </trkpt>
      <trkpt lat="45.03784" lon="3.61232">
        <ele>796.59</ele>
        <time>2022-05-01T10:14:35Z</time>
      </trkpt>
      <trkpt lat="45.03798" lon="3.61236">
        <ele>794.19</ele>
        <time>2022-05-01T10:14:48Z</time>
      </trkpt>
      <trkpt lat="45.0381" lon="3.61235">
        <ele>793.22</ele>
        <time>2022-05-01T10:14:59Z</time>
      </trkpt>
      <trkpt lat="45.0382" lon="3.61231">
        <ele>793.71</ele>
        <time>2022-05-01T10:15:07Z</time>
      </trkpt>
      <trkpt lat="45.03826" lon="3.61223">
        <ele>793.71</ele>
        <time>2022-05-01T10:15:13Z</time>
      </trkpt>
      <trkpt lat="45.03833" lon="3.61208">
        <ele>792.74</ele>
        <time>2022-05-01T10:15:24Z</time>
      </trkpt>
      <trkpt lat="45.03837" lon="3.61185">
        <ele>795.15</ele>
        <time>2022-05-01T10:15:40Z</time>
      </trkpt>
      <trkpt lat="45.03838" lon="3.61181">
        <ele>796.11</ele>
        <time>2022-05-01T10:15:43Z</time>
      </trkpt>
      <trkpt lat="45.03844" lon="3.61172">
        <ele>798.99</ele>
        <time>2022-05-01T10:15:53Z</time>
      </trkpt>
      <trkpt lat="45.03857" lon="3.6116">
        <ele>800.92</ele>
        <time>2022-05-01T10:16:08Z</time>
      </trkpt>
      <trkpt lat="45.03858" lon="3.61159">
        <ele>801.4</ele>
        <time>2022-05-01T10:16:09Z</time>
      </trkpt>
      <trkpt lat="45.03862" lon="3.6114">
        <ele>804.76</ele>
        <time>2022-05-01T10:16:25Z</time>
      </trkpt>
      <trkpt lat="45.03868" lon="3.61119">
        <ele>805.72</ele>
        <time>2022-05-01T10:16:40Z</time>
      </trkpt>
      <trkpt lat="45.03871" lon="3.61103">
        <ele>808.13</ele>
        <time>2022-05-01T10:16:52Z</time>
      </trkpt>
      <trkpt lat="45.03877" lon="3.61104">
        <ele>809.09</ele>
        <time>2022-05-01T10:17:03Z</time>
      </trkpt>
      <trkpt lat="45.03881" lon="3.61121">
        <ele>811.97</ele>
        <time>2022-05-01T10:17:17Z</time>
      </trkpt>
      <trkpt lat="45.03885" lon="3.61135">
        <ele>815.34</ele>
        <time>2022-05-01T10:17:31Z</time>
      </trkpt>
      <trkpt lat="45.0389" lon="3.6115">
        <ele>820.62</ele>
        <time>2022-05-01T10:17:45Z</time>
      </trkpt>
      <trkpt lat="45.03895" lon="3.61162">
        <ele>825.43</ele>
        <time>2022-05-01T10:17:59Z</time>
      </trkpt>
      <trkpt lat="45.03903" lon="3.61178">
        <ele>828.79</ele>
        <time>2022-05-01T10:18:14Z</time>
      </trkpt>
      <trkpt lat="45.03908" lon="3.61189">
        <ele>836</ele>
        <time>2022-05-01T10:18:26Z</time>
      </trkpt>
      <trkpt lat="45.03916" lon="3.61198">
        <ele>841.77</ele>
        <time>2022-05-01T10:18:39Z</time>
      </trkpt>
      <trkpt lat="45.03926" lon="3.612">
        <ele>845.62</ele>
        <time>2022-05-01T10:18:53Z</time>
      </trkpt>
      <trkpt lat="45.03934" lon="3.61193">
        <ele>846.58</ele>
        <time>2022-05-01T10:19:08Z</time>
      </trkpt>
      <trkpt lat="45.03936" lon="3.61184">
        <ele>843.21</ele>
        <time>2022-05-01T10:19:21Z</time>
      </trkpt>
      <trkpt lat="45.03944" lon="3.61172">
        <ele>843.21</ele>
        <time>2022-05-01T10:19:35Z</time>
      </trkpt>
      <trkpt lat="45.03956" lon="3.61169">
        <ele>847.06</ele>
        <time>2022-05-01T10:19:50Z</time>
      </trkpt>
      <trkpt lat="45.03966" lon="3.61175">
        <ele>849.46</ele>
        <time>2022-05-01T10:20:04Z</time>
      </trkpt>
      <trkpt lat="45.03969" lon="3.61176">
        <ele>849.94</ele>
        <time>2022-05-01T10:20:08Z</time>
      </trkpt>
      <trkpt lat="45.03982" lon="3.61175">
        <ele>853.31</ele>
        <time>2022-05-01T10:20:21Z</time>
      </trkpt>
      <trkpt lat="45.03996" lon="3.61175">
        <ele>857.15</ele>
        <time>2022-05-01T10:20:36Z</time>
      </trkpt>
      <trkpt lat="45.0401" lon="3.61176">
        <ele>860.52</ele>
        <time>2022-05-01T10:20:49Z</time>
      </trkpt>
      <trkpt lat="45.04016" lon="3.61178">
        <ele>863.88</ele>
        <time>2022-05-01T10:20:58Z</time>
      </trkpt>
      <trkpt lat="45.04032" lon="3.61178">
        <ele>866.29</ele>
        <time>2022-05-01T10:21:11Z</time>
      </trkpt>
      <trkpt lat="45.04051" lon="3.61178">
        <ele>866.77</ele>
        <time>2022-05-01T10:21:26Z</time>
      </trkpt>
      <trkpt lat="45.04063" lon="3.61177">
        <ele>866.77</ele>
        <time>2022-05-01T10:21:35Z</time>
      </trkpt>
      <trkpt lat="45.04083" lon="3.61178">
        <ele>873.5</ele>
        <time>2022-05-01T10:21:55Z</time>
      </trkpt>
      <trkpt lat="45.04098" lon="3.61186">
        <ele>878.78</ele>
        <time>2022-05-01T10:22:11Z</time>
      </trkpt>
      <trkpt lat="45.04111" lon="3.61183">
        <ele>883.59</ele>
        <time>2022-05-01T10:22:22Z</time>
      </trkpt>
      <trkpt lat="45.04128" lon="3.61173">
        <ele>884.55</ele>
        <time>2022-05-01T10:22:36Z</time>
      </trkpt>
      <trkpt lat="45.04143" lon="3.61171">
        <ele>885.99</ele>
        <time>2022-05-01T10:22:49Z</time>
      </trkpt>
      <trkpt lat="45.0415" lon="3.61173">
        <ele>885.51</ele>
        <time>2022-05-01T10:22:54Z</time>
      </trkpt>
      <trkpt lat="45.04165" lon="3.61167">
        <ele>886.47</ele>
        <time>2022-05-01T10:23:08Z</time>
      </trkpt>
      <trkpt lat="45.04182" lon="3.61166">
        <ele>887.43</ele>
        <time>2022-05-01T10:23:22Z</time>
      </trkpt>
      <trkpt lat="45.04196" lon="3.61168">
        <ele>890.32</ele>
        <time>2022-05-01T10:23:36Z</time>
      </trkpt>
      <trkpt lat="45.04215" lon="3.61177">
        <ele>895.12</ele>
        <time>2022-05-01T10:23:53Z</time>
      </trkpt>
      <trkpt lat="45.04222" lon="3.61194">
        <ele>900.89</ele>
        <time>2022-05-01T10:24:07Z</time>
      </trkpt>
      <trkpt lat="45.04222" lon="3.61196">
        <ele>901.85</ele>
        <time>2022-05-01T10:24:09Z</time>
      </trkpt>
      <trkpt lat="45.04231" lon="3.61221">
        <ele>908.58</ele>
        <time>2022-05-01T10:24:27Z</time>
      </trkpt>
      <trkpt lat="45.04243" lon="3.61235">
        <ele>908.58</ele>
        <time>2022-05-01T10:24:42Z</time>
      </trkpt>
      <trkpt lat="45.04251" lon="3.61243">
        <ele>908.1</ele>
        <time>2022-05-01T10:24:55Z</time>
      </trkpt>
      <trkpt lat="45.04259" lon="3.6125">
        <ele>911.95</ele>
        <time>2022-05-01T10:25:08Z</time>
      </trkpt>
      <trkpt lat="45.04263" lon="3.61254">
        <ele>914.35</ele>
        <time>2022-05-01T10:25:22Z</time>
      </trkpt>
      <trkpt lat="45.04275" lon="3.61271">
        <ele>916.75</ele>
        <time>2022-05-01T10:25:36Z</time>
      </trkpt>
      <trkpt lat="45.04277" lon="3.61276">
        <ele>917.24</ele>
        <time>2022-05-01T10:25:39Z</time>
      </trkpt>
      <trkpt lat="45.04281" lon="3.6129">
        <ele>917.24</ele>
        <time>2022-05-01T10:25:47Z</time>
      </trkpt>
      <trkpt lat="45.04281" lon="3.61294">
        <ele>917.24</ele>
        <time>2022-05-01T10:25:49Z</time>
      </trkpt>
      <trkpt lat="45.04284" lon="3.61317">
        <ele>915.79</ele>
        <time>2022-05-01T10:26:04Z</time>
      </trkpt>
      <trkpt lat="45.04284" lon="3.61319">
        <ele>915.31</ele>
        <time>2022-05-01T10:26:05Z</time>
      </trkpt>
      <trkpt lat="45.04281" lon="3.61348">
        <ele>913.87</ele>
        <time>2022-05-01T10:26:21Z</time>
      </trkpt>
      <trkpt lat="45.04277" lon="3.61371">
        <ele>916.75</ele>
        <time>2022-05-01T10:26:36Z</time>
      </trkpt>
      <trkpt lat="45.04276" lon="3.61385">
        <ele>917.24</ele>
        <time>2022-05-01T10:26:44Z</time>
      </trkpt>
      <trkpt lat="45.04276" lon="3.61394">
        <ele>918.2</ele>
        <time>2022-05-01T10:26:50Z</time>
      </trkpt>
      <trkpt lat="45.04275" lon="3.61411">
        <ele>920.6</ele>
        <time>2022-05-01T10:27:03Z</time>
      </trkpt>
      <trkpt lat="45.04275" lon="3.61428">
        <ele>923.48</ele>
        <time>2022-05-01T10:27:16Z</time>
      </trkpt>
      <trkpt lat="45.04275" lon="3.6145">
        <ele>924.93</ele>
        <time>2022-05-01T10:27:32Z</time>
      </trkpt>
      <trkpt lat="45.04278" lon="3.61462">
        <ele>926.85</ele>
        <time>2022-05-01T10:27:43Z</time>
      </trkpt>
      <trkpt lat="45.0428" lon="3.61463">
        <ele>926.85</ele>
        <time>2022-05-01T10:27:45Z</time>
      </trkpt>
      <trkpt lat="45.04293" lon="3.61457">
        <ele>927.33</ele>
        <time>2022-05-01T10:27:59Z</time>
      </trkpt>
      <trkpt lat="45.04308" lon="3.61454">
        <ele>928.29</ele>
        <time>2022-05-01T10:28:15Z</time>
      </trkpt>
      <trkpt lat="45.04315" lon="3.61459">
        <ele>929.25</ele>
        <time>2022-05-01T10:28:26Z</time>
      </trkpt>
      <trkpt lat="45.04328" lon="3.61466">
        <ele>931.17</ele>
        <time>2022-05-01T10:28:39Z</time>
      </trkpt>
      <trkpt lat="45.04347" lon="3.61466">
        <ele>933.58</ele>
        <time>2022-05-01T10:28:53Z</time>
      </trkpt>
      <trkpt lat="45.04362" lon="3.61469">
        <ele>936.46</ele>
        <time>2022-05-01T10:29:08Z</time>
      </trkpt>
      <trkpt lat="45.0438" lon="3.61473">
        <ele>941.75</ele>
        <time>2022-05-01T10:29:25Z</time>
      </trkpt>
      <trkpt lat="45.04395" lon="3.61483">
        <ele>945.59</ele>
        <time>2022-05-01T10:29:38Z</time>
      </trkpt>
      <trkpt lat="45.04397" lon="3.61485">
        <ele>946.07</ele>
        <time>2022-05-01T10:29:40Z</time>
      </trkpt>
      <trkpt lat="45.04411" lon="3.61507">
        <ele>953.28</ele>
        <time>2022-05-01T10:30:00Z</time>
      </trkpt>
      <trkpt lat="45.04413" lon="3.61521">
        <ele>956.65</ele>
        <time>2022-05-01T10:30:09Z</time>
      </trkpt>
      <trkpt lat="45.04419" lon="3.61552">
        <ele>957.61</ele>
        <time>2022-05-01T10:30:26Z</time>
      </trkpt>
      <trkpt lat="45.04426" lon="3.61576">
        <ele>959.05</ele>
        <time>2022-05-01T10:30:41Z</time>
      </trkpt>
      <trkpt lat="45.04427" lon="3.61577">
        <ele>959.05</ele>
        <time>2022-05-01T10:30:42Z</time>
      </trkpt>
      <trkpt lat="45.04431" lon="3.61582">
        <ele>958.57</ele>
        <time>2022-05-01T10:30:47Z</time>
      </trkpt>
      <trkpt lat="45.04448" lon="3.61583">
        <ele>954.73</ele>
        <time>2022-05-01T10:31:00Z</time>
      </trkpt>
      <trkpt lat="45.0447" lon="3.61585">
        <ele>949.44</ele>
        <time>2022-05-01T10:31:16Z</time>
      </trkpt>
      <trkpt lat="45.04483" lon="3.61588">
        <ele>949.44</ele>
        <time>2022-05-01T10:31:30Z</time>
      </trkpt>
      <trkpt lat="45.04494" lon="3.6159">
        <ele>949.92</ele>
        <time>2022-05-01T10:31:38Z</time>
      </trkpt>
      <trkpt lat="45.04498" lon="3.61601">
        <ele>950.4</ele>
        <time>2022-05-01T10:31:44Z</time>
      </trkpt>
      <trkpt lat="45.04496" lon="3.61631">
        <ele>950.4</ele>
        <time>2022-05-01T10:32:02Z</time>
      </trkpt>
      <trkpt lat="45.04498" lon="3.6165">
        <ele>952.32</ele>
        <time>2022-05-01T10:32:15Z</time>
      </trkpt>
      <trkpt lat="45.04498" lon="3.61678">
        <ele>952.8</ele>
        <time>2022-05-01T10:32:31Z</time>
      </trkpt>
      <trkpt lat="45.04492" lon="3.61699">
        <ele>954.25</ele>
        <time>2022-05-01T10:32:44Z</time>
      </trkpt>
      <trkpt lat="45.04489" lon="3.61722">
        <ele>955.69</ele>
        <time>2022-05-01T10:33:00Z</time>
      </trkpt>
      <trkpt lat="45.04485" lon="3.61726">
        <ele>954.73</ele>
        <time>2022-05-01T10:33:12Z</time>
      </trkpt>
      <trkpt lat="45.04484" lon="3.61728">
        <ele>953.77</ele>
        <time>2022-05-01T10:33:24Z</time>
      </trkpt>
      <trkpt lat="45.04485" lon="3.61725">
        <ele>953.28</ele>
        <time>2022-05-01T10:33:32Z</time>
      </trkpt>
      <trkpt lat="45.04485" lon="3.61725">
        <ele>952.8</ele>
        <time>2022-05-01T10:33:46Z</time>
      </trkpt>
      <trkpt lat="45.04485" lon="3.61725">
        <ele>952.32</ele>
        <time>2022-05-01T10:33:53Z</time>
      </trkpt>
      <trkpt lat="45.04485" lon="3.61726">
        <ele>951.36</ele>
        <time>2022-05-01T10:34:01Z</time>
      </trkpt>
      <trkpt lat="45.04483" lon="3.61727">
        <ele>952.32</ele>
        <time>2022-05-01T10:34:38Z</time>
      </trkpt>
      <trkpt lat="45.04483" lon="3.61727">
        <ele>952.32</ele>
        <time>2022-05-01T10:35:03Z</time>
      </trkpt>
      <trkpt lat="45.04484" lon="3.61727">
        <ele>951.36</ele>
        <time>2022-05-01T10:36:00Z</time>
      </trkpt>
      <trkpt lat="45.04485" lon="3.61727">
        <ele>951.36</ele>
        <time>2022-05-01T10:36:40Z</time>
      </trkpt>
      <trkpt lat="45.04485" lon="3.61727">
        <ele>950.88</ele>
        <time>2022-05-01T10:37:14Z</time>
      </trkpt>
      <trkpt lat="45.04484" lon="3.61728">
        <ele>951.84</ele>
        <time>2022-05-01T10:37:48Z</time>
      </trkpt>
      <trkpt lat="45.04483" lon="3.61728">
        <ele>951.84</ele>
        <time>2022-05-01T10:38:23Z</time>
      </trkpt>
      <trkpt lat="45.04484" lon="3.61729">
        <ele>951.36</ele>
        <time>2022-05-01T10:39:02Z</time>
      </trkpt>
      <trkpt lat="45.04483" lon="3.61728">
        <ele>950.4</ele>
        <time>2022-05-01T10:39:52Z</time>
      </trkpt>
      <trkpt lat="45.04483" lon="3.61728">
        <ele>950.88</ele>
        <time>2022-05-01T10:40:24Z</time>
      </trkpt>
      <trkpt lat="45.04483" lon="3.61729">
        <ele>950.88</ele>
        <time>2022-05-01T10:40:49Z</time>
      </trkpt>
      <trkpt lat="45.04482" lon="3.61729">
        <ele>951.84</ele>
        <time>2022-05-01T10:41:20Z</time>
      </trkpt>
      <trkpt lat="45.04482" lon="3.6173">
        <ele>950.88</ele>
        <time>2022-05-01T10:41:59Z</time>
      </trkpt>
      <trkpt lat="45.04483" lon="3.6173">
        <ele>950.88</ele>
        <time>2022-05-01T10:42:18Z</time>
      </trkpt>
      <trkpt lat="45.04483" lon="3.61729">
        <ele>950.88</ele>
        <time>2022-05-01T10:42:33Z</time>
      </trkpt>
      <trkpt lat="45.04484" lon="3.6173">
        <ele>951.36</ele>
        <time>2022-05-01T10:42:47Z</time>
      </trkpt>
      <trkpt lat="45.04483" lon="3.61732">
        <ele>951.36</ele>
        <time>2022-05-01T10:42:48Z</time>
      </trkpt>
      <trkpt lat="45.04483" lon="3.61742">
        <ele>951.36</ele>
        <time>2022-05-01T10:42:55Z</time>
      </trkpt>
      <trkpt lat="45.04484" lon="3.61763">
        <ele>952.32</ele>
        <time>2022-05-01T10:43:07Z</time>
      </trkpt>
      <trkpt lat="45.04488" lon="3.61769">
        <ele>952.8</ele>
        <time>2022-05-01T10:43:12Z</time>
      </trkpt>
      <trkpt lat="45.04509" lon="3.61783">
        <ele>953.77</ele>
        <time>2022-05-01T10:43:30Z</time>
      </trkpt>
      <trkpt lat="45.04526" lon="3.61798">
        <ele>954.25</ele>
        <time>2022-05-01T10:43:47Z</time>
      </trkpt>
      <trkpt lat="45.04531" lon="3.61822">
        <ele>955.69</ele>
        <time>2022-05-01T10:44:02Z</time>
      </trkpt>
      <trkpt lat="45.04538" lon="3.61844">
        <ele>956.65</ele>
        <time>2022-05-01T10:44:18Z</time>
      </trkpt>
      <trkpt lat="45.0455" lon="3.61863">
        <ele>956.65</ele>
        <time>2022-05-01T10:44:34Z</time>
      </trkpt>
      <trkpt lat="45.04562" lon="3.61878">
        <ele>958.57</ele>
        <time>2022-05-01T10:44:48Z</time>
      </trkpt>
      <trkpt lat="45.04579" lon="3.61894">
        <ele>961.46</ele>
        <time>2022-05-01T10:45:05Z</time>
      </trkpt>
      <trkpt lat="45.04588" lon="3.619">
        <ele>962.9</ele>
        <time>2022-05-01T10:45:14Z</time>
      </trkpt>
      <trkpt lat="45.04603" lon="3.61905">
        <ele>964.82</ele>
        <time>2022-05-01T10:45:29Z</time>
      </trkpt>
      <trkpt lat="45.04624" lon="3.61903">
        <ele>965.78</ele>
        <time>2022-05-01T10:45:46Z</time>
      </trkpt>
      <trkpt lat="45.04642" lon="3.61906">
        <ele>965.78</ele>
        <time>2022-05-01T10:46:02Z</time>
      </trkpt>
      <trkpt lat="45.04665" lon="3.61911">
        <ele>967.7</ele>
        <time>2022-05-01T10:46:21Z</time>
      </trkpt>
      <trkpt lat="45.04686" lon="3.6191">
        <ele>969.63</ele>
        <time>2022-05-01T10:46:38Z</time>
      </trkpt>
      <trkpt lat="45.04691" lon="3.61908">
        <ele>970.11</ele>
        <time>2022-05-01T10:46:42Z</time>
      </trkpt>
      <trkpt lat="45.04699" lon="3.61896">
        <ele>968.18</ele>
        <time>2022-05-01T10:46:53Z</time>
      </trkpt>
      <trkpt lat="45.04707" lon="3.61868">
        <ele>967.7</ele>
        <time>2022-05-01T10:47:14Z</time>
      </trkpt>
      <trkpt lat="45.04717" lon="3.61844">
        <ele>967.7</ele>
        <time>2022-05-01T10:47:30Z</time>
      </trkpt>
      <trkpt lat="45.04717" lon="3.61829">
        <ele>966.26</ele>
        <time>2022-05-01T10:47:44Z</time>
      </trkpt>
      <trkpt lat="45.04711" lon="3.61807">
        <ele>966.74</ele>
        <time>2022-05-01T10:47:59Z</time>
      </trkpt>
      <trkpt lat="45.04714" lon="3.61803">
        <ele>967.7</ele>
        <time>2022-05-01T10:48:03Z</time>
      </trkpt>
      <trkpt lat="45.04732" lon="3.61817">
        <ele>971.07</ele>
        <time>2022-05-01T10:48:22Z</time>
      </trkpt>
      <trkpt lat="45.04744" lon="3.6183">
        <ele>972.99</ele>
        <time>2022-05-01T10:48:36Z</time>
      </trkpt>
      <trkpt lat="45.04756" lon="3.61847">
        <ele>976.84</ele>
        <time>2022-05-01T10:48:53Z</time>
      </trkpt>
      <trkpt lat="45.04774" lon="3.61847">
        <ele>977.32</ele>
        <time>2022-05-01T10:49:08Z</time>
      </trkpt>
      <trkpt lat="45.04789" lon="3.6184">
        <ele>977.8</ele>
        <time>2022-05-01T10:49:23Z</time>
      </trkpt>
      <trkpt lat="45.04806" lon="3.61845">
        <ele>977.8</ele>
        <time>2022-05-01T10:49:39Z</time>
      </trkpt>
      <trkpt lat="45.0481" lon="3.61848">
        <ele>977.8</ele>
        <time>2022-05-01T10:49:43Z</time>
      </trkpt>
      <trkpt lat="45.04814" lon="3.6185">
        <ele>978.28</ele>
        <time>2022-05-01T10:49:47Z</time>
      </trkpt>
      <trkpt lat="45.04817" lon="3.61854">
        <ele>978.28</ele>
        <time>2022-05-01T10:50:00Z</time>
      </trkpt>
      <trkpt lat="45.04818" lon="3.61853">
        <ele>978.76</ele>
        <time>2022-05-01T10:50:16Z</time>
      </trkpt>
      <trkpt lat="45.04825" lon="3.61851">
        <ele>978.76</ele>
        <time>2022-05-01T10:50:35Z</time>
      </trkpt>
      <trkpt lat="45.04838" lon="3.61838">
        <ele>979.72</ele>
        <time>2022-05-01T10:50:50Z</time>
      </trkpt>
      <trkpt lat="45.04854" lon="3.61819">
        <ele>979.72</ele>
        <time>2022-05-01T10:51:07Z</time>
      </trkpt>
      <trkpt lat="45.04862" lon="3.61806">
        <ele>978.28</ele>
        <time>2022-05-01T10:51:18Z</time>
      </trkpt>
      <trkpt lat="45.04872" lon="3.61801">
        <ele>979.24</ele>
        <time>2022-05-01T10:51:26Z</time>
      </trkpt>
      <trkpt lat="45.04877" lon="3.61795">
        <ele>981.16</ele>
        <time>2022-05-01T10:51:33Z</time>
      </trkpt>
      <trkpt lat="45.04887" lon="3.61776">
        <ele>982.12</ele>
        <time>2022-05-01T10:51:48Z</time>
      </trkpt>
      <trkpt lat="45.04896" lon="3.61756">
        <ele>979.72</ele>
        <time>2022-05-01T10:52:01Z</time>
      </trkpt>
      <trkpt lat="45.04898" lon="3.61751">
        <ele>978.76</ele>
        <time>2022-05-01T10:52:04Z</time>
      </trkpt>
      <trkpt lat="45.04911" lon="3.6173">
        <ele>976.36</ele>
        <time>2022-05-01T10:52:19Z</time>
      </trkpt>
      <trkpt lat="45.04915" lon="3.61724">
        <ele>975.88</ele>
        <time>2022-05-01T10:52:25Z</time>
      </trkpt>
      <trkpt lat="45.04932" lon="3.61706">
        <ele>971.07</ele>
        <time>2022-05-01T10:52:41Z</time>
      </trkpt>
      <trkpt lat="45.0494" lon="3.61693">
        <ele>968.67</ele>
        <time>2022-05-01T10:52:52Z</time>
      </trkpt>
      <trkpt lat="45.04953" lon="3.61674">
        <ele>965.3</ele>
        <time>2022-05-01T10:53:07Z</time>
      </trkpt>
      <trkpt lat="45.04966" lon="3.61655">
        <ele>962.9</ele>
        <time>2022-05-01T10:53:23Z</time>
      </trkpt>
      <trkpt lat="45.0498" lon="3.61632">
        <ele>961.46</ele>
        <time>2022-05-01T10:53:39Z</time>
      </trkpt>
      <trkpt lat="45.04992" lon="3.61613">
        <ele>960.49</ele>
        <time>2022-05-01T10:53:54Z</time>
      </trkpt>
      <trkpt lat="45.04998" lon="3.616">
        <ele>959.05</ele>
        <time>2022-05-01T10:54:04Z</time>
      </trkpt>
      <trkpt lat="45.05007" lon="3.61577">
        <ele>957.13</ele>
        <time>2022-05-01T10:54:20Z</time>
      </trkpt>
      <trkpt lat="45.05014" lon="3.61557">
        <ele>957.13</ele>
        <time>2022-05-01T10:54:35Z</time>
      </trkpt>
      <trkpt lat="45.05023" lon="3.61539">
        <ele>956.17</ele>
        <time>2022-05-01T10:54:49Z</time>
      </trkpt>
      <trkpt lat="45.05028" lon="3.61529">
        <ele>955.21</ele>
        <time>2022-05-01T10:54:57Z</time>
      </trkpt>
      <trkpt lat="45.05029" lon="3.61527">
        <ele>954.73</ele>
        <time>2022-05-01T10:54:59Z</time>
      </trkpt>
      <trkpt lat="45.05042" lon="3.61501">
        <ele>952.8</ele>
        <time>2022-05-01T10:55:19Z</time>
      </trkpt>
      <trkpt lat="45.05051" lon="3.61485">
        <ele>950.88</ele>
        <time>2022-05-01T10:55:32Z</time>
      </trkpt>
      <trkpt lat="45.05055" lon="3.61478">
        <ele>949.92</ele>
        <time>2022-05-01T10:55:47Z</time>
      </trkpt>
      <trkpt lat="45.05056" lon="3.61478">
        <ele>949.44</ele>
        <time>2022-05-01T10:55:48Z</time>
      </trkpt>
      <trkpt lat="45.05064" lon="3.61466">
        <ele>947.04</ele>
        <time>2022-05-01T10:56:00Z</time>
      </trkpt>
      <trkpt lat="45.05067" lon="3.61459">
        <ele>946.56</ele>
        <time>2022-05-01T10:56:05Z</time>
      </trkpt>
      <trkpt lat="45.05077" lon="3.61438">
        <ele>944.15</ele>
        <time>2022-05-01T10:56:20Z</time>
      </trkpt>
      <trkpt lat="45.05093" lon="3.61426">
        <ele>943.19</ele>
        <time>2022-05-01T10:56:35Z</time>
      </trkpt>
      <trkpt lat="45.05099" lon="3.61425">
        <ele>943.19</ele>
        <time>2022-05-01T10:56:40Z</time>
      </trkpt>
      <trkpt lat="45.05099" lon="3.61423">
        <ele>943.67</ele>
        <time>2022-05-01T10:56:50Z</time>
      </trkpt>
      <trkpt lat="45.05102" lon="3.61423">
        <ele>943.67</ele>
        <time>2022-05-01T10:56:59Z</time>
      </trkpt>
      <trkpt lat="45.05105" lon="3.61419">
        <ele>943.19</ele>
        <time>2022-05-01T10:57:03Z</time>
      </trkpt>
      <trkpt lat="45.05116" lon="3.61407">
        <ele>940.79</ele>
        <time>2022-05-01T10:57:15Z</time>
      </trkpt>
      <trkpt lat="45.05125" lon="3.61403">
        <ele>939.35</ele>
        <time>2022-05-01T10:57:24Z</time>
      </trkpt>
      <trkpt lat="45.05132" lon="3.61394">
        <ele>935.5</ele>
        <time>2022-05-01T10:57:34Z</time>
      </trkpt>
      <trkpt lat="45.05137" lon="3.61385">
        <ele>933.58</ele>
        <time>2022-05-01T10:57:42Z</time>
      </trkpt>
      <trkpt lat="45.05131" lon="3.61367">
        <ele>931.17</ele>
        <time>2022-05-01T10:57:54Z</time>
      </trkpt>
      <trkpt lat="45.05121" lon="3.61348">
        <ele>927.81</ele>
        <time>2022-05-01T10:58:07Z</time>
      </trkpt>
      <trkpt lat="45.05124" lon="3.61343">
        <ele>926.85</ele>
        <time>2022-05-01T10:58:12Z</time>
      </trkpt>
      <trkpt lat="45.05134" lon="3.61341">
        <ele>926.37</ele>
        <time>2022-05-01T10:58:28Z</time>
      </trkpt>
      <trkpt lat="45.05135" lon="3.61341">
        <ele>926.85</ele>
        <time>2022-05-01T10:58:32Z</time>
      </trkpt>
      <trkpt lat="45.05149" lon="3.61342">
        <ele>928.29</ele>
        <time>2022-05-01T10:58:44Z</time>
      </trkpt>
      <trkpt lat="45.05161" lon="3.61342">
        <ele>928.77</ele>
        <time>2022-05-01T10:58:55Z</time>
      </trkpt>
      <trkpt lat="45.05171" lon="3.6134">
        <ele>926.37</ele>
        <time>2022-05-01T10:59:04Z</time>
      </trkpt>
      <trkpt lat="45.05179" lon="3.61328">
        <ele>923</ele>
        <time>2022-05-01T10:59:18Z</time>
      </trkpt>
      <trkpt lat="45.05179" lon="3.61325">
        <ele>922.52</ele>
        <time>2022-05-01T10:59:20Z</time>
      </trkpt>
      <trkpt lat="45.0518" lon="3.6132">
        <ele>921.08</ele>
        <time>2022-05-01T10:59:24Z</time>
      </trkpt>
      <trkpt lat="45.05181" lon="3.61305">
        <ele>917.24</ele>
        <time>2022-05-01T10:59:34Z</time>
      </trkpt>
      <trkpt lat="45.05182" lon="3.61301">
        <ele>916.27</ele>
        <time>2022-05-01T10:59:37Z</time>
      </trkpt>
      <trkpt lat="45.05188" lon="3.61288">
        <ele>915.31</ele>
        <time>2022-05-01T10:59:48Z</time>
      </trkpt>
      <trkpt lat="45.05194" lon="3.61271">
        <ele>916.27</ele>
        <time>2022-05-01T10:59:59Z</time>
      </trkpt>
      <trkpt lat="45.05203" lon="3.61262">
        <ele>917.72</ele>
        <time>2022-05-01T11:00:10Z</time>
      </trkpt>
      <trkpt lat="45.05216" lon="3.61248">
        <ele>918.2</ele>
        <time>2022-05-01T11:00:23Z</time>
      </trkpt>
      <trkpt lat="45.0522" lon="3.61247">
        <ele>918.2</ele>
        <time>2022-05-01T11:00:26Z</time>
      </trkpt>
      <trkpt lat="45.05235" lon="3.61233">
        <ele>922.04</ele>
        <time>2022-05-01T11:00:40Z</time>
      </trkpt>
      <trkpt lat="45.05252" lon="3.61207">
        <ele>923.96</ele>
        <time>2022-05-01T11:00:57Z</time>
      </trkpt>
      <trkpt lat="45.05258" lon="3.61191">
        <ele>923</ele>
        <time>2022-05-01T11:01:07Z</time>
      </trkpt>
      <trkpt lat="45.05268" lon="3.61192">
        <ele>919.16</ele>
        <time>2022-05-01T11:01:14Z</time>
      </trkpt>
      <trkpt lat="45.05273" lon="3.61194">
        <ele>917.24</ele>
        <time>2022-05-01T11:01:17Z</time>
      </trkpt>
      <trkpt lat="45.05276" lon="3.612">
        <ele>909.54</ele>
        <time>2022-05-01T11:01:31Z</time>
      </trkpt>
      <trkpt lat="45.05277" lon="3.612">
        <ele>904.26</ele>
        <time>2022-05-01T11:01:54Z</time>
      </trkpt>
      <trkpt lat="45.05277" lon="3.612">
        <ele>900.89</ele>
        <time>2022-05-01T11:02:24Z</time>
      </trkpt>
      <trkpt lat="45.05278" lon="3.61202">
        <ele>899.45</ele>
        <time>2022-05-01T11:02:42Z</time>
      </trkpt>
      <trkpt lat="45.05271" lon="3.61192">
        <ele>897.53</ele>
        <time>2022-05-01T11:02:49Z</time>
      </trkpt>
      <trkpt lat="45.05253" lon="3.61171">
        <ele>893.68</ele>
        <time>2022-05-01T11:03:06Z</time>
      </trkpt>
      <trkpt lat="45.05232" lon="3.61159">
        <ele>890.32</ele>
        <time>2022-05-01T11:03:21Z</time>
      </trkpt>
      <trkpt lat="45.05218" lon="3.61155">
        <ele>887.91</ele>
        <time>2022-05-01T11:03:30Z</time>
      </trkpt>
      <trkpt lat="45.05198" lon="3.61149">
        <ele>886.95</ele>
        <time>2022-05-01T11:03:44Z</time>
      </trkpt>
      <trkpt lat="45.05185" lon="3.61148">
        <ele>885.99</ele>
        <time>2022-05-01T11:03:55Z</time>
      </trkpt>
      <trkpt lat="45.05165" lon="3.61139">
        <ele>885.51</ele>
        <time>2022-05-01T11:04:09Z</time>
      </trkpt>
      <trkpt lat="45.05142" lon="3.61124">
        <ele>882.63</ele>
        <time>2022-05-01T11:04:26Z</time>
      </trkpt>
      <trkpt lat="45.05114" lon="3.61103">
        <ele>880.22</ele>
        <time>2022-05-01T11:04:46Z</time>
      </trkpt>
      <trkpt lat="45.05094" lon="3.61086">
        <ele>877.34</ele>
        <time>2022-05-01T11:05:01Z</time>
      </trkpt>
      <trkpt lat="45.05077" lon="3.61065">
        <ele>873.5</ele>
        <time>2022-05-01T11:05:17Z</time>
      </trkpt>
      <trkpt lat="45.05075" lon="3.61062">
        <ele>873.01</ele>
        <time>2022-05-01T11:05:19Z</time>
      </trkpt>
      <trkpt lat="45.05074" lon="3.61054">
        <ele>871.57</ele>
        <time>2022-05-01T11:05:25Z</time>
      </trkpt>
      <trkpt lat="45.05069" lon="3.61042">
        <ele>868.69</ele>
        <time>2022-05-01T11:05:35Z</time>
      </trkpt>
      <trkpt lat="45.05053" lon="3.61027">
        <ele>867.25</ele>
        <time>2022-05-01T11:05:52Z</time>
      </trkpt>
      <trkpt lat="45.05043" lon="3.6102">
        <ele>865.8</ele>
        <time>2022-05-01T11:06:06Z</time>
      </trkpt>
      <trkpt lat="45.05041" lon="3.61019">
        <ele>865.32</ele>
        <time>2022-05-01T11:06:09Z</time>
      </trkpt>
      <trkpt lat="45.05037" lon="3.61017">
        <ele>864.84</ele>
        <time>2022-05-01T11:06:13Z</time>
      </trkpt>
      <trkpt lat="45.05018" lon="3.61008">
        <ele>861.96</ele>
        <time>2022-05-01T11:06:32Z</time>
      </trkpt>
      <trkpt lat="45.05014" lon="3.61007">
        <ele>861</ele>
        <time>2022-05-01T11:06:36Z</time>
      </trkpt>
      <trkpt lat="45.05012" lon="3.61007">
        <ele>860.52</ele>
        <time>2022-05-01T11:06:38Z</time>
      </trkpt>
      <trkpt lat="45.04994" lon="3.61">
        <ele>857.63</ele>
        <time>2022-05-01T11:06:55Z</time>
      </trkpt>
      <trkpt lat="45.04991" lon="3.60999">
        <ele>856.67</ele>
        <time>2022-05-01T11:06:58Z</time>
      </trkpt>
      <trkpt lat="45.04985" lon="3.60999">
        <ele>854.75</ele>
        <time>2022-05-01T11:07:04Z</time>
      </trkpt>
      <trkpt lat="45.04967" lon="3.60996">
        <ele>850.9</ele>
        <time>2022-05-01T11:07:21Z</time>
      </trkpt>
      <trkpt lat="45.04957" lon="3.60986">
        <ele>848.02</ele>
        <time>2022-05-01T11:07:33Z</time>
      </trkpt>
      <trkpt lat="45.04955" lon="3.60974">
        <ele>846.1</ele>
        <time>2022-05-01T11:07:42Z</time>
      </trkpt>
      <trkpt lat="45.04955" lon="3.60971">
        <ele>845.62</ele>
        <time>2022-05-01T11:07:44Z</time>
      </trkpt>
      <trkpt lat="45.04952" lon="3.60961">
        <ele>844.18</ele>
        <time>2022-05-01T11:07:51Z</time>
      </trkpt>
      <trkpt lat="45.04948" lon="3.60951">
        <ele>842.73</ele>
        <time>2022-05-01T11:07:59Z</time>
      </trkpt>
      <trkpt lat="45.04942" lon="3.6094">
        <ele>840.81</ele>
        <time>2022-05-01T11:08:08Z</time>
      </trkpt>
      <trkpt lat="45.04935" lon="3.60931">
        <ele>839.85</ele>
        <time>2022-05-01T11:08:17Z</time>
      </trkpt>
      <trkpt lat="45.04931" lon="3.60927">
        <ele>839.37</ele>
        <time>2022-05-01T11:08:21Z</time>
      </trkpt>
      <trkpt lat="45.04929" lon="3.60926">
        <ele>839.37</ele>
        <time>2022-05-01T11:08:23Z</time>
      </trkpt>
      <trkpt lat="45.04924" lon="3.6092">
        <ele>838.41</ele>
        <time>2022-05-01T11:08:29Z</time>
      </trkpt>
      <trkpt lat="45.04919" lon="3.60914">
        <ele>836.96</ele>
        <time>2022-05-01T11:08:34Z</time>
      </trkpt>
      <trkpt lat="45.04903" lon="3.60902">
        <ele>833.12</ele>
        <time>2022-05-01T11:08:51Z</time>
      </trkpt>
      <trkpt lat="45.04886" lon="3.60888">
        <ele>827.35</ele>
        <time>2022-05-01T11:09:07Z</time>
      </trkpt>
      <trkpt lat="45.04874" lon="3.60875">
        <ele>822.55</ele>
        <time>2022-05-01T11:09:20Z</time>
      </trkpt>
      <trkpt lat="45.04865" lon="3.60862">
        <ele>820.14</ele>
        <time>2022-05-01T11:09:31Z</time>
      </trkpt>
      <trkpt lat="45.04851" lon="3.60857">
        <ele>816.3</ele>
        <time>2022-05-01T11:09:47Z</time>
      </trkpt>
      <trkpt lat="45.04847" lon="3.60864">
        <ele>815.34</ele>
        <time>2022-05-01T11:09:53Z</time>
      </trkpt>
      <trkpt lat="45.04842" lon="3.6088">
        <ele>813.89</ele>
        <time>2022-05-01T11:10:04Z</time>
      </trkpt>
      <trkpt lat="45.04833" lon="3.60898">
        <ele>810.53</ele>
        <time>2022-05-01T11:10:18Z</time>
      </trkpt>
      <trkpt lat="45.04814" lon="3.60895">
        <ele>808.61</ele>
        <time>2022-05-01T11:10:35Z</time>
      </trkpt>
      <trkpt lat="45.04801" lon="3.60884">
        <ele>806.68</ele>
        <time>2022-05-01T11:10:50Z</time>
      </trkpt>
      <trkpt lat="45.04786" lon="3.6087">
        <ele>801.88</ele>
        <time>2022-05-01T11:11:06Z</time>
      </trkpt>
      <trkpt lat="45.04777" lon="3.60863">
        <ele>798.99</ele>
        <time>2022-05-01T11:11:19Z</time>
      </trkpt>
      <trkpt lat="45.04761" lon="3.60846">
        <ele>794.67</ele>
        <time>2022-05-01T11:11:37Z</time>
      </trkpt>
      <trkpt lat="45.04759" lon="3.60841">
        <ele>794.19</ele>
        <time>2022-05-01T11:11:42Z</time>
      </trkpt>
      <trkpt lat="45.04746" lon="3.60824">
        <ele>791.78</ele>
        <time>2022-05-01T11:11:58Z</time>
      </trkpt>
      <trkpt lat="45.04733" lon="3.60804">
        <ele>789.38</ele>
        <time>2022-05-01T11:12:14Z</time>
      </trkpt>
      <trkpt lat="45.04726" lon="3.60791">
        <ele>786.98</ele>
        <time>2022-05-01T11:12:24Z</time>
      </trkpt>
      <trkpt lat="45.04712" lon="3.60766">
        <ele>783.61</ele>
        <time>2022-05-01T11:12:42Z</time>
      </trkpt>
      <trkpt lat="45.04701" lon="3.60748">
        <ele>781.21</ele>
        <time>2022-05-01T11:12:55Z</time>
      </trkpt>
      <trkpt lat="45.0469" lon="3.60726">
        <ele>778.32</ele>
        <time>2022-05-01T11:13:11Z</time>
      </trkpt>
      <trkpt lat="45.04689" lon="3.60723">
        <ele>777.84</ele>
        <time>2022-05-01T11:13:13Z</time>
      </trkpt>
      <trkpt lat="45.04687" lon="3.60719">
        <ele>777.36</ele>
        <time>2022-05-01T11:13:16Z</time>
      </trkpt>
      <trkpt lat="45.04682" lon="3.60704">
        <ele>775.44</ele>
        <time>2022-05-01T11:13:30Z</time>
      </trkpt>
      <trkpt lat="45.04681" lon="3.60701">
        <ele>774.96</ele>
        <time>2022-05-01T11:13:36Z</time>
      </trkpt>
      <trkpt lat="45.04675" lon="3.60682">
        <ele>774.48</ele>
        <time>2022-05-01T11:13:50Z</time>
      </trkpt>
      <trkpt lat="45.04672" lon="3.60669">
        <ele>773.04</ele>
        <time>2022-05-01T11:13:59Z</time>
      </trkpt>
      <trkpt lat="45.04666" lon="3.60644">
        <ele>770.63</ele>
        <time>2022-05-01T11:14:16Z</time>
      </trkpt>
      <trkpt lat="45.04665" lon="3.60635">
        <ele>768.71</ele>
        <time>2022-05-01T11:14:31Z</time>
      </trkpt>
      <trkpt lat="45.04665" lon="3.60634">
        <ele>768.23</ele>
        <time>2022-05-01T11:14:46Z</time>
      </trkpt>
      <trkpt lat="45.04664" lon="3.60632">
        <ele>768.23</ele>
        <time>2022-05-01T11:14:58Z</time>
      </trkpt>
      <trkpt lat="45.04664" lon="3.60631">
        <ele>768.23</ele>
        <time>2022-05-01T11:15:15Z</time>
      </trkpt>
      <trkpt lat="45.04664" lon="3.60631">
        <ele>768.23</ele>
        <time>2022-05-01T11:15:30Z</time>
      </trkpt>
      <trkpt lat="45.04664" lon="3.6063">
        <ele>768.23</ele>
        <time>2022-05-01T11:15:35Z</time>
      </trkpt>
      <trkpt lat="45.04679" lon="3.60619">
        <ele>767.27</ele>
        <time>2022-05-01T11:15:52Z</time>
      </trkpt>
      <trkpt lat="45.04693" lon="3.60598">
        <ele>767.75</ele>
        <time>2022-05-01T11:16:10Z</time>
      </trkpt>
      <trkpt lat="45.04703" lon="3.60577">
        <ele>767.75</ele>
        <time>2022-05-01T11:16:25Z</time>
      </trkpt>
      <trkpt lat="45.0471" lon="3.60562">
        <ele>767.75</ele>
        <time>2022-05-01T11:16:35Z</time>
      </trkpt>
      <trkpt lat="45.04722" lon="3.60537">
        <ele>767.27</ele>
        <time>2022-05-01T11:16:52Z</time>
      </trkpt>
      <trkpt lat="45.04731" lon="3.60522">
        <ele>766.79</ele>
        <time>2022-05-01T11:17:03Z</time>
      </trkpt>
      <trkpt lat="45.04738" lon="3.60507">
        <ele>767.75</ele>
        <time>2022-05-01T11:17:13Z</time>
      </trkpt>
      <trkpt lat="45.0475" lon="3.60485">
        <ele>767.27</ele>
        <time>2022-05-01T11:17:30Z</time>
      </trkpt>
      <trkpt lat="45.04751" lon="3.60483">
        <ele>767.27</ele>
        <time>2022-05-01T11:17:32Z</time>
      </trkpt>
      <trkpt lat="45.04764" lon="3.60455">
        <ele>766.31</ele>
        <time>2022-05-01T11:17:50Z</time>
      </trkpt>
      <trkpt lat="45.04779" lon="3.60428">
        <ele>767.75</ele>
        <time>2022-05-01T11:18:09Z</time>
      </trkpt>
      <trkpt lat="45.04788" lon="3.60406">
        <ele>768.23</ele>
        <time>2022-05-01T11:18:24Z</time>
      </trkpt>
      <trkpt lat="45.048" lon="3.60371">
        <ele>766.79</ele>
        <time>2022-05-01T11:18:44Z</time>
      </trkpt>
      <trkpt lat="45.0481" lon="3.60342">
        <ele>765.35</ele>
        <time>2022-05-01T11:19:02Z</time>
      </trkpt>
      <trkpt lat="45.04818" lon="3.60319">
        <ele>764.87</ele>
        <time>2022-05-01T11:19:18Z</time>
      </trkpt>
      <trkpt lat="45.0482" lon="3.60318">
        <ele>767.75</ele>
        <time>2022-05-01T11:19:36Z</time>
      </trkpt>
      <trkpt lat="45.04824" lon="3.60304">
        <ele>767.75</ele>
        <time>2022-05-01T11:19:48Z</time>
      </trkpt>
      <trkpt lat="45.0484" lon="3.60277">
        <ele>766.79</ele>
        <time>2022-05-01T11:20:06Z</time>
      </trkpt>
      <trkpt lat="45.04855" lon="3.60254">
        <ele>767.27</ele>
        <time>2022-05-01T11:20:22Z</time>
      </trkpt>
      <trkpt lat="45.04872" lon="3.60228">
        <ele>766.79</ele>
        <time>2022-05-01T11:20:42Z</time>
      </trkpt>
      <trkpt lat="45.04884" lon="3.6021">
        <ele>767.75</ele>
        <time>2022-05-01T11:20:55Z</time>
      </trkpt>
      <trkpt lat="45.04896" lon="3.60193">
        <ele>767.75</ele>
        <time>2022-05-01T11:21:08Z</time>
      </trkpt>
      <trkpt lat="45.04903" lon="3.60175">
        <ele>768.23</ele>
        <time>2022-05-01T11:21:20Z</time>
      </trkpt>
      <trkpt lat="45.04914" lon="3.60152">
        <ele>766.31</ele>
        <time>2022-05-01T11:21:35Z</time>
      </trkpt>
      <trkpt lat="45.04914" lon="3.6015">
        <ele>766.31</ele>
        <time>2022-05-01T11:21:36Z</time>
      </trkpt>
      <trkpt lat="45.04922" lon="3.60122">
        <ele>764.39</ele>
        <time>2022-05-01T11:21:51Z</time>
      </trkpt>
      <trkpt lat="45.0493" lon="3.60096">
        <ele>762.94</ele>
        <time>2022-05-01T11:22:06Z</time>
      </trkpt>
      <trkpt lat="45.04939" lon="3.6007">
        <ele>762.94</ele>
        <time>2022-05-01T11:22:21Z</time>
      </trkpt>
      <trkpt lat="45.04949" lon="3.60044">
        <ele>761.5</ele>
        <time>2022-05-01T11:22:37Z</time>
      </trkpt>
      <trkpt lat="45.04958" lon="3.60017">
        <ele>759.58</ele>
        <time>2022-05-01T11:22:53Z</time>
      </trkpt>
      <trkpt lat="45.04967" lon="3.59997">
        <ele>759.1</ele>
        <time>2022-05-01T11:23:06Z</time>
      </trkpt>
      <trkpt lat="45.04976" lon="3.59982">
        <ele>757.66</ele>
        <time>2022-05-01T11:23:16Z</time>
      </trkpt>
      <trkpt lat="45.04994" lon="3.59962">
        <ele>758.14</ele>
        <time>2022-05-01T11:23:33Z</time>
      </trkpt>
      <trkpt lat="45.05012" lon="3.59949">
        <ele>755.25</ele>
        <time>2022-05-01T11:23:49Z</time>
      </trkpt>
      <trkpt lat="45.0502" lon="3.59943">
        <ele>754.77</ele>
        <time>2022-05-01T11:23:58Z</time>
      </trkpt>
      <trkpt lat="45.05025" lon="3.59942">
        <ele>753.81</ele>
        <time>2022-05-01T11:24:02Z</time>
      </trkpt>
      <trkpt lat="45.0504" lon="3.59943">
        <ele>752.85</ele>
        <time>2022-05-01T11:24:16Z</time>
      </trkpt>
      <trkpt lat="45.05056" lon="3.59949">
        <ele>752.37</ele>
        <time>2022-05-01T11:24:31Z</time>
      </trkpt>
      <trkpt lat="45.05061" lon="3.5995">
        <ele>753.33</ele>
        <time>2022-05-01T11:24:35Z</time>
      </trkpt>
      <trkpt lat="45.0507" lon="3.59952">
        <ele>754.77</ele>
        <time>2022-05-01T11:24:42Z</time>
      </trkpt>
      <trkpt lat="45.05084" lon="3.59955">
        <ele>757.66</ele>
        <time>2022-05-01T11:24:53Z</time>
      </trkpt>
      <trkpt lat="45.05103" lon="3.59954">
        <ele>761.5</ele>
        <time>2022-05-01T11:25:09Z</time>
      </trkpt>
      <trkpt lat="45.05122" lon="3.59953">
        <ele>760.06</ele>
        <time>2022-05-01T11:25:24Z</time>
      </trkpt>
      <trkpt lat="45.05129" lon="3.59952">
        <ele>758.14</ele>
        <time>2022-05-01T11:25:33Z</time>
      </trkpt>
      <trkpt lat="45.05129" lon="3.59927">
        <ele>752.85</ele>
        <time>2022-05-01T11:25:49Z</time>
      </trkpt>
      <trkpt lat="45.05124" lon="3.59903">
        <ele>750.93</ele>
        <time>2022-05-01T11:26:04Z</time>
      </trkpt>
      <trkpt lat="45.05122" lon="3.59874">
        <ele>749.97</ele>
        <time>2022-05-01T11:26:22Z</time>
      </trkpt>
      <trkpt lat="45.05125" lon="3.59849">
        <ele>750.93</ele>
        <time>2022-05-01T11:26:37Z</time>
      </trkpt>
      <trkpt lat="45.05128" lon="3.59835">
        <ele>750.93</ele>
        <time>2022-05-01T11:26:46Z</time>
      </trkpt>
      <trkpt lat="45.05131" lon="3.59808">
        <ele>750.93</ele>
        <time>2022-05-01T11:27:03Z</time>
      </trkpt>
      <trkpt lat="45.05134" lon="3.59783">
        <ele>751.41</ele>
        <time>2022-05-01T11:27:19Z</time>
      </trkpt>
      <trkpt lat="45.05133" lon="3.59778">
        <ele>751.41</ele>
        <time>2022-05-01T11:27:24Z</time>
      </trkpt>
      <trkpt lat="45.05132" lon="3.59768">
        <ele>752.85</ele>
        <time>2022-05-01T11:27:31Z</time>
      </trkpt>
      <trkpt lat="45.05131" lon="3.5976">
        <ele>753.33</ele>
        <time>2022-05-01T11:27:37Z</time>
      </trkpt>
      <trkpt lat="45.05129" lon="3.59754">
        <ele>753.33</ele>
        <time>2022-05-01T11:27:41Z</time>
      </trkpt>
      <trkpt lat="45.05115" lon="3.59727">
        <ele>753.81</ele>
        <time>2022-05-01T11:28:02Z</time>
      </trkpt>
      <trkpt lat="45.05102" lon="3.59705">
        <ele>753.33</ele>
        <time>2022-05-01T11:28:19Z</time>
      </trkpt>
      <trkpt lat="45.05089" lon="3.59687">
        <ele>752.37</ele>
        <time>2022-05-01T11:28:34Z</time>
      </trkpt>
      <trkpt lat="45.05083" lon="3.59657">
        <ele>752.85</ele>
        <time>2022-05-01T11:28:52Z</time>
      </trkpt>
      <trkpt lat="45.05084" lon="3.59652">
        <ele>752.85</ele>
        <time>2022-05-01T11:28:55Z</time>
      </trkpt>
      <trkpt lat="45.05088" lon="3.59631">
        <ele>753.33</ele>
        <time>2022-05-01T11:29:08Z</time>
      </trkpt>
      <trkpt lat="45.05089" lon="3.59624">
        <ele>752.85</ele>
        <time>2022-05-01T11:29:12Z</time>
      </trkpt>
      <trkpt lat="45.05089" lon="3.59613">
        <ele>753.33</ele>
        <time>2022-05-01T11:29:20Z</time>
      </trkpt>
      <trkpt lat="45.0509" lon="3.59609">
        <ele>753.81</ele>
        <time>2022-05-01T11:29:23Z</time>
      </trkpt>
      <trkpt lat="45.05096" lon="3.59599">
        <ele>754.77</ele>
        <time>2022-05-01T11:29:35Z</time>
      </trkpt>
      <trkpt lat="45.05099" lon="3.59599">
        <ele>755.73</ele>
        <time>2022-05-01T11:29:38Z</time>
      </trkpt>
      <trkpt lat="45.05114" lon="3.59614">
        <ele>758.62</ele>
        <time>2022-05-01T11:29:55Z</time>
      </trkpt>
      <trkpt lat="45.05125" lon="3.5963">
        <ele>760.06</ele>
        <time>2022-05-01T11:30:08Z</time>
      </trkpt>
      <trkpt lat="45.05137" lon="3.59645">
        <ele>761.02</ele>
        <time>2022-05-01T11:30:23Z</time>
      </trkpt>
      <trkpt lat="45.0514" lon="3.59645">
        <ele>761.02</ele>
        <time>2022-05-01T11:30:26Z</time>
      </trkpt>
      <trkpt lat="45.05144" lon="3.59647">
        <ele>761.5</ele>
        <time>2022-05-01T11:30:30Z</time>
      </trkpt>
      <trkpt lat="45.05159" lon="3.59669">
        <ele>762.46</ele>
        <time>2022-05-01T11:30:47Z</time>
      </trkpt>
      <trkpt lat="45.0517" lon="3.59684">
        <ele>762.94</ele>
        <time>2022-05-01T11:31:01Z</time>
      </trkpt>
      <trkpt lat="45.05171" lon="3.59684">
        <ele>763.42</ele>
        <time>2022-05-01T11:31:02Z</time>
      </trkpt>
      <trkpt lat="45.05178" lon="3.59685">
        <ele>764.39</ele>
        <time>2022-05-01T11:31:12Z</time>
      </trkpt>
      <trkpt lat="45.05194" lon="3.59673">
        <ele>765.83</ele>
        <time>2022-05-01T11:31:28Z</time>
      </trkpt>
      <trkpt lat="45.05207" lon="3.59658">
        <ele>767.27</ele>
        <time>2022-05-01T11:31:43Z</time>
      </trkpt>
      <trkpt lat="45.05212" lon="3.59645">
        <ele>766.79</ele>
        <time>2022-05-01T11:31:52Z</time>
      </trkpt>
      <trkpt lat="45.05218" lon="3.59615">
        <ele>764.39</ele>
        <time>2022-05-01T11:32:10Z</time>
      </trkpt>
      <trkpt lat="45.05225" lon="3.5959">
        <ele>763.42</ele>
        <time>2022-05-01T11:32:25Z</time>
      </trkpt>
      <trkpt lat="45.05241" lon="3.59574">
        <ele>763.42</ele>
        <time>2022-05-01T11:32:41Z</time>
      </trkpt>
      <trkpt lat="45.05244" lon="3.59571">
        <ele>763.42</ele>
        <time>2022-05-01T11:32:44Z</time>
      </trkpt>
      <trkpt lat="45.05245" lon="3.59569">
        <ele>763.42</ele>
        <time>2022-05-01T11:32:46Z</time>
      </trkpt>
      <trkpt lat="45.05269" lon="3.59553">
        <ele>763.9</ele>
        <time>2022-05-01T11:33:06Z</time>
      </trkpt>
      <trkpt lat="45.05282" lon="3.59536">
        <ele>764.39</ele>
        <time>2022-05-01T11:33:22Z</time>
      </trkpt>
      <trkpt lat="45.05282" lon="3.59528">
        <ele>764.87</ele>
        <time>2022-05-01T11:33:26Z</time>
      </trkpt>
      <trkpt lat="45.05282" lon="3.59525">
        <ele>765.35</ele>
        <time>2022-05-01T11:33:28Z</time>
      </trkpt>
      <trkpt lat="45.05276" lon="3.59488">
        <ele>761.5</ele>
        <time>2022-05-01T11:33:49Z</time>
      </trkpt>
      <trkpt lat="45.05268" lon="3.59457">
        <ele>758.62</ele>
        <time>2022-05-01T11:34:07Z</time>
      </trkpt>
      <trkpt lat="45.05266" lon="3.5945">
        <ele>758.62</ele>
        <time>2022-05-01T11:34:13Z</time>
      </trkpt>
      <trkpt lat="45.05255" lon="3.59417">
        <ele>756.21</ele>
        <time>2022-05-01T11:34:33Z</time>
      </trkpt>
      <trkpt lat="45.05248" lon="3.59383">
        <ele>752.85</ele>
        <time>2022-05-01T11:34:53Z</time>
      </trkpt>
      <trkpt lat="45.0524" lon="3.59349">
        <ele>748.52</ele>
        <time>2022-05-01T11:35:14Z</time>
      </trkpt>
      <trkpt lat="45.05232" lon="3.59313">
        <ele>745.64</ele>
        <time>2022-05-01T11:35:35Z</time>
      </trkpt>
      <trkpt lat="45.05226" lon="3.59283">
        <ele>742.76</ele>
        <time>2022-05-01T11:35:53Z</time>
      </trkpt>
      <trkpt lat="45.05224" lon="3.59273">
        <ele>741.79</ele>
        <time>2022-05-01T11:35:59Z</time>
      </trkpt>
      <trkpt lat="45.05221" lon="3.59256">
        <ele>740.83</ele>
        <time>2022-05-01T11:36:09Z</time>
      </trkpt>
      <trkpt lat="45.05214" lon="3.5922">
        <ele>737.95</ele>
        <time>2022-05-01T11:36:30Z</time>
      </trkpt>
      <trkpt lat="45.05209" lon="3.59187">
        <ele>735.55</ele>
        <time>2022-05-01T11:36:49Z</time>
      </trkpt>
      <trkpt lat="45.05204" lon="3.59153">
        <ele>732.18</ele>
        <time>2022-05-01T11:37:08Z</time>
      </trkpt>
      <trkpt lat="45.052" lon="3.59122">
        <ele>730.26</ele>
        <time>2022-05-01T11:37:26Z</time>
      </trkpt>
      <trkpt lat="45.05196" lon="3.59096">
        <ele>727.86</ele>
        <time>2022-05-01T11:37:41Z</time>
      </trkpt>
      <trkpt lat="45.05193" lon="3.59062">
        <ele>725.93</ele>
        <time>2022-05-01T11:38:00Z</time>
      </trkpt>
      <trkpt lat="45.05191" lon="3.59029">
        <ele>724.49</ele>
        <time>2022-05-01T11:38:18Z</time>
      </trkpt>
      <trkpt lat="45.05191" lon="3.58994">
        <ele>721.61</ele>
        <time>2022-05-01T11:38:37Z</time>
      </trkpt>
      <trkpt lat="45.05188" lon="3.58953">
        <ele>718.24</ele>
        <time>2022-05-01T11:38:59Z</time>
      </trkpt>
      <trkpt lat="45.05183" lon="3.58913">
        <ele>717.76</ele>
        <time>2022-05-01T11:39:21Z</time>
      </trkpt>
      <trkpt lat="45.05182" lon="3.5888">
        <ele>718.24</ele>
        <time>2022-05-01T11:39:40Z</time>
      </trkpt>
      <trkpt lat="45.05177" lon="3.58845">
        <ele>720.16</ele>
        <time>2022-05-01T11:40:00Z</time>
      </trkpt>
      <trkpt lat="45.05173" lon="3.58828">
        <ele>721.13</ele>
        <time>2022-05-01T11:40:11Z</time>
      </trkpt>
      <trkpt lat="45.05164" lon="3.58803">
        <ele>721.13</ele>
        <time>2022-05-01T11:40:27Z</time>
      </trkpt>
      <trkpt lat="45.05153" lon="3.58778">
        <ele>721.13</ele>
        <time>2022-05-01T11:40:44Z</time>
      </trkpt>
      <trkpt lat="45.05147" lon="3.5875">
        <ele>716.32</ele>
        <time>2022-05-01T11:41:01Z</time>
      </trkpt>
      <trkpt lat="45.05147" lon="3.58742">
        <ele>715.84</ele>
        <time>2022-05-01T11:41:07Z</time>
      </trkpt>
      <trkpt lat="45.05144" lon="3.58735">
        <ele>714.88</ele>
        <time>2022-05-01T11:41:13Z</time>
      </trkpt>
      <trkpt lat="45.0513" lon="3.5873">
        <ele>712.47</ele>
        <time>2022-05-01T11:41:25Z</time>
      </trkpt>
      <trkpt lat="45.05125" lon="3.5873">
        <ele>712.47</ele>
        <time>2022-05-01T11:41:29Z</time>
      </trkpt>
      <trkpt lat="45.05103" lon="3.5873">
        <ele>709.11</ele>
        <time>2022-05-01T11:41:48Z</time>
      </trkpt>
      <trkpt lat="45.05088" lon="3.58726">
        <ele>706.71</ele>
        <time>2022-05-01T11:42:04Z</time>
      </trkpt>
      <trkpt lat="45.05071" lon="3.58726">
        <ele>703.34</ele>
        <time>2022-05-01T11:42:19Z</time>
      </trkpt>
      <trkpt lat="45.05058" lon="3.58724">
        <ele>701.42</ele>
        <time>2022-05-01T11:42:33Z</time>
      </trkpt>
      <trkpt lat="45.05045" lon="3.5872">
        <ele>699.98</ele>
        <time>2022-05-01T11:42:48Z</time>
      </trkpt>
      <trkpt lat="45.0504" lon="3.58714">
        <ele>700.46</ele>
        <time>2022-05-01T11:42:57Z</time>
      </trkpt>
      <trkpt lat="45.05042" lon="3.58703">
        <ele>703.34</ele>
        <time>2022-05-01T11:43:04Z</time>
      </trkpt>
      <trkpt lat="45.05052" lon="3.5869">
        <ele>705.26</ele>
        <time>2022-05-01T11:43:18Z</time>
      </trkpt>
      <trkpt lat="45.05065" lon="3.58676">
        <ele>707.19</ele>
        <time>2022-05-01T11:43:30Z</time>
      </trkpt>
      <trkpt lat="45.05071" lon="3.5866">
        <ele>701.9</ele>
        <time>2022-05-01T11:43:43Z</time>
      </trkpt>
      <trkpt lat="45.05076" lon="3.58648">
        <ele>697.57</ele>
        <time>2022-05-01T11:43:52Z</time>
      </trkpt>
      <trkpt lat="45.05077" lon="3.58644">
        <ele>696.13</ele>
        <time>2022-05-01T11:43:55Z</time>
      </trkpt>
      <trkpt lat="45.0509" lon="3.58624">
        <ele>689.4</ele>
        <time>2022-05-01T11:44:12Z</time>
      </trkpt>
      <trkpt lat="45.05093" lon="3.58613">
        <ele>687.48</ele>
        <time>2022-05-01T11:44:21Z</time>
      </trkpt>
      <trkpt lat="45.05094" lon="3.58611">
        <ele>687</ele>
        <time>2022-05-01T11:44:23Z</time>
      </trkpt>
      <trkpt lat="45.05104" lon="3.58584">
        <ele>681.23</ele>
        <time>2022-05-01T11:44:42Z</time>
      </trkpt>
      <trkpt lat="45.05112" lon="3.58571">
        <ele>677.87</ele>
        <time>2022-05-01T11:44:55Z</time>
      </trkpt>
      <trkpt lat="45.05119" lon="3.58559">
        <ele>674.98</ele>
        <time>2022-05-01T11:45:07Z</time>
      </trkpt>
      <trkpt lat="45.05122" lon="3.58553">
        <ele>673.54</ele>
        <time>2022-05-01T11:45:11Z</time>
      </trkpt>
      <trkpt lat="45.0513" lon="3.58534">
        <ele>669.22</ele>
        <time>2022-05-01T11:45:25Z</time>
      </trkpt>
      <trkpt lat="45.05134" lon="3.58529">
        <ele>668.25</ele>
        <time>2022-05-01T11:45:30Z</time>
      </trkpt>
      <trkpt lat="45.0514" lon="3.58509">
        <ele>669.22</ele>
        <time>2022-05-01T11:45:44Z</time>
      </trkpt>
      <trkpt lat="45.05143" lon="3.58502">
        <ele>668.73</ele>
        <time>2022-05-01T11:45:50Z</time>
      </trkpt>
      <trkpt lat="45.05148" lon="3.58494">
        <ele>667.77</ele>
        <time>2022-05-01T11:45:58Z</time>
      </trkpt>
      <trkpt lat="45.05149" lon="3.58492">
        <ele>667.77</ele>
        <time>2022-05-01T11:46:00Z</time>
      </trkpt>
      <trkpt lat="45.05156" lon="3.58482">
        <ele>665.85</ele>
        <time>2022-05-01T11:46:08Z</time>
      </trkpt>
      <trkpt lat="45.05165" lon="3.58471">
        <ele>665.37</ele>
        <time>2022-05-01T11:46:18Z</time>
      </trkpt>
      <trkpt lat="45.05167" lon="3.58459">
        <ele>668.73</ele>
        <time>2022-05-01T11:46:30Z</time>
      </trkpt>
      <trkpt lat="45.05159" lon="3.58458">
        <ele>666.33</ele>
        <time>2022-05-01T11:46:39Z</time>
      </trkpt>
      <trkpt lat="45.05142" lon="3.58464">
        <ele>658.16</ele>
        <time>2022-05-01T11:46:54Z</time>
      </trkpt>
      <trkpt lat="45.05132" lon="3.58469">
        <ele>654.31</ele>
        <time>2022-05-01T11:47:03Z</time>
      </trkpt>
      <trkpt lat="45.05124" lon="3.5847">
        <ele>652.87</ele>
        <time>2022-05-01T11:47:09Z</time>
      </trkpt>
      <trkpt lat="45.05114" lon="3.58472">
        <ele>650.47</ele>
        <time>2022-05-01T11:47:18Z</time>
      </trkpt>
      <trkpt lat="45.05097" lon="3.5848">
        <ele>647.1</ele>
        <time>2022-05-01T11:47:34Z</time>
      </trkpt>
      <trkpt lat="45.05078" lon="3.58485">
        <ele>645.18</ele>
        <time>2022-05-01T11:47:50Z</time>
      </trkpt>
      <trkpt lat="45.0506" lon="3.58487">
        <ele>643.74</ele>
        <time>2022-05-01T11:48:05Z</time>
      </trkpt>
      <trkpt lat="45.05043" lon="3.58495">
        <ele>641.34</ele>
        <time>2022-05-01T11:48:20Z</time>
      </trkpt>
      <trkpt lat="45.05035" lon="3.58497">
        <ele>639.89</ele>
        <time>2022-05-01T11:48:27Z</time>
      </trkpt>
      <trkpt lat="45.05029" lon="3.58498">
        <ele>639.41</ele>
        <time>2022-05-01T11:48:32Z</time>
      </trkpt>
      <trkpt lat="45.05025" lon="3.58498">
        <ele>638.45</ele>
        <time>2022-05-01T11:48:36Z</time>
      </trkpt>
      <trkpt lat="45.05016" lon="3.58499">
        <ele>637.49</ele>
        <time>2022-05-01T11:48:44Z</time>
      </trkpt>
      <trkpt lat="45.05007" lon="3.58507">
        <ele>635.57</ele>
        <time>2022-05-01T11:48:52Z</time>
      </trkpt>
      <trkpt lat="45.05003" lon="3.5851">
        <ele>635.09</ele>
        <time>2022-05-01T11:48:56Z</time>
      </trkpt>
      <trkpt lat="45.05" lon="3.58512">
        <ele>634.61</ele>
        <time>2022-05-01T11:48:59Z</time>
      </trkpt>
      <trkpt lat="45.04993" lon="3.58516">
        <ele>633.65</ele>
        <time>2022-05-01T11:49:06Z</time>
      </trkpt>
      <trkpt lat="45.04989" lon="3.58516">
        <ele>632.68</ele>
        <time>2022-05-01T11:49:10Z</time>
      </trkpt>
      <trkpt lat="45.04987" lon="3.58513">
        <ele>632.2</ele>
        <time>2022-05-01T11:49:13Z</time>
      </trkpt>
      <trkpt lat="45.0499" lon="3.58499">
        <ele>630.76</ele>
        <time>2022-05-01T11:49:26Z</time>
      </trkpt>
      <trkpt lat="45.04991" lon="3.58499">
        <ele>630.76</ele>
        <time>2022-05-01T11:49:31Z</time>
      </trkpt>
      <trkpt lat="45.04993" lon="3.58495">
        <ele>630.76</ele>
        <time>2022-05-01T11:49:34Z</time>
      </trkpt>
      <trkpt lat="45.04995" lon="3.5849">
        <ele>629.32</ele>
        <time>2022-05-01T11:49:40Z</time>
      </trkpt>
      <trkpt lat="45.05003" lon="3.58474">
        <ele>628.36</ele>
        <time>2022-05-01T11:49:52Z</time>
      </trkpt>
      <trkpt lat="45.05006" lon="3.58467">
        <ele>627.4</ele>
        <time>2022-05-01T11:49:57Z</time>
      </trkpt>
      <trkpt lat="45.0502" lon="3.58443">
        <ele>622.11</ele>
        <time>2022-05-01T11:50:14Z</time>
      </trkpt>
      <trkpt lat="45.05032" lon="3.58423">
        <ele>616.82</ele>
        <time>2022-05-01T11:50:30Z</time>
      </trkpt>
      <trkpt lat="45.05035" lon="3.58416">
        <ele>616.34</ele>
        <time>2022-05-01T11:50:35Z</time>
      </trkpt>
      <trkpt lat="45.05042" lon="3.58405">
        <ele>613.94</ele>
        <time>2022-05-01T11:50:44Z</time>
      </trkpt>
      <trkpt lat="45.05044" lon="3.58404">
        <ele>613.46</ele>
        <time>2022-05-01T11:50:46Z</time>
      </trkpt>
      <trkpt lat="45.05053" lon="3.58395">
        <ele>610.09</ele>
        <time>2022-05-01T11:50:56Z</time>
      </trkpt>
      <trkpt lat="45.05067" lon="3.58383">
        <ele>608.65</ele>
        <time>2022-05-01T11:51:09Z</time>
      </trkpt>
      <trkpt lat="45.05073" lon="3.58378">
        <ele>608.17</ele>
        <time>2022-05-01T11:51:15Z</time>
      </trkpt>
      <trkpt lat="45.05082" lon="3.58365">
        <ele>607.21</ele>
        <time>2022-05-01T11:51:25Z</time>
      </trkpt>
      <trkpt lat="45.05101" lon="3.58344">
        <ele>603.85</ele>
        <time>2022-05-01T11:51:43Z</time>
      </trkpt>
      <trkpt lat="45.05102" lon="3.58343">
        <ele>603.85</ele>
        <time>2022-05-01T11:51:44Z</time>
      </trkpt>
      <trkpt lat="45.05116" lon="3.58329">
        <ele>601.92</ele>
        <time>2022-05-01T11:51:58Z</time>
      </trkpt>
      <trkpt lat="45.05118" lon="3.58328">
        <ele>601.44</ele>
        <time>2022-05-01T11:52:00Z</time>
      </trkpt>
      <trkpt lat="45.0512" lon="3.58321">
        <ele>599.52</ele>
        <time>2022-05-01T11:52:06Z</time>
      </trkpt>
      <trkpt lat="45.05102" lon="3.58324">
        <ele>597.6</ele>
        <time>2022-05-01T11:52:22Z</time>
      </trkpt>
      <trkpt lat="45.05082" lon="3.58326">
        <ele>595.67</ele>
        <time>2022-05-01T11:52:37Z</time>
      </trkpt>
      <trkpt lat="45.05065" lon="3.58327">
        <ele>593.75</ele>
        <time>2022-05-01T11:52:51Z</time>
      </trkpt>
      <trkpt lat="45.05063" lon="3.58328">
        <ele>593.27</ele>
        <time>2022-05-01T11:52:53Z</time>
      </trkpt>
      <trkpt lat="45.05056" lon="3.58323">
        <ele>592.31</ele>
        <time>2022-05-01T11:53:01Z</time>
      </trkpt>
      <trkpt lat="45.05056" lon="3.58318">
        <ele>591.83</ele>
        <time>2022-05-01T11:53:05Z</time>
      </trkpt>
      <trkpt lat="45.05069" lon="3.5831">
        <ele>590.87</ele>
        <time>2022-05-01T11:53:17Z</time>
      </trkpt>
      <trkpt lat="45.05084" lon="3.58298">
        <ele>589.43</ele>
        <time>2022-05-01T11:53:31Z</time>
      </trkpt>
      <trkpt lat="45.05087" lon="3.58294">
        <ele>588.46</ele>
        <time>2022-05-01T11:53:34Z</time>
      </trkpt>
      <trkpt lat="45.05091" lon="3.58288">
        <ele>585.58</ele>
        <time>2022-05-01T11:53:39Z</time>
      </trkpt>
      <trkpt lat="45.05101" lon="3.58272">
        <ele>584.14</ele>
        <time>2022-05-01T11:53:53Z</time>
      </trkpt>
      <trkpt lat="45.05102" lon="3.5827">
        <ele>583.66</ele>
        <time>2022-05-01T11:53:54Z</time>
      </trkpt>
      <trkpt lat="45.05117" lon="3.58245">
        <ele>580.29</ele>
        <time>2022-05-01T11:54:12Z</time>
      </trkpt>
      <trkpt lat="45.05124" lon="3.58236">
        <ele>578.37</ele>
        <time>2022-05-01T11:54:19Z</time>
      </trkpt>
      <trkpt lat="45.05129" lon="3.5823">
        <ele>577.89</ele>
        <time>2022-05-01T11:54:25Z</time>
      </trkpt>
      <trkpt lat="45.05133" lon="3.58219">
        <ele>575.49</ele>
        <time>2022-05-01T11:54:33Z</time>
      </trkpt>
      <trkpt lat="45.05138" lon="3.58212">
        <ele>574.53</ele>
        <time>2022-05-01T11:54:39Z</time>
      </trkpt>
      <trkpt lat="45.05139" lon="3.5821">
        <ele>574.04</ele>
        <time>2022-05-01T11:54:41Z</time>
      </trkpt>
      <trkpt lat="45.05146" lon="3.58198">
        <ele>572.6</ele>
        <time>2022-05-01T11:54:53Z</time>
      </trkpt>
      <trkpt lat="45.05143" lon="3.58196">
        <ele>571.64</ele>
        <time>2022-05-01T11:54:57Z</time>
      </trkpt>
      <trkpt lat="45.0514" lon="3.58196">
        <ele>571.16</ele>
        <time>2022-05-01T11:55:00Z</time>
      </trkpt>
      <trkpt lat="45.05133" lon="3.58195">
        <ele>568.76</ele>
        <time>2022-05-01T11:55:06Z</time>
      </trkpt>
      <trkpt lat="45.05121" lon="3.58192">
        <ele>567.8</ele>
        <time>2022-05-01T11:55:19Z</time>
      </trkpt>
      <trkpt lat="45.05111" lon="3.58189">
        <ele>565.87</ele>
        <time>2022-05-01T11:55:32Z</time>
      </trkpt>
      <trkpt lat="45.05095" lon="3.58187">
        <ele>565.87</ele>
        <time>2022-05-01T11:55:45Z</time>
      </trkpt>
      <trkpt lat="45.05088" lon="3.58185">
        <ele>565.87</ele>
        <time>2022-05-01T11:55:49Z</time>
      </trkpt>
      <trkpt lat="45.0508" lon="3.58182">
        <ele>566.83</ele>
        <time>2022-05-01T11:55:55Z</time>
      </trkpt>
      <trkpt lat="45.05065" lon="3.58181">
        <ele>566.35</ele>
        <time>2022-05-01T11:56:08Z</time>
      </trkpt>
      <trkpt lat="45.05062" lon="3.58181">
        <ele>565.87</ele>
        <time>2022-05-01T11:56:11Z</time>
      </trkpt>
      <trkpt lat="45.05054" lon="3.58179">
        <ele>563.47</ele>
        <time>2022-05-01T11:56:17Z</time>
      </trkpt>
      <trkpt lat="45.05031" lon="3.58176">
        <ele>563.47</ele>
        <time>2022-05-01T11:56:33Z</time>
      </trkpt>
      <trkpt lat="45.0502" lon="3.58172">
        <ele>561.55</ele>
        <time>2022-05-01T11:56:44Z</time>
      </trkpt>
      <trkpt lat="45.05002" lon="3.5817">
        <ele>557.7</ele>
        <time>2022-05-01T11:56:57Z</time>
      </trkpt>
      <trkpt lat="45.04998" lon="3.58171">
        <ele>556.74</ele>
        <time>2022-05-01T11:57:02Z</time>
      </trkpt>
      <trkpt lat="45.04982" lon="3.58176">
        <ele>552.41</ele>
        <time>2022-05-01T11:57:13Z</time>
      </trkpt>
      <trkpt lat="45.0498" lon="3.58178">
        <ele>551.93</ele>
        <time>2022-05-01T11:57:15Z</time>
      </trkpt>
      <trkpt lat="45.04968" lon="3.58183">
        <ele>547.61</ele>
        <time>2022-05-01T11:57:30Z</time>
      </trkpt>
      <trkpt lat="45.04966" lon="3.58182">
        <ele>543.76</ele>
        <time>2022-05-01T11:57:47Z</time>
      </trkpt>
      <trkpt lat="45.04966" lon="3.58182">
        <ele>542.32</ele>
        <time>2022-05-01T11:58:02Z</time>
      </trkpt>
      <trkpt lat="45.04965" lon="3.58181">
        <ele>541.36</ele>
        <time>2022-05-01T11:58:21Z</time>
      </trkpt>
      <trkpt lat="45.04965" lon="3.58181">
        <ele>541.36</ele>
        <time>2022-05-01T11:58:39Z</time>
      </trkpt>
      <trkpt lat="45.04964" lon="3.5818">
        <ele>540.4</ele>
        <time>2022-05-01T11:58:51Z</time>
      </trkpt>
      <trkpt lat="45.04965" lon="3.58183">
        <ele>539.44</ele>
        <time>2022-05-01T11:59:10Z</time>
      </trkpt>
      <trkpt lat="45.04967" lon="3.58184">
        <ele>540.88</ele>
        <time>2022-05-01T11:59:22Z</time>
      </trkpt>
      <trkpt lat="45.04968" lon="3.58184">
        <ele>540.88</ele>
        <time>2022-05-01T11:59:36Z</time>
      </trkpt>
      <trkpt lat="45.04967" lon="3.58186">
        <ele>539.92</ele>
        <time>2022-05-01T11:59:49Z</time>
      </trkpt>
      <trkpt lat="45.04962" lon="3.58189">
        <ele>539.92</ele>
        <time>2022-05-01T12:00:00Z</time>
      </trkpt>
      <trkpt lat="45.04963" lon="3.58189">
        <ele>541.36</ele>
        <time>2022-05-01T12:00:15Z</time>
      </trkpt>
      <trkpt lat="45.04963" lon="3.58187">
        <ele>541.36</ele>
        <time>2022-05-01T12:00:34Z</time>
      </trkpt>
      <trkpt lat="45.04963" lon="3.58188">
        <ele>540.88</ele>
        <time>2022-05-01T12:00:47Z</time>
      </trkpt>
      <trkpt lat="45.04965" lon="3.58187">
        <ele>540.88</ele>
        <time>2022-05-01T12:00:59Z</time>
      </trkpt>
      <trkpt lat="45.04964" lon="3.58186">
        <ele>540.4</ele>
        <time>2022-05-01T12:01:14Z</time>
      </trkpt>
      <trkpt lat="45.04964" lon="3.58186">
        <ele>539.92</ele>
        <time>2022-05-01T12:01:39Z</time>
      </trkpt>
      <trkpt lat="45.04964" lon="3.58186">
        <ele>539.44</ele>
        <time>2022-05-01T12:02:01Z</time>
      </trkpt>
      <trkpt lat="45.04956" lon="3.58196">
        <ele>539.92</ele>
        <time>2022-05-01T12:02:14Z</time>
      </trkpt>
      <trkpt lat="45.04937" lon="3.58219">
        <ele>540.88</ele>
        <time>2022-05-01T12:02:34Z</time>
      </trkpt>
      <trkpt lat="45.04935" lon="3.58221">
        <ele>540.88</ele>
        <time>2022-05-01T12:02:36Z</time>
      </trkpt>
      <trkpt lat="45.04919" lon="3.58241">
        <ele>544.72</ele>
        <time>2022-05-01T12:02:53Z</time>
      </trkpt>
      <trkpt lat="45.049" lon="3.58266">
        <ele>545.2</ele>
        <time>2022-05-01T12:03:13Z</time>
      </trkpt>
      <trkpt lat="45.04878" lon="3.58296">
        <ele>545.2</ele>
        <time>2022-05-01T12:03:36Z</time>
      </trkpt>
      <trkpt lat="45.04866" lon="3.58322">
        <ele>545.2</ele>
        <time>2022-05-01T12:03:53Z</time>
      </trkpt>
      <trkpt lat="45.04858" lon="3.58345">
        <ele>544.72</ele>
        <time>2022-05-01T12:04:08Z</time>
      </trkpt>
      <trkpt lat="45.04852" lon="3.58359">
        <ele>544.24</ele>
        <time>2022-05-01T12:04:17Z</time>
      </trkpt>
      <trkpt lat="45.04846" lon="3.5836">
        <ele>543.28</ele>
        <time>2022-05-01T12:04:22Z</time>
      </trkpt>
      <trkpt lat="45.04843" lon="3.58359">
        <ele>542.8</ele>
        <time>2022-05-01T12:04:25Z</time>
      </trkpt>
      <trkpt lat="45.04834" lon="3.58353">
        <ele>542.32</ele>
        <time>2022-05-01T12:04:34Z</time>
      </trkpt>
      <trkpt lat="45.04827" lon="3.58348">
        <ele>543.76</ele>
        <time>2022-05-01T12:04:40Z</time>
      </trkpt>
      <trkpt lat="45.04807" lon="3.58335">
        <ele>547.61</ele>
        <time>2022-05-01T12:04:57Z</time>
      </trkpt>
      <trkpt lat="45.04788" lon="3.58322">
        <ele>549.53</ele>
        <time>2022-05-01T12:05:14Z</time>
      </trkpt>
      <trkpt lat="45.04766" lon="3.58309">
        <ele>547.61</ele>
        <time>2022-05-01T12:05:32Z</time>
      </trkpt>
      <trkpt lat="45.04746" lon="3.58307">
        <ele>544.24</ele>
        <time>2022-05-01T12:05:47Z</time>
      </trkpt>
      <trkpt lat="45.04728" lon="3.58323">
        <ele>541.84</ele>
        <time>2022-05-01T12:06:03Z</time>
      </trkpt>
      <trkpt lat="45.04724" lon="3.58334">
        <ele>542.32</ele>
        <time>2022-05-01T12:06:10Z</time>
      </trkpt>
      <trkpt lat="45.04716" lon="3.58362">
        <ele>544.24</ele>
        <time>2022-05-01T12:06:28Z</time>
      </trkpt>
      <trkpt lat="45.04726" lon="3.58393">
        <ele>542.8</ele>
        <time>2022-05-01T12:06:46Z</time>
      </trkpt>
      <trkpt lat="45.04731" lon="3.58402">
        <ele>542.32</ele>
        <time>2022-05-01T12:06:53Z</time>
      </trkpt>
      <trkpt lat="45.04736" lon="3.58404">
        <ele>542.32</ele>
        <time>2022-05-01T12:06:57Z</time>
      </trkpt>
      <trkpt lat="45.04747" lon="3.58406">
        <ele>540.88</ele>
        <time>2022-05-01T12:07:10Z</time>
      </trkpt>
      <trkpt lat="45.0475" lon="3.58408">
        <ele>540.4</ele>
        <time>2022-05-01T12:07:20Z</time>
      </trkpt>
      <trkpt lat="45.04751" lon="3.58409">
        <ele>540.4</ele>
        <time>2022-05-01T12:07:33Z</time>
      </trkpt>
      <trkpt lat="45.04751" lon="3.58409">
        <ele>540.88</ele>
        <time>2022-05-01T12:07:44Z</time>
      </trkpt>
      <trkpt lat="45.04753" lon="3.58415">
        <ele>539.92</ele>
        <time>2022-05-01T12:07:56Z</time>
      </trkpt>
      <trkpt lat="45.04754" lon="3.58415">
        <ele>538.48</ele>
        <time>2022-05-01T12:08:10Z</time>
      </trkpt>
      <trkpt lat="45.04754" lon="3.58414">
        <ele>538.48</ele>
        <time>2022-05-01T12:08:24Z</time>
      </trkpt>
      <trkpt lat="45.04755" lon="3.58412">
        <ele>537.51</ele>
        <time>2022-05-01T12:08:38Z</time>
      </trkpt>
      <trkpt lat="45.04756" lon="3.58412">
        <ele>537.03</ele>
        <time>2022-05-01T12:08:53Z</time>
      </trkpt>
      <trkpt lat="45.04758" lon="3.58413">
        <ele>536.55</ele>
        <time>2022-05-01T12:09:07Z</time>
      </trkpt>
      <trkpt lat="45.04755" lon="3.58415">
        <ele>537.03</ele>
        <time>2022-05-01T12:09:19Z</time>
      </trkpt>
      <trkpt lat="45.04755" lon="3.58418">
        <ele>536.07</ele>
        <time>2022-05-01T12:09:33Z</time>
      </trkpt>
      <trkpt lat="45.04755" lon="3.58418">
        <ele>535.11</ele>
        <time>2022-05-01T12:09:52Z</time>
      </trkpt>
      <trkpt lat="45.04754" lon="3.58416">
        <ele>534.15</ele>
        <time>2022-05-01T12:10:06Z</time>
      </trkpt>
      <trkpt lat="45.04754" lon="3.58416">
        <ele>535.59</ele>
        <time>2022-05-01T12:10:18Z</time>
      </trkpt>
      <trkpt lat="45.04754" lon="3.58415">
        <ele>535.11</ele>
        <time>2022-05-01T12:10:32Z</time>
      </trkpt>
      <trkpt lat="45.04753" lon="3.58415">
        <ele>535.11</ele>
        <time>2022-05-01T12:11:02Z</time>
      </trkpt>
      <trkpt lat="45.04753" lon="3.58414">
        <ele>534.63</ele>
        <time>2022-05-01T12:11:37Z</time>
      </trkpt>
      <trkpt lat="45.04753" lon="3.58414">
        <ele>534.63</ele>
        <time>2022-05-01T12:12:19Z</time>
      </trkpt>
      <trkpt lat="45.04753" lon="3.58414">
        <ele>534.63</ele>
        <time>2022-05-01T12:12:53Z</time>
      </trkpt>
      <trkpt lat="45.04753" lon="3.58414">
        <ele>534.63</ele>
        <time>2022-05-01T12:13:30Z</time>
      </trkpt>
      <trkpt lat="45.04753" lon="3.58414">
        <ele>534.63</ele>
        <time>2022-05-01T12:14:02Z</time>
      </trkpt>
      <trkpt lat="45.04753" lon="3.58414">
        <ele>534.15</ele>
        <time>2022-05-01T12:14:28Z</time>
      </trkpt>
      <trkpt lat="45.04752" lon="3.58413">
        <ele>534.15</ele>
        <time>2022-05-01T12:14:56Z</time>
      </trkpt>
      <trkpt lat="45.04752" lon="3.58413">
        <ele>533.67</ele>
        <time>2022-05-01T12:15:12Z</time>
      </trkpt>
      <trkpt lat="45.04751" lon="3.58412">
        <ele>533.19</ele>
        <time>2022-05-01T12:15:39Z</time>
      </trkpt>
      <trkpt lat="45.04751" lon="3.58411">
        <ele>533.19</ele>
        <time>2022-05-01T12:16:05Z</time>
      </trkpt>
      <trkpt lat="45.04751" lon="3.58411">
        <ele>533.19</ele>
        <time>2022-05-01T12:16:30Z</time>
      </trkpt>
      <trkpt lat="45.04752" lon="3.5841">
        <ele>532.23</ele>
        <time>2022-05-01T12:16:57Z</time>
      </trkpt>
      <trkpt lat="45.04752" lon="3.5841">
        <ele>531.75</ele>
        <time>2022-05-01T12:17:31Z</time>
      </trkpt>
      <trkpt lat="45.04752" lon="3.5841">
        <ele>532.23</ele>
        <time>2022-05-01T12:18:00Z</time>
      </trkpt>
      <trkpt lat="45.04753" lon="3.58411">
        <ele>532.71</ele>
        <time>2022-05-01T12:18:25Z</time>
      </trkpt>
      <trkpt lat="45.04753" lon="3.58411">
        <ele>532.71</ele>
        <time>2022-05-01T12:18:51Z</time>
      </trkpt>
      <trkpt lat="45.04753" lon="3.58411">
        <ele>532.71</ele>
        <time>2022-05-01T12:19:19Z</time>
      </trkpt>
      <trkpt lat="45.04753" lon="3.58411">
        <ele>532.71</ele>
        <time>2022-05-01T12:19:47Z</time>
      </trkpt>
      <trkpt lat="45.04753" lon="3.58411">
        <ele>532.71</ele>
        <time>2022-05-01T12:20:15Z</time>
      </trkpt>
      <trkpt lat="45.04754" lon="3.58412">
        <ele>532.23</ele>
        <time>2022-05-01T12:20:39Z</time>
      </trkpt>
      <trkpt lat="45.04754" lon="3.58412">
        <ele>532.23</ele>
        <time>2022-05-01T12:21:05Z</time>
      </trkpt>
      <trkpt lat="45.04754" lon="3.58412">
        <ele>532.23</ele>
        <time>2022-05-01T12:21:32Z</time>
      </trkpt>
      <trkpt lat="45.04753" lon="3.58412">
        <ele>532.23</ele>
        <time>2022-05-01T12:21:55Z</time>
      </trkpt>
      <trkpt lat="45.04753" lon="3.58412">
        <ele>532.23</ele>
        <time>2022-05-01T12:22:24Z</time>
      </trkpt>
      <trkpt lat="45.04753" lon="3.58412">
        <ele>532.23</ele>
        <time>2022-05-01T12:22:53Z</time>
      </trkpt>
      <trkpt lat="45.04753" lon="3.58412">
        <ele>532.23</ele>
        <time>2022-05-01T12:23:21Z</time>
      </trkpt>
      <trkpt lat="45.04753" lon="3.58413">
        <ele>531.75</ele>
        <time>2022-05-01T12:23:49Z</time>
      </trkpt>
      <trkpt lat="45.04754" lon="3.58413">
        <ele>531.27</ele>
        <time>2022-05-01T12:24:19Z</time>
      </trkpt>
      <trkpt lat="45.04754" lon="3.58413">
        <ele>531.27</ele>
        <time>2022-05-01T12:24:54Z</time>
      </trkpt>
      <trkpt lat="45.04754" lon="3.58413">
        <ele>531.27</ele>
        <time>2022-05-01T12:25:20Z</time>
      </trkpt>
      <trkpt lat="45.04754" lon="3.58412">
        <ele>531.27</ele>
        <time>2022-05-01T12:25:51Z</time>
      </trkpt>
      <trkpt lat="45.04754" lon="3.58412">
        <ele>531.27</ele>
        <time>2022-05-01T12:26:11Z</time>
      </trkpt>
      <trkpt lat="45.04754" lon="3.58412">
        <ele>530.79</ele>
        <time>2022-05-01T12:26:36Z</time>
      </trkpt>
      <trkpt lat="45.04754" lon="3.58412">
        <ele>530.79</ele>
        <time>2022-05-01T12:27:01Z</time>
      </trkpt>
      <trkpt lat="45.04754" lon="3.58412">
        <ele>531.27</ele>
        <time>2022-05-01T12:27:27Z</time>
      </trkpt>
      <trkpt lat="45.04754" lon="3.58412">
        <ele>531.27</ele>
        <time>2022-05-01T12:27:47Z</time>
      </trkpt>
      <trkpt lat="45.04754" lon="3.58412">
        <ele>532.23</ele>
        <time>2022-05-01T12:27:55Z</time>
      </trkpt>
      <trkpt lat="45.04754" lon="3.58413">
        <ele>533.67</ele>
        <time>2022-05-01T12:28:12Z</time>
      </trkpt>
      <trkpt lat="45.04754" lon="3.58413">
        <ele>534.15</ele>
        <time>2022-05-01T12:28:26Z</time>
      </trkpt>
      <trkpt lat="45.04753" lon="3.58413">
        <ele>534.15</ele>
        <time>2022-05-01T12:28:39Z</time>
      </trkpt>
      <trkpt lat="45.04753" lon="3.58413">
        <ele>534.15</ele>
        <time>2022-05-01T12:28:49Z</time>
      </trkpt>
      <trkpt lat="45.04753" lon="3.58413">
        <ele>534.15</ele>
        <time>2022-05-01T12:29:04Z</time>
      </trkpt>
      <trkpt lat="45.04754" lon="3.58415">
        <ele>535.59</ele>
        <time>2022-05-01T12:29:17Z</time>
      </trkpt>
      <trkpt lat="45.04756" lon="3.58415">
        <ele>535.59</ele>
        <time>2022-05-01T12:29:30Z</time>
      </trkpt>
      <trkpt lat="45.04754" lon="3.58413">
        <ele>535.59</ele>
        <time>2022-05-01T12:29:41Z</time>
      </trkpt>
      <trkpt lat="45.04754" lon="3.58412">
        <ele>535.59</ele>
        <time>2022-05-01T12:29:50Z</time>
      </trkpt>
      <trkpt lat="45.04753" lon="3.58409">
        <ele>536.55</ele>
        <time>2022-05-01T12:30:02Z</time>
      </trkpt>
      <trkpt lat="45.04754" lon="3.5841">
        <ele>537.51</ele>
        <time>2022-05-01T12:30:12Z</time>
      </trkpt>
      <trkpt lat="45.04753" lon="3.58414">
        <ele>537.99</ele>
        <time>2022-05-01T12:30:27Z</time>
      </trkpt>
      <trkpt lat="45.04753" lon="3.58415">
        <ele>537.03</ele>
        <time>2022-05-01T12:30:40Z</time>
      </trkpt>
      <trkpt lat="45.04753" lon="3.58411">
        <ele>536.55</ele>
        <time>2022-05-01T12:30:48Z</time>
      </trkpt>
      <trkpt lat="45.04753" lon="3.58411">
        <ele>536.07</ele>
        <time>2022-05-01T12:31:01Z</time>
      </trkpt>
      <trkpt lat="45.04752" lon="3.5841">
        <ele>536.07</ele>
        <time>2022-05-01T12:31:15Z</time>
      </trkpt>
      <trkpt lat="45.04752" lon="3.58411">
        <ele>535.11</ele>
        <time>2022-05-01T12:31:38Z</time>
      </trkpt>
      <trkpt lat="45.04752" lon="3.58411">
        <ele>534.63</ele>
        <time>2022-05-01T12:31:59Z</time>
      </trkpt>
      <trkpt lat="45.04752" lon="3.58412">
        <ele>534.15</ele>
        <time>2022-05-01T12:32:16Z</time>
      </trkpt>
      <trkpt lat="45.04753" lon="3.58411">
        <ele>534.15</ele>
        <time>2022-05-01T12:32:37Z</time>
      </trkpt>
      <trkpt lat="45.04753" lon="3.58411">
        <ele>534.15</ele>
        <time>2022-05-01T12:32:55Z</time>
      </trkpt>
      <trkpt lat="45.04752" lon="3.58411">
        <ele>534.63</ele>
        <time>2022-05-01T12:33:09Z</time>
      </trkpt>
      <trkpt lat="45.04749" lon="3.58411">
        <ele>535.11</ele>
        <time>2022-05-01T12:33:15Z</time>
      </trkpt>
      <trkpt lat="45.04735" lon="3.58407">
        <ele>537.99</ele>
        <time>2022-05-01T12:33:26Z</time>
      </trkpt>
      <trkpt lat="45.04727" lon="3.58393">
        <ele>539.44</ele>
        <time>2022-05-01T12:33:40Z</time>
      </trkpt>
      <trkpt lat="45.04726" lon="3.58391">
        <ele>539.44</ele>
        <time>2022-05-01T12:33:41Z</time>
      </trkpt>
      <trkpt lat="45.0472" lon="3.58384">
        <ele>538.96</ele>
        <time>2022-05-01T12:33:49Z</time>
      </trkpt>
      <trkpt lat="45.04715" lon="3.58387">
        <ele>538.48</ele>
        <time>2022-05-01T12:33:56Z</time>
      </trkpt>
      <trkpt lat="45.04714" lon="3.5839">
        <ele>538.48</ele>
        <time>2022-05-01T12:33:58Z</time>
      </trkpt>
      <trkpt lat="45.04711" lon="3.58392">
        <ele>538.48</ele>
        <time>2022-05-01T12:34:01Z</time>
      </trkpt>
      <trkpt lat="45.04704" lon="3.584">
        <ele>538.48</ele>
        <time>2022-05-01T12:34:12Z</time>
      </trkpt>
      <trkpt lat="45.04683" lon="3.58407">
        <ele>540.88</ele>
        <time>2022-05-01T12:34:28Z</time>
      </trkpt>
      <trkpt lat="45.04677" lon="3.5841">
        <ele>542.8</ele>
        <time>2022-05-01T12:34:39Z</time>
      </trkpt>
      <trkpt lat="45.04666" lon="3.58424">
        <ele>542.8</ele>
        <time>2022-05-01T12:34:52Z</time>
      </trkpt>
      <trkpt lat="45.04658" lon="3.58436">
        <ele>543.76</ele>
        <time>2022-05-01T12:35:03Z</time>
      </trkpt>
      <trkpt lat="45.04646" lon="3.58442">
        <ele>546.65</ele>
        <time>2022-05-01T12:35:18Z</time>
      </trkpt>
      <trkpt lat="45.04635" lon="3.58448">
        <ele>550.97</ele>
        <time>2022-05-01T12:35:32Z</time>
      </trkpt>
      <trkpt lat="45.04627" lon="3.58448">
        <ele>554.34</ele>
        <time>2022-05-01T12:35:44Z</time>
      </trkpt>
      <trkpt lat="45.04619" lon="3.58449">
        <ele>554.34</ele>
        <time>2022-05-01T12:35:59Z</time>
      </trkpt>
      <trkpt lat="45.04616" lon="3.5846">
        <ele>555.78</ele>
        <time>2022-05-01T12:36:13Z</time>
      </trkpt>
      <trkpt lat="45.04613" lon="3.58467">
        <ele>556.74</ele>
        <time>2022-05-01T12:36:24Z</time>
      </trkpt>
      <trkpt lat="45.04606" lon="3.5847">
        <ele>558.18</ele>
        <time>2022-05-01T12:36:34Z</time>
      </trkpt>
      <trkpt lat="45.04597" lon="3.58476">
        <ele>559.62</ele>
        <time>2022-05-01T12:36:45Z</time>
      </trkpt>
      <trkpt lat="45.04589" lon="3.5848">
        <ele>562.51</ele>
        <time>2022-05-01T12:36:59Z</time>
      </trkpt>
      <trkpt lat="45.04588" lon="3.58482">
        <ele>564.43</ele>
        <time>2022-05-01T12:37:12Z</time>
      </trkpt>
      <trkpt lat="45.0458" lon="3.58489">
        <ele>571.16</ele>
        <time>2022-05-01T12:37:30Z</time>
      </trkpt>
      <trkpt lat="45.04575" lon="3.58496">
        <ele>575.97</ele>
        <time>2022-05-01T12:37:50Z</time>
      </trkpt>
      <trkpt lat="45.04567" lon="3.58499">
        <ele>580.29</ele>
        <time>2022-05-01T12:38:09Z</time>
      </trkpt>
      <trkpt lat="45.04552" lon="3.58508">
        <ele>586.06</ele>
        <time>2022-05-01T12:38:28Z</time>
      </trkpt>
      <trkpt lat="45.04543" lon="3.58519">
        <ele>590.39</ele>
        <time>2022-05-01T12:38:46Z</time>
      </trkpt>
      <trkpt lat="45.04539" lon="3.58524">
        <ele>592.79</ele>
        <time>2022-05-01T12:39:04Z</time>
      </trkpt>
      <trkpt lat="45.04534" lon="3.5853">
        <ele>594.71</ele>
        <time>2022-05-01T12:39:23Z</time>
      </trkpt>
      <trkpt lat="45.04522" lon="3.5854">
        <ele>596.64</ele>
        <time>2022-05-01T12:39:45Z</time>
      </trkpt>
      <trkpt lat="45.04513" lon="3.58553">
        <ele>597.12</ele>
        <time>2022-05-01T12:40:05Z</time>
      </trkpt>
      <trkpt lat="45.04498" lon="3.58576">
        <ele>599.52</ele>
        <time>2022-05-01T12:40:18Z</time>
      </trkpt>
      <trkpt lat="45.04491" lon="3.58583">
        <ele>598.56</ele>
        <time>2022-05-01T12:40:25Z</time>
      </trkpt>
      <trkpt lat="45.04474" lon="3.58598">
        <ele>600</ele>
        <time>2022-05-01T12:40:41Z</time>
      </trkpt>
      <trkpt lat="45.04468" lon="3.58614">
        <ele>603.36</ele>
        <time>2022-05-01T12:40:54Z</time>
      </trkpt>
      <trkpt lat="45.04465" lon="3.58627">
        <ele>605.29</ele>
        <time>2022-05-01T12:41:07Z</time>
      </trkpt>
      <trkpt lat="45.04457" lon="3.58641">
        <ele>605.77</ele>
        <time>2022-05-01T12:41:21Z</time>
      </trkpt>
      <trkpt lat="45.04458" lon="3.58658">
        <ele>609.13</ele>
        <time>2022-05-01T12:41:34Z</time>
      </trkpt>
      <trkpt lat="45.04453" lon="3.58668">
        <ele>608.65</ele>
        <time>2022-05-01T12:41:44Z</time>
      </trkpt>
      <trkpt lat="45.0445" lon="3.5868">
        <ele>610.09</ele>
        <time>2022-05-01T12:41:56Z</time>
      </trkpt>
      <trkpt lat="45.04446" lon="3.58695">
        <ele>612.98</ele>
        <time>2022-05-01T12:42:06Z</time>
      </trkpt>
      <trkpt lat="45.04438" lon="3.58715">
        <ele>614.9</ele>
        <time>2022-05-01T12:42:20Z</time>
      </trkpt>
      <trkpt lat="45.04438" lon="3.5872">
        <ele>614.9</ele>
        <time>2022-05-01T12:42:23Z</time>
      </trkpt>
      <trkpt lat="45.0444" lon="3.5874">
        <ele>617.3</ele>
        <time>2022-05-01T12:42:39Z</time>
      </trkpt>
      <trkpt lat="45.04432" lon="3.58754">
        <ele>619.71</ele>
        <time>2022-05-01T12:42:55Z</time>
      </trkpt>
      <trkpt lat="45.04431" lon="3.58761">
        <ele>621.63</ele>
        <time>2022-05-01T12:43:09Z</time>
      </trkpt>
      <trkpt lat="45.04427" lon="3.5877">
        <ele>624.03</ele>
        <time>2022-05-01T12:43:21Z</time>
      </trkpt>
      <trkpt lat="45.04419" lon="3.58792">
        <ele>626.92</ele>
        <time>2022-05-01T12:43:35Z</time>
      </trkpt>
      <trkpt lat="45.04416" lon="3.58809">
        <ele>629.8</ele>
        <time>2022-05-01T12:43:47Z</time>
      </trkpt>
      <trkpt lat="45.04411" lon="3.58829">
        <ele>634.13</ele>
        <time>2022-05-01T12:44:01Z</time>
      </trkpt>
      <trkpt lat="45.04406" lon="3.58847">
        <ele>637.01</ele>
        <time>2022-05-01T12:44:15Z</time>
      </trkpt>
      <trkpt lat="45.04398" lon="3.58862">
        <ele>638.93</ele>
        <time>2022-05-01T12:44:26Z</time>
      </trkpt>
      <trkpt lat="45.04389" lon="3.58862">
        <ele>637.97</ele>
        <time>2022-05-01T12:44:39Z</time>
      </trkpt>
      <trkpt lat="45.04388" lon="3.58844">
        <ele>637.49</ele>
        <time>2022-05-01T12:44:56Z</time>
      </trkpt>
      <trkpt lat="45.04387" lon="3.58838">
        <ele>637.01</ele>
        <time>2022-05-01T12:45:02Z</time>
      </trkpt>
      <trkpt lat="45.04383" lon="3.58816">
        <ele>636.53</ele>
        <time>2022-05-01T12:45:18Z</time>
      </trkpt>
      <trkpt lat="45.04382" lon="3.58802">
        <ele>637.97</ele>
        <time>2022-05-01T12:45:30Z</time>
      </trkpt>
      <trkpt lat="45.04377" lon="3.58787">
        <ele>638.45</ele>
        <time>2022-05-01T12:45:42Z</time>
      </trkpt>
      <trkpt lat="45.04373" lon="3.58776">
        <ele>640.86</ele>
        <time>2022-05-01T12:45:53Z</time>
      </trkpt>
      <trkpt lat="45.04369" lon="3.58768">
        <ele>643.26</ele>
        <time>2022-05-01T12:46:06Z</time>
      </trkpt>
      <trkpt lat="45.0436" lon="3.5875">
        <ele>645.18</ele>
        <time>2022-05-01T12:46:22Z</time>
      </trkpt>
      <trkpt lat="45.04354" lon="3.58739">
        <ele>647.1</ele>
        <time>2022-05-01T12:46:33Z</time>
      </trkpt>
      <trkpt lat="45.04348" lon="3.58725">
        <ele>647.59</ele>
        <time>2022-05-01T12:46:50Z</time>
      </trkpt>
      <trkpt lat="45.04342" lon="3.58712">
        <ele>650.47</ele>
        <time>2022-05-01T12:47:01Z</time>
      </trkpt>
      <trkpt lat="45.04336" lon="3.58716">
        <ele>655.28</ele>
        <time>2022-05-01T12:47:12Z</time>
      </trkpt>
      <trkpt lat="45.0433" lon="3.58725">
        <ele>659.12</ele>
        <time>2022-05-01T12:47:23Z</time>
      </trkpt>
      <trkpt lat="45.04326" lon="3.58738">
        <ele>662.49</ele>
        <time>2022-05-01T12:47:36Z</time>
      </trkpt>
      <trkpt lat="45.04318" lon="3.58757">
        <ele>666.33</ele>
        <time>2022-05-01T12:47:50Z</time>
      </trkpt>
      <trkpt lat="45.04311" lon="3.58763">
        <ele>666.33</ele>
        <time>2022-05-01T12:48:04Z</time>
      </trkpt>
      <trkpt lat="45.0431" lon="3.58759">
        <ele>665.85</ele>
        <time>2022-05-01T12:48:07Z</time>
      </trkpt>
      <trkpt lat="45.04304" lon="3.58741">
        <ele>666.33</ele>
        <time>2022-05-01T12:48:23Z</time>
      </trkpt>
      <trkpt lat="45.04302" lon="3.5873">
        <ele>665.85</ele>
        <time>2022-05-01T12:48:30Z</time>
      </trkpt>
      <trkpt lat="45.04302" lon="3.58724">
        <ele>666.33</ele>
        <time>2022-05-01T12:48:34Z</time>
      </trkpt>
      <trkpt lat="45.04304" lon="3.58711">
        <ele>664.89</ele>
        <time>2022-05-01T12:48:46Z</time>
      </trkpt>
      <trkpt lat="45.04304" lon="3.5871">
        <ele>663.93</ele>
        <time>2022-05-01T12:48:59Z</time>
      </trkpt>
      <trkpt lat="45.04304" lon="3.5871">
        <ele>662.97</ele>
        <time>2022-05-01T12:49:22Z</time>
      </trkpt>
      <trkpt lat="45.04302" lon="3.58709">
        <ele>663.45</ele>
        <time>2022-05-01T12:49:46Z</time>
      </trkpt>
      <trkpt lat="45.043" lon="3.58706">
        <ele>662.97</ele>
        <time>2022-05-01T12:49:59Z</time>
      </trkpt>
      <trkpt lat="45.043" lon="3.58705">
        <ele>663.45</ele>
        <time>2022-05-01T12:50:21Z</time>
      </trkpt>
      <trkpt lat="45.04301" lon="3.58704">
        <ele>663.93</ele>
        <time>2022-05-01T12:50:33Z</time>
      </trkpt>
      <trkpt lat="45.04301" lon="3.58705">
        <ele>663.93</ele>
        <time>2022-05-01T12:50:56Z</time>
      </trkpt>
      <trkpt lat="45.04301" lon="3.58703">
        <ele>664.41</ele>
        <time>2022-05-01T12:51:15Z</time>
      </trkpt>
      <trkpt lat="45.04301" lon="3.58701">
        <ele>665.37</ele>
        <time>2022-05-01T12:51:37Z</time>
      </trkpt>
      <trkpt lat="45.04301" lon="3.58701">
        <ele>665.37</ele>
        <time>2022-05-01T12:51:53Z</time>
      </trkpt>
      <trkpt lat="45.04302" lon="3.58699">
        <ele>665.85</ele>
        <time>2022-05-01T12:52:07Z</time>
      </trkpt>
      <trkpt lat="45.043" lon="3.58688">
        <ele>665.37</ele>
        <time>2022-05-01T12:52:18Z</time>
      </trkpt>
      <trkpt lat="45.04296" lon="3.58665">
        <ele>665.37</ele>
        <time>2022-05-01T12:52:34Z</time>
      </trkpt>
      <trkpt lat="45.04293" lon="3.5864">
        <ele>665.37</ele>
        <time>2022-05-01T12:52:51Z</time>
      </trkpt>
      <trkpt lat="45.04293" lon="3.58635">
        <ele>664.89</ele>
        <time>2022-05-01T12:53:09Z</time>
      </trkpt>
      <trkpt lat="45.0429" lon="3.5861">
        <ele>665.85</ele>
        <time>2022-05-01T12:53:25Z</time>
      </trkpt>
      <trkpt lat="45.04288" lon="3.58595">
        <ele>666.33</ele>
        <time>2022-05-01T12:53:35Z</time>
      </trkpt>
      <trkpt lat="45.04285" lon="3.58572">
        <ele>666.33</ele>
        <time>2022-05-01T12:53:51Z</time>
      </trkpt>
      <trkpt lat="45.04281" lon="3.58549">
        <ele>666.81</ele>
        <time>2022-05-01T12:54:06Z</time>
      </trkpt>
      <trkpt lat="45.04278" lon="3.58527">
        <ele>667.29</ele>
        <time>2022-05-01T12:54:21Z</time>
      </trkpt>
      <trkpt lat="45.04279" lon="3.58524">
        <ele>667.77</ele>
        <time>2022-05-01T12:54:23Z</time>
      </trkpt>
      <trkpt lat="45.04279" lon="3.58519">
        <ele>668.25</ele>
        <time>2022-05-01T12:54:26Z</time>
      </trkpt>
      <trkpt lat="45.04286" lon="3.58493">
        <ele>672.1</ele>
        <time>2022-05-01T12:54:43Z</time>
      </trkpt>
      <trkpt lat="45.04291" lon="3.58478">
        <ele>674.5</ele>
        <time>2022-05-01T12:54:53Z</time>
      </trkpt>
      <trkpt lat="45.043" lon="3.58456">
        <ele>676.91</ele>
        <time>2022-05-01T12:55:09Z</time>
      </trkpt>
      <trkpt lat="45.04305" lon="3.58438">
        <ele>679.31</ele>
        <time>2022-05-01T12:55:23Z</time>
      </trkpt>
      <trkpt lat="45.04306" lon="3.58435">
        <ele>679.79</ele>
        <time>2022-05-01T12:55:25Z</time>
      </trkpt>
      <trkpt lat="45.043" lon="3.58426">
        <ele>681.71</ele>
        <time>2022-05-01T12:55:37Z</time>
      </trkpt>
      <trkpt lat="45.04295" lon="3.58425">
        <ele>683.15</ele>
        <time>2022-05-01T12:55:42Z</time>
      </trkpt>
      <trkpt lat="45.04283" lon="3.58414">
        <ele>684.6</ele>
        <time>2022-05-01T12:55:55Z</time>
      </trkpt>
      <trkpt lat="45.0427" lon="3.58408">
        <ele>686.52</ele>
        <time>2022-05-01T12:56:10Z</time>
      </trkpt>
      <trkpt lat="45.04268" lon="3.58406">
        <ele>687</ele>
        <time>2022-05-01T12:56:12Z</time>
      </trkpt>
      <trkpt lat="45.04266" lon="3.584">
        <ele>688.44</ele>
        <time>2022-05-01T12:56:19Z</time>
      </trkpt>
      <trkpt lat="45.04279" lon="3.58374">
        <ele>690.36</ele>
        <time>2022-05-01T12:56:38Z</time>
      </trkpt>
      <trkpt lat="45.04281" lon="3.58372">
        <ele>690.36</ele>
        <time>2022-05-01T12:56:40Z</time>
      </trkpt>
      <trkpt lat="45.04291" lon="3.58349">
        <ele>692.77</ele>
        <time>2022-05-01T12:56:58Z</time>
      </trkpt>
      <trkpt lat="45.04293" lon="3.5834">
        <ele>693.73</ele>
        <time>2022-05-01T12:57:04Z</time>
      </trkpt>
      <trkpt lat="45.04289" lon="3.5832">
        <ele>694.69</ele>
        <time>2022-05-01T12:57:19Z</time>
      </trkpt>
      <trkpt lat="45.04283" lon="3.583">
        <ele>696.61</ele>
        <time>2022-05-01T12:57:34Z</time>
      </trkpt>
      <trkpt lat="45.04277" lon="3.58279">
        <ele>699.98</ele>
        <time>2022-05-01T12:57:48Z</time>
      </trkpt>
      <trkpt lat="45.04272" lon="3.58265">
        <ele>701.42</ele>
        <time>2022-05-01T12:57:58Z</time>
      </trkpt>
      <trkpt lat="45.04267" lon="3.58247">
        <ele>703.34</ele>
        <time>2022-05-01T12:58:11Z</time>
      </trkpt>
      <trkpt lat="45.04258" lon="3.58231">
        <ele>708.63</ele>
        <time>2022-05-01T12:58:26Z</time>
      </trkpt>
      <trkpt lat="45.0425" lon="3.58209">
        <ele>711.99</ele>
        <time>2022-05-01T12:58:41Z</time>
      </trkpt>
      <trkpt lat="45.04243" lon="3.58184">
        <ele>711.03</ele>
        <time>2022-05-01T12:58:56Z</time>
      </trkpt>
      <trkpt lat="45.04243" lon="3.5818">
        <ele>710.07</ele>
        <time>2022-05-01T12:59:06Z</time>
      </trkpt>
      <trkpt lat="45.04241" lon="3.58175">
        <ele>709.59</ele>
        <time>2022-05-01T12:59:13Z</time>
      </trkpt>
      <trkpt lat="45.04235" lon="3.58151">
        <ele>709.59</ele>
        <time>2022-05-01T12:59:29Z</time>
      </trkpt>
      <trkpt lat="45.04228" lon="3.58125">
        <ele>711.51</ele>
        <time>2022-05-01T12:59:46Z</time>
      </trkpt>
      <trkpt lat="45.04221" lon="3.58104">
        <ele>713.92</ele>
        <time>2022-05-01T13:00:01Z</time>
      </trkpt>
      <trkpt lat="45.04214" lon="3.58088">
        <ele>716.32</ele>
        <time>2022-05-01T13:00:14Z</time>
      </trkpt>
      <trkpt lat="45.04206" lon="3.58071">
        <ele>718.72</ele>
        <time>2022-05-01T13:00:29Z</time>
      </trkpt>
      <trkpt lat="45.04201" lon="3.58053">
        <ele>723.05</ele>
        <time>2022-05-01T13:00:44Z</time>
      </trkpt>
      <trkpt lat="45.04195" lon="3.58039">
        <ele>726.41</ele>
        <time>2022-05-01T13:00:58Z</time>
      </trkpt>
      <trkpt lat="45.04192" lon="3.58031">
        <ele>726.89</ele>
        <time>2022-05-01T13:01:04Z</time>
      </trkpt>
      <trkpt lat="45.04182" lon="3.58018">
        <ele>729.78</ele>
        <time>2022-05-01T13:01:19Z</time>
      </trkpt>
      <trkpt lat="45.0417" lon="3.58004">
        <ele>730.74</ele>
        <time>2022-05-01T13:01:34Z</time>
      </trkpt>
      <trkpt lat="45.04162" lon="3.57992">
        <ele>733.62</ele>
        <time>2022-05-01T13:01:46Z</time>
      </trkpt>
      <trkpt lat="45.04155" lon="3.57976">
        <ele>736.51</ele>
        <time>2022-05-01T13:01:59Z</time>
      </trkpt>
      <trkpt lat="45.04147" lon="3.57959">
        <ele>737.47</ele>
        <time>2022-05-01T13:02:12Z</time>
      </trkpt>
      <trkpt lat="45.04145" lon="3.57952">
        <ele>737.47</ele>
        <time>2022-05-01T13:02:16Z</time>
      </trkpt>
      <trkpt lat="45.04144" lon="3.57947">
        <ele>737.95</ele>
        <time>2022-05-01T13:02:19Z</time>
      </trkpt>
      <trkpt lat="45.04141" lon="3.57935">
        <ele>739.87</ele>
        <time>2022-05-01T13:02:29Z</time>
      </trkpt>
      <trkpt lat="45.04135" lon="3.57925">
        <ele>741.79</ele>
        <time>2022-05-01T13:02:38Z</time>
      </trkpt>
      <trkpt lat="45.04127" lon="3.57911">
        <ele>747.56</ele>
        <time>2022-05-01T13:02:51Z</time>
      </trkpt>
      <trkpt lat="45.04123" lon="3.57907">
        <ele>750.45</ele>
        <time>2022-05-01T13:02:57Z</time>
      </trkpt>
      <trkpt lat="45.04118" lon="3.57903">
        <ele>751.89</ele>
        <time>2022-05-01T13:03:03Z</time>
      </trkpt>
      <trkpt lat="45.04117" lon="3.57903">
        <ele>752.37</ele>
        <time>2022-05-01T13:03:05Z</time>
      </trkpt>
      <trkpt lat="45.04106" lon="3.57897">
        <ele>756.69</ele>
        <time>2022-05-01T13:03:17Z</time>
      </trkpt>
      <trkpt lat="45.04099" lon="3.5788">
        <ele>755.73</ele>
        <time>2022-05-01T13:03:31Z</time>
      </trkpt>
      <trkpt lat="45.04098" lon="3.57875">
        <ele>755.73</ele>
        <time>2022-05-01T13:03:36Z</time>
      </trkpt>
      <trkpt lat="45.04104" lon="3.57856">
        <ele>757.18</ele>
        <time>2022-05-01T13:03:49Z</time>
      </trkpt>
      <trkpt lat="45.04104" lon="3.57842">
        <ele>756.21</ele>
        <time>2022-05-01T13:04:00Z</time>
      </trkpt>
      <trkpt lat="45.04099" lon="3.57826">
        <ele>759.58</ele>
        <time>2022-05-01T13:04:14Z</time>
      </trkpt>
      <trkpt lat="45.04098" lon="3.57823">
        <ele>761.02</ele>
        <time>2022-05-01T13:04:18Z</time>
      </trkpt>
      <trkpt lat="45.0409" lon="3.57819">
        <ele>766.79</ele>
        <time>2022-05-01T13:04:31Z</time>
      </trkpt>
      <trkpt lat="45.04087" lon="3.57818">
        <ele>767.75</ele>
        <time>2022-05-01T13:04:33Z</time>
      </trkpt>
      <trkpt lat="45.04076" lon="3.57816">
        <ele>770.63</ele>
        <time>2022-05-01T13:04:45Z</time>
      </trkpt>
      <trkpt lat="45.04066" lon="3.5781">
        <ele>772.56</ele>
        <time>2022-05-01T13:04:59Z</time>
      </trkpt>
      <trkpt lat="45.04048" lon="3.57808">
        <ele>774</ele>
        <time>2022-05-01T13:05:12Z</time>
      </trkpt>
      <trkpt lat="45.04036" lon="3.57797">
        <ele>775.44</ele>
        <time>2022-05-01T13:05:25Z</time>
      </trkpt>
      <trkpt lat="45.04024" lon="3.57785">
        <ele>776.88</ele>
        <time>2022-05-01T13:05:39Z</time>
      </trkpt>
      <trkpt lat="45.04011" lon="3.57779">
        <ele>779.77</ele>
        <time>2022-05-01T13:05:53Z</time>
      </trkpt>
      <trkpt lat="45.04001" lon="3.57771">
        <ele>780.73</ele>
        <time>2022-05-01T13:06:04Z</time>
      </trkpt>
      <trkpt lat="45.0399" lon="3.57766">
        <ele>785.05</ele>
        <time>2022-05-01T13:06:18Z</time>
      </trkpt>
      <trkpt lat="45.0398" lon="3.57761">
        <ele>786.98</ele>
        <time>2022-05-01T13:06:28Z</time>
      </trkpt>
      <trkpt lat="45.03967" lon="3.57756">
        <ele>789.86</ele>
        <time>2022-05-01T13:06:42Z</time>
      </trkpt>
      <trkpt lat="45.03966" lon="3.57755">
        <ele>790.34</ele>
        <time>2022-05-01T13:06:44Z</time>
      </trkpt>
      <trkpt lat="45.03965" lon="3.57752">
        <ele>790.82</ele>
        <time>2022-05-01T13:06:46Z</time>
      </trkpt>
      <trkpt lat="45.0397" lon="3.57738">
        <ele>794.19</ele>
        <time>2022-05-01T13:06:59Z</time>
      </trkpt>
      <trkpt lat="45.03976" lon="3.57726">
        <ele>798.03</ele>
        <time>2022-05-01T13:07:12Z</time>
      </trkpt>
      <trkpt lat="45.03985" lon="3.57709">
        <ele>802.36</ele>
        <time>2022-05-01T13:07:27Z</time>
      </trkpt>
      <trkpt lat="45.03996" lon="3.57689">
        <ele>806.68</ele>
        <time>2022-05-01T13:07:44Z</time>
      </trkpt>
      <trkpt lat="45.03994" lon="3.57685">
        <ele>807.64</ele>
        <time>2022-05-01T13:07:47Z</time>
      </trkpt>
      <trkpt lat="45.03993" lon="3.57682">
        <ele>808.13</ele>
        <time>2022-05-01T13:07:50Z</time>
      </trkpt>
      <trkpt lat="45.03989" lon="3.5768">
        <ele>809.09</ele>
        <time>2022-05-01T13:07:56Z</time>
      </trkpt>
      <trkpt lat="45.03984" lon="3.57673">
        <ele>811.49</ele>
        <time>2022-05-01T13:08:10Z</time>
      </trkpt>
      <trkpt lat="45.03982" lon="3.57673">
        <ele>812.45</ele>
        <time>2022-05-01T13:08:14Z</time>
      </trkpt>
      <trkpt lat="45.0398" lon="3.57675">
        <ele>813.89</ele>
        <time>2022-05-01T13:08:17Z</time>
      </trkpt>
      <trkpt lat="45.03961" lon="3.57671">
        <ele>815.82</ele>
        <time>2022-05-01T13:08:32Z</time>
      </trkpt>
      <trkpt lat="45.03947" lon="3.57665">
        <ele>818.22</ele>
        <time>2022-05-01T13:08:45Z</time>
      </trkpt>
      <trkpt lat="45.03932" lon="3.57661">
        <ele>819.66</ele>
        <time>2022-05-01T13:09:02Z</time>
      </trkpt>
      <trkpt lat="45.03915" lon="3.57661">
        <ele>821.1</ele>
        <time>2022-05-01T13:09:18Z</time>
      </trkpt>
      <trkpt lat="45.03914" lon="3.57661">
        <ele>821.1</ele>
        <time>2022-05-01T13:09:19Z</time>
      </trkpt>
      <trkpt lat="45.03897" lon="3.57671">
        <ele>824.95</ele>
        <time>2022-05-01T13:09:33Z</time>
      </trkpt>
      <trkpt lat="45.03884" lon="3.57676">
        <ele>829.76</ele>
        <time>2022-05-01T13:09:49Z</time>
      </trkpt>
      <trkpt lat="45.03865" lon="3.5768">
        <ele>831.68</ele>
        <time>2022-05-01T13:10:05Z</time>
      </trkpt>
      <trkpt lat="45.03849" lon="3.57683">
        <ele>833.6</ele>
        <time>2022-05-01T13:10:19Z</time>
      </trkpt>
      <trkpt lat="45.03838" lon="3.5769">
        <ele>839.85</ele>
        <time>2022-05-01T13:10:35Z</time>
      </trkpt>
      <trkpt lat="45.03827" lon="3.577">
        <ele>842.25</ele>
        <time>2022-05-01T13:10:49Z</time>
      </trkpt>
      <trkpt lat="45.03814" lon="3.57694">
        <ele>843.69</ele>
        <time>2022-05-01T13:11:02Z</time>
      </trkpt>
      <trkpt lat="45.03811" lon="3.5769">
        <ele>844.18</ele>
        <time>2022-05-01T13:11:06Z</time>
      </trkpt>
      <trkpt lat="45.03804" lon="3.57674">
        <ele>845.14</ele>
        <time>2022-05-01T13:11:18Z</time>
      </trkpt>
      <trkpt lat="45.038" lon="3.57663">
        <ele>847.06</ele>
        <time>2022-05-01T13:11:31Z</time>
      </trkpt>
      <trkpt lat="45.03798" lon="3.57655">
        <ele>846.58</ele>
        <time>2022-05-01T13:11:42Z</time>
      </trkpt>
      <trkpt lat="45.03797" lon="3.57651">
        <ele>844.66</ele>
        <time>2022-05-01T13:12:10Z</time>
      </trkpt>
      <trkpt lat="45.03796" lon="3.57649">
        <ele>844.18</ele>
        <time>2022-05-01T13:12:42Z</time>
      </trkpt>
      <trkpt lat="45.03796" lon="3.57649">
        <ele>844.66</ele>
        <time>2022-05-01T13:13:17Z</time>
      </trkpt>
      <trkpt lat="45.03797" lon="3.57648">
        <ele>845.14</ele>
        <time>2022-05-01T13:13:56Z</time>
      </trkpt>
      <trkpt lat="45.03797" lon="3.57648">
        <ele>845.14</ele>
        <time>2022-05-01T13:14:24Z</time>
      </trkpt>
      <trkpt lat="45.03797" lon="3.57648">
        <ele>845.14</ele>
        <time>2022-05-01T13:14:49Z</time>
      </trkpt>
      <trkpt lat="45.03797" lon="3.57648">
        <ele>846.1</ele>
        <time>2022-05-01T13:15:22Z</time>
      </trkpt>
      <trkpt lat="45.03797" lon="3.57648">
        <ele>846.1</ele>
        <time>2022-05-01T13:15:41Z</time>
      </trkpt>
      <trkpt lat="45.03796" lon="3.57649">
        <ele>845.62</ele>
        <time>2022-05-01T13:16:07Z</time>
      </trkpt>
      <trkpt lat="45.03796" lon="3.57649">
        <ele>845.62</ele>
        <time>2022-05-01T13:16:31Z</time>
      </trkpt>
      <trkpt lat="45.03795" lon="3.57648">
        <ele>846.1</ele>
        <time>2022-05-01T13:16:56Z</time>
      </trkpt>
      <trkpt lat="45.03796" lon="3.57647">
        <ele>845.62</ele>
        <time>2022-05-01T13:17:29Z</time>
      </trkpt>
      <trkpt lat="45.03795" lon="3.57647">
        <ele>845.62</ele>
        <time>2022-05-01T13:17:57Z</time>
      </trkpt>
      <trkpt lat="45.03794" lon="3.57647">
        <ele>845.14</ele>
        <time>2022-05-01T13:18:26Z</time>
      </trkpt>
      <trkpt lat="45.03794" lon="3.57647">
        <ele>845.62</ele>
        <time>2022-05-01T13:18:50Z</time>
      </trkpt>
      <trkpt lat="45.03793" lon="3.57648">
        <ele>846.1</ele>
        <time>2022-05-01T13:19:21Z</time>
      </trkpt>
      <trkpt lat="45.03794" lon="3.57647">
        <ele>846.1</ele>
        <time>2022-05-01T13:19:50Z</time>
      </trkpt>
      <trkpt lat="45.03795" lon="3.57647">
        <ele>846.1</ele>
        <time>2022-05-01T13:20:16Z</time>
      </trkpt>
      <trkpt lat="45.03795" lon="3.57648">
        <ele>845.14</ele>
        <time>2022-05-01T13:20:51Z</time>
      </trkpt>
      <trkpt lat="45.03795" lon="3.57648">
        <ele>844.66</ele>
        <time>2022-05-01T13:21:20Z</time>
      </trkpt>
      <trkpt lat="45.03795" lon="3.57647">
        <ele>845.14</ele>
        <time>2022-05-01T13:21:50Z</time>
      </trkpt>
      <trkpt lat="45.03796" lon="3.57647">
        <ele>846.1</ele>
        <time>2022-05-01T13:22:20Z</time>
      </trkpt>
      <trkpt lat="45.03795" lon="3.57648">
        <ele>846.58</ele>
        <time>2022-05-01T13:22:50Z</time>
      </trkpt>
      <trkpt lat="45.03795" lon="3.57648">
        <ele>846.58</ele>
        <time>2022-05-01T13:23:19Z</time>
      </trkpt>
      <trkpt lat="45.03795" lon="3.57648">
        <ele>847.06</ele>
        <time>2022-05-01T13:23:38Z</time>
      </trkpt>
      <trkpt lat="45.03795" lon="3.57648">
        <ele>846.1</ele>
        <time>2022-05-01T13:24:09Z</time>
      </trkpt>
      <trkpt lat="45.03794" lon="3.57647">
        <ele>846.58</ele>
        <time>2022-05-01T13:24:40Z</time>
      </trkpt>
      <trkpt lat="45.03794" lon="3.57647">
        <ele>846.58</ele>
        <time>2022-05-01T13:25:05Z</time>
      </trkpt>
      <trkpt lat="45.03794" lon="3.57647">
        <ele>847.06</ele>
        <time>2022-05-01T13:25:34Z</time>
      </trkpt>
      <trkpt lat="45.03795" lon="3.57647">
        <ele>846.58</ele>
        <time>2022-05-01T13:26:05Z</time>
      </trkpt>
      <trkpt lat="45.03795" lon="3.57647">
        <ele>846.58</ele>
        <time>2022-05-01T13:26:34Z</time>
      </trkpt>
      <trkpt lat="45.03796" lon="3.57647">
        <ele>846.58</ele>
        <time>2022-05-01T13:27:01Z</time>
      </trkpt>
      <trkpt lat="45.03796" lon="3.57648">
        <ele>846.58</ele>
        <time>2022-05-01T13:27:42Z</time>
      </trkpt>
      <trkpt lat="45.03794" lon="3.57651">
        <ele>847.54</ele>
        <time>2022-05-01T13:28:09Z</time>
      </trkpt>
      <trkpt lat="45.03794" lon="3.57654">
        <ele>846.58</ele>
        <time>2022-05-01T13:28:20Z</time>
      </trkpt>
      <trkpt lat="45.03794" lon="3.57656">
        <ele>845.62</ele>
        <time>2022-05-01T13:28:30Z</time>
      </trkpt>
      <trkpt lat="45.03794" lon="3.57657">
        <ele>845.14</ele>
        <time>2022-05-01T13:28:46Z</time>
      </trkpt>
      <trkpt lat="45.03794" lon="3.57657">
        <ele>844.66</ele>
        <time>2022-05-01T13:28:59Z</time>
      </trkpt>
      <trkpt lat="45.03794" lon="3.57657">
        <ele>843.69</ele>
        <time>2022-05-01T13:29:15Z</time>
      </trkpt>
      <trkpt lat="45.03794" lon="3.57657">
        <ele>842.73</ele>
        <time>2022-05-01T13:29:33Z</time>
      </trkpt>
      <trkpt lat="45.03795" lon="3.57659">
        <ele>842.73</ele>
        <time>2022-05-01T13:29:46Z</time>
      </trkpt>
      <trkpt lat="45.03795" lon="3.57658">
        <ele>842.73</ele>
        <time>2022-05-01T13:30:01Z</time>
      </trkpt>
      <trkpt lat="45.0379" lon="3.57654">
        <ele>843.21</ele>
        <time>2022-05-01T13:30:13Z</time>
      </trkpt>
      <trkpt lat="45.03782" lon="3.57645">
        <ele>843.69</ele>
        <time>2022-05-01T13:30:27Z</time>
      </trkpt>
      <trkpt lat="45.0378" lon="3.57643">
        <ele>844.18</ele>
        <time>2022-05-01T13:30:30Z</time>
      </trkpt>
      <trkpt lat="45.03777" lon="3.57638">
        <ele>844.66</ele>
        <time>2022-05-01T13:30:34Z</time>
      </trkpt>
      <trkpt lat="45.03763" lon="3.5762">
        <ele>847.06</ele>
        <time>2022-05-01T13:30:51Z</time>
      </trkpt>
      <trkpt lat="45.03751" lon="3.57605">
        <ele>847.54</ele>
        <time>2022-05-01T13:31:06Z</time>
      </trkpt>
      <trkpt lat="45.03741" lon="3.5759">
        <ele>848.02</ele>
        <time>2022-05-01T13:31:21Z</time>
      </trkpt>
      <trkpt lat="45.03736" lon="3.57578">
        <ele>849.46</ele>
        <time>2022-05-01T13:31:32Z</time>
      </trkpt>
      <trkpt lat="45.03732" lon="3.57568">
        <ele>851.38</ele>
        <time>2022-05-01T13:31:44Z</time>
      </trkpt>
      <trkpt lat="45.03724" lon="3.57554">
        <ele>852.35</ele>
        <time>2022-05-01T13:31:59Z</time>
      </trkpt>
      <trkpt lat="45.03715" lon="3.57537">
        <ele>854.75</ele>
        <time>2022-05-01T13:32:15Z</time>
      </trkpt>
      <trkpt lat="45.03705" lon="3.57525">
        <ele>856.19</ele>
        <time>2022-05-01T13:32:27Z</time>
      </trkpt>
      <trkpt lat="45.03698" lon="3.57519">
        <ele>858.11</ele>
        <time>2022-05-01T13:32:40Z</time>
      </trkpt>
      <trkpt lat="45.03686" lon="3.57508">
        <ele>861</ele>
        <time>2022-05-01T13:32:54Z</time>
      </trkpt>
      <trkpt lat="45.03676" lon="3.57491">
        <ele>863.88</ele>
        <time>2022-05-01T13:33:08Z</time>
      </trkpt>
      <trkpt lat="45.03666" lon="3.57465">
        <ele>867.25</ele>
        <time>2022-05-01T13:33:25Z</time>
      </trkpt>
      <trkpt lat="45.03658" lon="3.57433">
        <ele>869.17</ele>
        <time>2022-05-01T13:33:43Z</time>
      </trkpt>
      <trkpt lat="45.03654" lon="3.57421">
        <ele>869.65</ele>
        <time>2022-05-01T13:33:50Z</time>
      </trkpt>
      <trkpt lat="45.03649" lon="3.57391">
        <ele>867.73</ele>
        <time>2022-05-01T13:34:05Z</time>
      </trkpt>
      <trkpt lat="45.03647" lon="3.57385">
        <ele>867.73</ele>
        <time>2022-05-01T13:34:09Z</time>
      </trkpt>
      <trkpt lat="45.03644" lon="3.57372">
        <ele>867.25</ele>
        <time>2022-05-01T13:34:16Z</time>
      </trkpt>
      <trkpt lat="45.03641" lon="3.57359">
        <ele>867.73</ele>
        <time>2022-05-01T13:34:23Z</time>
      </trkpt>
      <trkpt lat="45.0364" lon="3.5735">
        <ele>867.73</ele>
        <time>2022-05-01T13:34:28Z</time>
      </trkpt>
      <trkpt lat="45.03633" lon="3.57322">
        <ele>869.17</ele>
        <time>2022-05-01T13:34:45Z</time>
      </trkpt>
      <trkpt lat="45.03622" lon="3.57302">
        <ele>871.57</ele>
        <time>2022-05-01T13:35:02Z</time>
      </trkpt>
      <trkpt lat="45.03619" lon="3.57292">
        <ele>872.53</ele>
        <time>2022-05-01T13:35:16Z</time>
      </trkpt>
      <trkpt lat="45.03622" lon="3.57289">
        <ele>872.53</ele>
        <time>2022-05-01T13:35:22Z</time>
      </trkpt>
      <trkpt lat="45.03626" lon="3.57281">
        <ele>872.05</ele>
        <time>2022-05-01T13:35:36Z</time>
      </trkpt>
      <trkpt lat="45.03629" lon="3.57276">
        <ele>873.01</ele>
        <time>2022-05-01T13:35:45Z</time>
      </trkpt>
      <trkpt lat="45.03635" lon="3.57263">
        <ele>873.01</ele>
        <time>2022-05-01T13:35:56Z</time>
      </trkpt>
      <trkpt lat="45.03639" lon="3.57259">
        <ele>872.53</ele>
        <time>2022-05-01T13:36:00Z</time>
      </trkpt>
      <trkpt lat="45.03643" lon="3.57249">
        <ele>871.57</ele>
        <time>2022-05-01T13:36:09Z</time>
      </trkpt>
      <trkpt lat="45.03653" lon="3.5723">
        <ele>867.73</ele>
        <time>2022-05-01T13:36:28Z</time>
      </trkpt>
      <trkpt lat="45.03653" lon="3.57229">
        <ele>867.25</ele>
        <time>2022-05-01T13:36:29Z</time>
      </trkpt>
      <trkpt lat="45.03656" lon="3.57217">
        <ele>866.77</ele>
        <time>2022-05-01T13:36:37Z</time>
      </trkpt>
      <trkpt lat="45.03657" lon="3.57214">
        <ele>866.77</ele>
        <time>2022-05-01T13:36:39Z</time>
      </trkpt>
      <trkpt lat="45.03659" lon="3.57211">
        <ele>866.77</ele>
        <time>2022-05-01T13:36:41Z</time>
      </trkpt>
      <trkpt lat="45.03665" lon="3.57188">
        <ele>864.36</ele>
        <time>2022-05-01T13:36:57Z</time>
      </trkpt>
      <trkpt lat="45.03668" lon="3.57165">
        <ele>862.92</ele>
        <time>2022-05-01T13:37:13Z</time>
      </trkpt>
      <trkpt lat="45.03673" lon="3.57142">
        <ele>862.44</ele>
        <time>2022-05-01T13:37:30Z</time>
      </trkpt>
      <trkpt lat="45.03679" lon="3.57118">
        <ele>863.4</ele>
        <time>2022-05-01T13:37:46Z</time>
      </trkpt>
      <trkpt lat="45.03685" lon="3.57106">
        <ele>870.13</ele>
        <time>2022-05-01T13:38:01Z</time>
      </trkpt>
      <trkpt lat="45.03698" lon="3.57092">
        <ele>879.26</ele>
        <time>2022-05-01T13:38:17Z</time>
      </trkpt>
      <trkpt lat="45.03713" lon="3.57076">
        <ele>883.59</ele>
        <time>2022-05-01T13:38:30Z</time>
      </trkpt>
      <trkpt lat="45.03724" lon="3.57062">
        <ele>883.59</ele>
        <time>2022-05-01T13:38:46Z</time>
      </trkpt>
      <trkpt lat="45.03736" lon="3.57052">
        <ele>882.63</ele>
        <time>2022-05-01T13:39:04Z</time>
      </trkpt>
      <trkpt lat="45.03742" lon="3.5705">
        <ele>883.59</ele>
        <time>2022-05-01T13:39:17Z</time>
      </trkpt>
      <trkpt lat="45.03744" lon="3.57046">
        <ele>885.51</ele>
        <time>2022-05-01T13:39:23Z</time>
      </trkpt>
      <trkpt lat="45.03748" lon="3.57043">
        <ele>885.99</ele>
        <time>2022-05-01T13:39:29Z</time>
      </trkpt>
      <trkpt lat="45.03751" lon="3.57038">
        <ele>885.99</ele>
        <time>2022-05-01T13:39:33Z</time>
      </trkpt>
      <trkpt lat="45.03764" lon="3.57017">
        <ele>885.03</ele>
        <time>2022-05-01T13:39:48Z</time>
      </trkpt>
      <trkpt lat="45.03775" lon="3.56995">
        <ele>888.4</ele>
        <time>2022-05-01T13:40:02Z</time>
      </trkpt>
      <trkpt lat="45.03776" lon="3.56987">
        <ele>889.84</ele>
        <time>2022-05-01T13:40:07Z</time>
      </trkpt>
      <trkpt lat="45.03779" lon="3.5698">
        <ele>888.88</ele>
        <time>2022-05-01T13:40:11Z</time>
      </trkpt>
      <trkpt lat="45.03786" lon="3.56963">
        <ele>887.43</ele>
        <time>2022-05-01T13:40:22Z</time>
      </trkpt>
      <trkpt lat="45.03786" lon="3.56961">
        <ele>887.43</ele>
        <time>2022-05-01T13:40:24Z</time>
      </trkpt>
      <trkpt lat="45.03788" lon="3.56955">
        <ele>886.95</ele>
        <time>2022-05-01T13:40:30Z</time>
      </trkpt>
      <trkpt lat="45.03788" lon="3.56946">
        <ele>886.95</ele>
        <time>2022-05-01T13:40:37Z</time>
      </trkpt>
      <trkpt lat="45.0379" lon="3.56924">
        <ele>885.99</ele>
        <time>2022-05-01T13:40:52Z</time>
      </trkpt>
      <trkpt lat="45.03793" lon="3.56903">
        <ele>885.99</ele>
        <time>2022-05-01T13:41:06Z</time>
      </trkpt>
      <trkpt lat="45.03795" lon="3.569">
        <ele>886.47</ele>
        <time>2022-05-01T13:41:08Z</time>
      </trkpt>
      <trkpt lat="45.03807" lon="3.56894">
        <ele>881.67</ele>
        <time>2022-05-01T13:41:18Z</time>
      </trkpt>
      <trkpt lat="45.0382" lon="3.56897">
        <ele>875.9</ele>
        <time>2022-05-01T13:41:32Z</time>
      </trkpt>
      <trkpt lat="45.03824" lon="3.569">
        <ele>873.98</ele>
        <time>2022-05-01T13:41:40Z</time>
      </trkpt>
      <trkpt lat="45.03841" lon="3.56916">
        <ele>866.29</ele>
        <time>2022-05-01T13:41:59Z</time>
      </trkpt>
      <trkpt lat="45.03854" lon="3.5693">
        <ele>868.69</ele>
        <time>2022-05-01T13:42:13Z</time>
      </trkpt>
      <trkpt lat="45.03881" lon="3.56936">
        <ele>853.31</ele>
        <time>2022-05-01T13:42:28Z</time>
      </trkpt>
      <trkpt lat="45.03902" lon="3.56925">
        <ele>835.52</ele>
        <time>2022-05-01T13:42:44Z</time>
      </trkpt>
      <trkpt lat="45.03904" lon="3.56924">
        <ele>835.04</ele>
        <time>2022-05-01T13:42:46Z</time>
      </trkpt>
      <trkpt lat="45.03915" lon="3.56903">
        <ele>829.27</ele>
        <time>2022-05-01T13:43:01Z</time>
      </trkpt>
      <trkpt lat="45.03919" lon="3.56897">
        <ele>826.87</ele>
        <time>2022-05-01T13:43:14Z</time>
      </trkpt>
      <trkpt lat="45.0392" lon="3.56893">
        <ele>825.91</ele>
        <time>2022-05-01T13:43:30Z</time>
      </trkpt>
      <trkpt lat="45.03924" lon="3.56885">
        <ele>820.62</ele>
        <time>2022-05-01T13:43:41Z</time>
      </trkpt>
      <trkpt lat="45.03924" lon="3.56881">
        <ele>819.66</ele>
        <time>2022-05-01T13:43:52Z</time>
      </trkpt>
      <trkpt lat="45.03926" lon="3.56875">
        <ele>816.78</ele>
        <time>2022-05-01T13:44:09Z</time>
      </trkpt>
      <trkpt lat="45.03928" lon="3.56856">
        <ele>816.78</ele>
        <time>2022-05-01T13:44:25Z</time>
      </trkpt>
      <trkpt lat="45.03934" lon="3.56837">
        <ele>816.78</ele>
        <time>2022-05-01T13:44:40Z</time>
      </trkpt>
      <trkpt lat="45.03938" lon="3.56822">
        <ele>818.22</ele>
        <time>2022-05-01T13:44:51Z</time>
      </trkpt>
      <trkpt lat="45.03941" lon="3.56811">
        <ele>822.06</ele>
        <time>2022-05-01T13:45:06Z</time>
      </trkpt>
      <trkpt lat="45.03942" lon="3.56798">
        <ele>823.99</ele>
        <time>2022-05-01T13:45:13Z</time>
      </trkpt>
      <trkpt lat="45.03945" lon="3.56773">
        <ele>832.16</ele>
        <time>2022-05-01T13:45:31Z</time>
      </trkpt>
      <trkpt lat="45.03946" lon="3.5677">
        <ele>833.6</ele>
        <time>2022-05-01T13:45:33Z</time>
      </trkpt>
      <trkpt lat="45.0395" lon="3.56744">
        <ele>839.85</ele>
        <time>2022-05-01T13:45:49Z</time>
      </trkpt>
      <trkpt lat="45.03951" lon="3.56732">
        <ele>845.14</ele>
        <time>2022-05-01T13:46:04Z</time>
      </trkpt>
      <trkpt lat="45.03952" lon="3.5672">
        <ele>851.38</ele>
        <time>2022-05-01T13:46:17Z</time>
      </trkpt>
      <trkpt lat="45.03953" lon="3.56701">
        <ele>862.92</ele>
        <time>2022-05-01T13:46:34Z</time>
      </trkpt>
      <trkpt lat="45.0395" lon="3.56689">
        <ele>869.17</ele>
        <time>2022-05-01T13:46:43Z</time>
      </trkpt>
      <trkpt lat="45.03947" lon="3.56664">
        <ele>872.53</ele>
        <time>2022-05-01T13:46:57Z</time>
      </trkpt>
      <trkpt lat="45.03944" lon="3.56645">
        <ele>872.05</ele>
        <time>2022-05-01T13:47:03Z</time>
      </trkpt>
      <trkpt lat="45.03938" lon="3.56617">
        <ele>870.61</ele>
        <time>2022-05-01T13:47:19Z</time>
      </trkpt>
      <trkpt lat="45.0393" lon="3.56604">
        <ele>873.98</ele>
        <time>2022-05-01T13:47:33Z</time>
      </trkpt>
      <trkpt lat="45.03924" lon="3.56591">
        <ele>876.86</ele>
        <time>2022-05-01T13:47:45Z</time>
      </trkpt>
      <trkpt lat="45.03921" lon="3.56583">
        <ele>872.53</ele>
        <time>2022-05-01T13:48:02Z</time>
      </trkpt>
      <trkpt lat="45.0392" lon="3.5658">
        <ele>873.5</ele>
        <time>2022-05-01T13:48:18Z</time>
      </trkpt>
      <trkpt lat="45.03919" lon="3.56573">
        <ele>872.53</ele>
        <time>2022-05-01T13:48:30Z</time>
      </trkpt>
      <trkpt lat="45.03905" lon="3.56548">
        <ele>873.98</ele>
        <time>2022-05-01T13:48:44Z</time>
      </trkpt>
      <trkpt lat="45.03899" lon="3.56537">
        <ele>880.71</ele>
        <time>2022-05-01T13:48:58Z</time>
      </trkpt>
      <trkpt lat="45.03879" lon="3.56526">
        <ele>892.72</ele>
        <time>2022-05-01T13:49:13Z</time>
      </trkpt>
      <trkpt lat="45.03869" lon="3.56511">
        <ele>893.68</ele>
        <time>2022-05-01T13:49:26Z</time>
      </trkpt>
      <trkpt lat="45.03861" lon="3.56504">
        <ele>898.49</ele>
        <time>2022-05-01T13:49:43Z</time>
      </trkpt>
      <trkpt lat="45.03851" lon="3.56497">
        <ele>907.14</ele>
        <time>2022-05-01T13:49:59Z</time>
      </trkpt>
      <trkpt lat="45.03838" lon="3.56486">
        <ele>912.91</ele>
        <time>2022-05-01T13:50:14Z</time>
      </trkpt>
      <trkpt lat="45.03837" lon="3.56477">
        <ele>916.27</ele>
        <time>2022-05-01T13:50:27Z</time>
      </trkpt>
      <trkpt lat="45.03833" lon="3.56468">
        <ele>911.95</ele>
        <time>2022-05-01T13:50:44Z</time>
      </trkpt>
      <trkpt lat="45.03817" lon="3.56451">
        <ele>893.68</ele>
        <time>2022-05-01T13:51:00Z</time>
      </trkpt>
      <trkpt lat="45.03802" lon="3.56436">
        <ele>863.4</ele>
        <time>2022-05-01T13:51:16Z</time>
      </trkpt>
      <trkpt lat="45.03782" lon="3.56431">
        <ele>853.31</ele>
        <time>2022-05-01T13:51:32Z</time>
      </trkpt>
      <trkpt lat="45.03769" lon="3.56429">
        <ele>850.42</ele>
        <time>2022-05-01T13:51:47Z</time>
      </trkpt>
      <trkpt lat="45.03755" lon="3.56428">
        <ele>850.9</ele>
        <time>2022-05-01T13:52:05Z</time>
      </trkpt>
      <trkpt lat="45.03748" lon="3.56426">
        <ele>851.87</ele>
        <time>2022-05-01T13:52:21Z</time>
      </trkpt>
      <trkpt lat="45.0374" lon="3.56427">
        <ele>854.75</ele>
        <time>2022-05-01T13:52:36Z</time>
      </trkpt>
      <trkpt lat="45.03721" lon="3.56432">
        <ele>856.19</ele>
        <time>2022-05-01T13:52:54Z</time>
      </trkpt>
      <trkpt lat="45.03712" lon="3.56433">
        <ele>857.15</ele>
        <time>2022-05-01T13:53:12Z</time>
      </trkpt>
      <trkpt lat="45.03707" lon="3.56434">
        <ele>858.11</ele>
        <time>2022-05-01T13:53:29Z</time>
      </trkpt>
      <trkpt lat="45.03697" lon="3.5644">
        <ele>858.59</ele>
        <time>2022-05-01T13:53:49Z</time>
      </trkpt>
      <trkpt lat="45.03677" lon="3.56459">
        <ele>857.15</ele>
        <time>2022-05-01T13:54:09Z</time>
      </trkpt>
      <trkpt lat="45.03667" lon="3.56482">
        <ele>857.63</ele>
        <time>2022-05-01T13:54:24Z</time>
      </trkpt>
      <trkpt lat="45.03659" lon="3.56497">
        <ele>865.32</ele>
        <time>2022-05-01T13:54:43Z</time>
      </trkpt>
      <trkpt lat="45.03658" lon="3.56505">
        <ele>871.09</ele>
        <time>2022-05-01T13:54:57Z</time>
      </trkpt>
      <trkpt lat="45.03664" lon="3.56517">
        <ele>873.5</ele>
        <time>2022-05-01T13:55:15Z</time>
      </trkpt>
      <trkpt lat="45.03669" lon="3.56527">
        <ele>874.46</ele>
        <time>2022-05-01T13:55:31Z</time>
      </trkpt>
      <trkpt lat="45.03672" lon="3.56532">
        <ele>874.46</ele>
        <time>2022-05-01T13:55:34Z</time>
      </trkpt>
      <trkpt lat="45.03685" lon="3.56548">
        <ele>872.53</ele>
        <time>2022-05-01T13:55:50Z</time>
      </trkpt>
      <trkpt lat="45.03696" lon="3.56561">
        <ele>874.46</ele>
        <time>2022-05-01T13:56:01Z</time>
      </trkpt>
      <trkpt lat="45.03699" lon="3.56569">
        <ele>874.94</ele>
        <time>2022-05-01T13:56:07Z</time>
      </trkpt>
      <trkpt lat="45.03703" lon="3.5659">
        <ele>876.38</ele>
        <time>2022-05-01T13:56:22Z</time>
      </trkpt>
      <trkpt lat="45.03703" lon="3.56609">
        <ele>882.63</ele>
        <time>2022-05-01T13:56:37Z</time>
      </trkpt>
      <trkpt lat="45.037" lon="3.56622">
        <ele>887.91</ele>
        <time>2022-05-01T13:56:51Z</time>
      </trkpt>
      <trkpt lat="45.03689" lon="3.56632">
        <ele>895.12</ele>
        <time>2022-05-01T13:57:06Z</time>
      </trkpt>
      <trkpt lat="45.03677" lon="3.56633">
        <ele>901.85</ele>
        <time>2022-05-01T13:57:19Z</time>
      </trkpt>
      <trkpt lat="45.03662" lon="3.56623">
        <ele>908.58</ele>
        <time>2022-05-01T13:57:36Z</time>
      </trkpt>
      <trkpt lat="45.03648" lon="3.56616">
        <ele>914.35</ele>
        <time>2022-05-01T13:57:52Z</time>
      </trkpt>
      <trkpt lat="45.03634" lon="3.56611">
        <ele>922.52</ele>
        <time>2022-05-01T13:58:09Z</time>
      </trkpt>
      <trkpt lat="45.0362" lon="3.56604">
        <ele>929.73</ele>
        <time>2022-05-01T13:58:24Z</time>
      </trkpt>
      <trkpt lat="45.03608" lon="3.56597">
        <ele>933.58</ele>
        <time>2022-05-01T13:58:39Z</time>
      </trkpt>
      <trkpt lat="45.03587" lon="3.56587">
        <ele>930.69</ele>
        <time>2022-05-01T13:58:57Z</time>
      </trkpt>
      <trkpt lat="45.03573" lon="3.56585">
        <ele>934.06</ele>
        <time>2022-05-01T13:59:13Z</time>
      </trkpt>
      <trkpt lat="45.03565" lon="3.56585">
        <ele>934.06</ele>
        <time>2022-05-01T13:59:27Z</time>
      </trkpt>
      <trkpt lat="45.03564" lon="3.56585">
        <ele>935.02</ele>
        <time>2022-05-01T13:59:45Z</time>
      </trkpt>
      <trkpt lat="45.03563" lon="3.56585">
        <ele>934.54</ele>
        <time>2022-05-01T14:00:03Z</time>
      </trkpt>
      <trkpt lat="45.03561" lon="3.56586">
        <ele>932.62</ele>
        <time>2022-05-01T14:00:23Z</time>
      </trkpt>
      <trkpt lat="45.03559" lon="3.56588">
        <ele>931.17</ele>
        <time>2022-05-01T14:00:45Z</time>
      </trkpt>
      <trkpt lat="45.03559" lon="3.56589">
        <ele>929.25</ele>
        <time>2022-05-01T14:01:12Z</time>
      </trkpt>
      <trkpt lat="45.03558" lon="3.56586">
        <ele>928.29</ele>
        <time>2022-05-01T14:01:28Z</time>
      </trkpt>
      <trkpt lat="45.03557" lon="3.56587">
        <ele>927.33</ele>
        <time>2022-05-01T14:01:49Z</time>
      </trkpt>
      <trkpt lat="45.03557" lon="3.56587">
        <ele>926.37</ele>
        <time>2022-05-01T14:02:04Z</time>
      </trkpt>
      <trkpt lat="45.03557" lon="3.56587">
        <ele>925.89</ele>
        <time>2022-05-01T14:02:31Z</time>
      </trkpt>
      <trkpt lat="45.03556" lon="3.56586">
        <ele>925.89</ele>
        <time>2022-05-01T14:03:00Z</time>
      </trkpt>
      <trkpt lat="45.03556" lon="3.56586">
        <ele>925.41</ele>
        <time>2022-05-01T14:03:19Z</time>
      </trkpt>
      <trkpt lat="45.03554" lon="3.56584">
        <ele>923.48</ele>
        <time>2022-05-01T14:03:42Z</time>
      </trkpt>
      <trkpt lat="45.03553" lon="3.56585">
        <ele>924.45</ele>
        <time>2022-05-01T14:04:08Z</time>
      </trkpt>
      <trkpt lat="45.03552" lon="3.56585">
        <ele>923.96</ele>
        <time>2022-05-01T14:04:36Z</time>
      </trkpt>
      <trkpt lat="45.03551" lon="3.56584">
        <ele>923</ele>
        <time>2022-05-01T14:05:02Z</time>
      </trkpt>
      <trkpt lat="45.03552" lon="3.56583">
        <ele>922.04</ele>
        <time>2022-05-01T14:05:35Z</time>
      </trkpt>
      <trkpt lat="45.03551" lon="3.56583">
        <ele>921.56</ele>
        <time>2022-05-01T14:05:57Z</time>
      </trkpt>
      <trkpt lat="45.03551" lon="3.56584">
        <ele>921.08</ele>
        <time>2022-05-01T14:06:18Z</time>
      </trkpt>
      <trkpt lat="45.0355" lon="3.56584">
        <ele>919.64</ele>
        <time>2022-05-01T14:06:49Z</time>
      </trkpt>
      <trkpt lat="45.0355" lon="3.56585">
        <ele>919.16</ele>
        <time>2022-05-01T14:07:14Z</time>
      </trkpt>
      <trkpt lat="45.0355" lon="3.56584">
        <ele>919.16</ele>
        <time>2022-05-01T14:07:36Z</time>
      </trkpt>
      <trkpt lat="45.03547" lon="3.56584">
        <ele>918.2</ele>
        <time>2022-05-01T14:07:55Z</time>
      </trkpt>
      <trkpt lat="45.03546" lon="3.56583">
        <ele>918.2</ele>
        <time>2022-05-01T14:08:07Z</time>
      </trkpt>
      <trkpt lat="45.0354" lon="3.56587">
        <ele>919.64</ele>
        <time>2022-05-01T14:08:23Z</time>
      </trkpt>
      <trkpt lat="45.03532" lon="3.56589">
        <ele>920.12</ele>
        <time>2022-05-01T14:08:33Z</time>
      </trkpt>
      <trkpt lat="45.03514" lon="3.56592">
        <ele>920.6</ele>
        <time>2022-05-01T14:08:49Z</time>
      </trkpt>
      <trkpt lat="45.03499" lon="3.56604">
        <ele>919.16</ele>
        <time>2022-05-01T14:09:05Z</time>
      </trkpt>
      <trkpt lat="45.03483" lon="3.56624">
        <ele>915.79</ele>
        <time>2022-05-01T14:09:23Z</time>
      </trkpt>
      <trkpt lat="45.03466" lon="3.56642">
        <ele>914.35</ele>
        <time>2022-05-01T14:09:41Z</time>
      </trkpt>
      <trkpt lat="45.03446" lon="3.56663">
        <ele>914.35</ele>
        <time>2022-05-01T14:10:01Z</time>
      </trkpt>
      <trkpt lat="45.03437" lon="3.56671">
        <ele>913.87</ele>
        <time>2022-05-01T14:10:10Z</time>
      </trkpt>
      <trkpt lat="45.0342" lon="3.56694">
        <ele>914.83</ele>
        <time>2022-05-01T14:10:31Z</time>
      </trkpt>
      <trkpt lat="45.03406" lon="3.56712">
        <ele>915.79</ele>
        <time>2022-05-01T14:10:47Z</time>
      </trkpt>
      <trkpt lat="45.03389" lon="3.56735">
        <ele>915.79</ele>
        <time>2022-05-01T14:11:07Z</time>
      </trkpt>
      <trkpt lat="45.03372" lon="3.56751">
        <ele>917.24</ele>
        <time>2022-05-01T14:11:26Z</time>
      </trkpt>
      <trkpt lat="45.03361" lon="3.56758">
        <ele>918.68</ele>
        <time>2022-05-01T14:11:40Z</time>
      </trkpt>
      <trkpt lat="45.03354" lon="3.5676">
        <ele>919.64</ele>
        <time>2022-05-01T14:11:48Z</time>
      </trkpt>
      <trkpt lat="45.03347" lon="3.5676">
        <ele>920.6</ele>
        <time>2022-05-01T14:11:55Z</time>
      </trkpt>
      <trkpt lat="45.03342" lon="3.56761">
        <ele>921.56</ele>
        <time>2022-05-01T14:12:00Z</time>
      </trkpt>
      <trkpt lat="45.03328" lon="3.56764">
        <ele>923.96</ele>
        <time>2022-05-01T14:12:15Z</time>
      </trkpt>
      <trkpt lat="45.03325" lon="3.56766">
        <ele>924.45</ele>
        <time>2022-05-01T14:12:28Z</time>
      </trkpt>
      <trkpt lat="45.03309" lon="3.56771">
        <ele>926.85</ele>
        <time>2022-05-01T14:12:45Z</time>
      </trkpt>
      <trkpt lat="45.03309" lon="3.56771">
        <ele>926.85</ele>
        <time>2022-05-01T14:12:46Z</time>
      </trkpt>
      <trkpt lat="45.03299" lon="3.56771">
        <ele>927.81</ele>
        <time>2022-05-01T14:13:00Z</time>
      </trkpt>
      <trkpt lat="45.03298" lon="3.56772">
        <ele>927.81</ele>
        <time>2022-05-01T14:13:01Z</time>
      </trkpt>
      <trkpt lat="45.03293" lon="3.56775">
        <ele>928.29</ele>
        <time>2022-05-01T14:13:10Z</time>
      </trkpt>
      <trkpt lat="45.03285" lon="3.56778">
        <ele>929.25</ele>
        <time>2022-05-01T14:13:23Z</time>
      </trkpt>
      <trkpt lat="45.03269" lon="3.56786">
        <ele>930.69</ele>
        <time>2022-05-01T14:13:40Z</time>
      </trkpt>
      <trkpt lat="45.03255" lon="3.56791">
        <ele>931.65</ele>
        <time>2022-05-01T14:13:55Z</time>
      </trkpt>
      <trkpt lat="45.03238" lon="3.56793">
        <ele>934.06</ele>
        <time>2022-05-01T14:14:10Z</time>
      </trkpt>
      <trkpt lat="45.03227" lon="3.56791">
        <ele>936.46</ele>
        <time>2022-05-01T14:14:20Z</time>
      </trkpt>
      <trkpt lat="45.0321" lon="3.56792">
        <ele>938.86</ele>
        <time>2022-05-01T14:14:37Z</time>
      </trkpt>
      <trkpt lat="45.03193" lon="3.5679">
        <ele>939.35</ele>
        <time>2022-05-01T14:14:53Z</time>
      </trkpt>
      <trkpt lat="45.03175" lon="3.56791">
        <ele>939.83</ele>
        <time>2022-05-01T14:15:09Z</time>
      </trkpt>
      <trkpt lat="45.03152" lon="3.56796">
        <ele>940.31</ele>
        <time>2022-05-01T14:15:26Z</time>
      </trkpt>
      <trkpt lat="45.03125" lon="3.56795">
        <ele>940.79</ele>
        <time>2022-05-01T14:15:47Z</time>
      </trkpt>
      <trkpt lat="45.03106" lon="3.5679">
        <ele>940.79</ele>
        <time>2022-05-01T14:16:03Z</time>
      </trkpt>
      <trkpt lat="45.03083" lon="3.56781">
        <ele>940.79</ele>
        <time>2022-05-01T14:16:22Z</time>
      </trkpt>
      <trkpt lat="45.03075" lon="3.56777">
        <ele>940.79</ele>
        <time>2022-05-01T14:16:29Z</time>
      </trkpt>
      <trkpt lat="45.0307" lon="3.56775">
        <ele>940.31</ele>
        <time>2022-05-01T14:16:34Z</time>
      </trkpt>
      <trkpt lat="45.03053" lon="3.56758">
        <ele>938.38</ele>
        <time>2022-05-01T14:16:53Z</time>
      </trkpt>
      <trkpt lat="45.03033" lon="3.5674">
        <ele>936.94</ele>
        <time>2022-05-01T14:17:11Z</time>
      </trkpt>
      <trkpt lat="45.03011" lon="3.5672">
        <ele>936.46</ele>
        <time>2022-05-01T14:17:33Z</time>
      </trkpt>
      <trkpt lat="45.03" lon="3.5671">
        <ele>937.42</ele>
        <time>2022-05-01T14:17:46Z</time>
      </trkpt>
      <trkpt lat="45.02985" lon="3.56698">
        <ele>937.9</ele>
        <time>2022-05-01T14:18:02Z</time>
      </trkpt>
      <trkpt lat="45.02969" lon="3.56686">
        <ele>937.42</ele>
        <time>2022-05-01T14:18:18Z</time>
      </trkpt>
      <trkpt lat="45.0296" lon="3.56682">
        <ele>937.9</ele>
        <time>2022-05-01T14:18:27Z</time>
      </trkpt>
      <trkpt lat="45.02955" lon="3.56678">
        <ele>937.42</ele>
        <time>2022-05-01T14:18:32Z</time>
      </trkpt>
      <trkpt lat="45.0294" lon="3.56671">
        <ele>937.42</ele>
        <time>2022-05-01T14:18:46Z</time>
      </trkpt>
      <trkpt lat="45.02936" lon="3.56668">
        <ele>936.94</ele>
        <time>2022-05-01T14:18:59Z</time>
      </trkpt>
      <trkpt lat="45.02913" lon="3.56669">
        <ele>936.46</ele>
        <time>2022-05-01T14:19:19Z</time>
      </trkpt>
      <trkpt lat="45.0289" lon="3.56664">
        <ele>935.5</ele>
        <time>2022-05-01T14:19:37Z</time>
      </trkpt>
      <trkpt lat="45.02867" lon="3.56658">
        <ele>935.5</ele>
        <time>2022-05-01T14:19:54Z</time>
      </trkpt>
      <trkpt lat="45.02842" lon="3.56646">
        <ele>936.46</ele>
        <time>2022-05-01T14:20:13Z</time>
      </trkpt>
      <trkpt lat="45.02821" lon="3.56631">
        <ele>937.9</ele>
        <time>2022-05-01T14:20:32Z</time>
      </trkpt>
      <trkpt lat="45.02798" lon="3.56615">
        <ele>935.5</ele>
        <time>2022-05-01T14:20:53Z</time>
      </trkpt>
      <trkpt lat="45.02781" lon="3.56618">
        <ele>933.1</ele>
        <time>2022-05-01T14:21:08Z</time>
      </trkpt>
      <trkpt lat="45.02778" lon="3.56622">
        <ele>931.65</ele>
        <time>2022-05-01T14:21:12Z</time>
      </trkpt>
      <trkpt lat="45.02769" lon="3.56649">
        <ele>929.25</ele>
        <time>2022-05-01T14:21:30Z</time>
      </trkpt>
      <trkpt lat="45.02759" lon="3.56676">
        <ele>927.33</ele>
        <time>2022-05-01T14:21:48Z</time>
      </trkpt>
      <trkpt lat="45.0275" lon="3.56702">
        <ele>925.41</ele>
        <time>2022-05-01T14:22:05Z</time>
      </trkpt>
      <trkpt lat="45.02739" lon="3.56729">
        <ele>922.04</ele>
        <time>2022-05-01T14:22:24Z</time>
      </trkpt>
      <trkpt lat="45.0273" lon="3.56755">
        <ele>920.6</ele>
        <time>2022-05-01T14:22:42Z</time>
      </trkpt>
      <trkpt lat="45.02727" lon="3.56776">
        <ele>919.64</ele>
        <time>2022-05-01T14:22:57Z</time>
      </trkpt>
      <trkpt lat="45.02723" lon="3.56807">
        <ele>918.2</ele>
        <time>2022-05-01T14:23:16Z</time>
      </trkpt>
      <trkpt lat="45.02733" lon="3.56837">
        <ele>914.83</ele>
        <time>2022-05-01T14:23:34Z</time>
      </trkpt>
      <trkpt lat="45.0274" lon="3.56863">
        <ele>913.39</ele>
        <time>2022-05-01T14:23:50Z</time>
      </trkpt>
      <trkpt lat="45.02745" lon="3.56891">
        <ele>912.91</ele>
        <time>2022-05-01T14:24:07Z</time>
      </trkpt>
      <trkpt lat="45.02748" lon="3.56915">
        <ele>912.43</ele>
        <time>2022-05-01T14:24:23Z</time>
      </trkpt>
      <trkpt lat="45.02753" lon="3.56938">
        <ele>910.99</ele>
        <time>2022-05-01T14:24:39Z</time>
      </trkpt>
      <trkpt lat="45.02763" lon="3.56966">
        <ele>910.03</ele>
        <time>2022-05-01T14:24:58Z</time>
      </trkpt>
      <trkpt lat="45.02771" lon="3.56989">
        <ele>909.54</ele>
        <time>2022-05-01T14:25:15Z</time>
      </trkpt>
      <trkpt lat="45.02774" lon="3.57008">
        <ele>908.58</ele>
        <time>2022-05-01T14:25:30Z</time>
      </trkpt>
      <trkpt lat="45.02771" lon="3.5702">
        <ele>907.62</ele>
        <time>2022-05-01T14:25:44Z</time>
      </trkpt>
      <trkpt lat="45.02767" lon="3.57042">
        <ele>908.1</ele>
        <time>2022-05-01T14:26:01Z</time>
      </trkpt>
      <trkpt lat="45.02764" lon="3.57058">
        <ele>907.14</ele>
        <time>2022-05-01T14:26:14Z</time>
      </trkpt>
      <trkpt lat="45.02761" lon="3.57062">
        <ele>906.66</ele>
        <time>2022-05-01T14:26:17Z</time>
      </trkpt>
      <trkpt lat="45.02757" lon="3.57073">
        <ele>905.7</ele>
        <time>2022-05-01T14:26:30Z</time>
      </trkpt>
      <trkpt lat="45.02755" lon="3.57083">
        <ele>904.26</ele>
        <time>2022-05-01T14:26:39Z</time>
      </trkpt>
      <trkpt lat="45.0276" lon="3.57101">
        <ele>902.33</ele>
        <time>2022-05-01T14:26:55Z</time>
      </trkpt>
    </trkseg>
  </trk>
</gpx>